<?xml version="1.0" encoding="UTF-8" standalone="no" ?>
<gpx xmlns="http://www.topografix.com/GPX/1/1" creator="CompeGPS" version="1.1" xmlns:xsi="http://www.w3.org/2001/XMLSchema-instance" xsi:schemaLocation="http://www.topografix.com/GPX/1/1 http://www.topografix.com/GPX/1/1/gpx.xsd http://www.garmin.com/xmlschemas/GpxExtensions/v3 http://www.garmin.com/xmlschemas/GpxExtensionsv3.xsd http://www.garmin.com/xmlschemas/TrackPointExtension/v1 http://www.garmin.com/xmlschemas/TrackPointExtensionv1.xsd" xmlns:gpxtpx="http://www.garmin.com/xmlschemas/TrackPointExtension/v1">
  <metadata>
    <link href="http://www.compegps.com">
      <text>CompeGPS TEAM, SL</text>
    </link>
    <time>2020-07-07T20:02:40Z</time>
    <bounds maxlat="42.786383" maxlon="0.250566" minlat="42.716713" minlon="0.216409"/>
  </metadata>
    <wpt lat="42.747653" lon="0.239074">
    <ele>1518.7</ele>
    <time>2020-07-07T18:30:45Z</time>
    <name>Bifurcation du lac de Hechemy</name>
    <desc></desc>
    <sym>Waypoint</sym>
  </wpt>
  <wpt lat="42.733929" lon="0.226879">
    <ele>1728.7</ele>
    <time>2020-07-07T18:32:28Z</time>
    <name>Traversee du ruisseau</name>
    <desc></desc>
    <sym>Waypoint</sym>
  </wpt>
  <wpt lat="42.727996" lon="0.224154">
    <ele>2025.1</ele>
    <time>2020-07-07T18:43:44Z</time>
    <name>Bifurcation du port de Hechempy</name>
    <desc></desc>
    <sym>Waypoint</sym>
  </wpt>
  <wpt lat="42.717224" lon="0.227004">
    <ele>2631.9</ele>
    <time>2020-07-07T19:08:19Z</time>
    <name>Pic de Marty Caberrou</name>
    <desc></desc>
    <sym>Waypoint</sym>
  </wpt>
  <wpt lat="42.718830" lon="0.233755">
    <ele>2546.7</ele>
    <time>2020-07-07T19:49:52Z</time>
    <name>Ressaut III+</name>
    <desc></desc>
    <sym>Waypoint</sym>
  </wpt>
  <wpt lat="42.745015" lon="0.240743">
    <ele>1528.1</ele>
    <time>2020-07-07T20:01:12Z</time>
    <name>Granges du Moundang</name>
    <desc></desc>
    <sym>Waypoint</sym>
  </wpt>
  <wpt lat="42.718682" lon="0.250100">
    <ele>2482.7</ele>
    <time>2020-07-07T20:01:41Z</time>
    <name>Port du Moudang</name>
    <desc></desc>
    <sym>Waypoint</sym>
  </wpt>
<trk>
    <name>pic_marty</name>
    <userMyTwoNav></userMyTwoNav>
    <serialNumber></serialNumber>
    <trkseg>
      <trkpt lat="42.786383" lon="0.246566">
        <ele>1050.3</ele>
        <time>2020-07-05T05:13:58Z</time>
      </trkpt>
      <trkpt lat="42.786352" lon="0.246435">
        <ele>1050.3</ele>
        <time>2020-07-05T05:14:10Z</time>
      </trkpt>
      <trkpt lat="42.786310" lon="0.246274">
        <ele>1050.3</ele>
        <time>2020-07-05T05:14:20Z</time>
      </trkpt>
      <trkpt lat="42.786273" lon="0.246150">
        <ele>1050.1</ele>
        <time>2020-07-05T05:14:36Z</time>
      </trkpt>
      <trkpt lat="42.786255" lon="0.246029">
        <ele>1050.1</ele>
        <time>2020-07-05T05:14:46Z</time>
      </trkpt>
      <trkpt lat="42.786218" lon="0.245908">
        <ele>1050.0</ele>
        <time>2020-07-05T05:14:56Z</time>
      </trkpt>
      <trkpt lat="42.786169" lon="0.245796">
        <ele>1050.0</ele>
        <time>2020-07-05T05:15:05Z</time>
      </trkpt>
      <trkpt lat="42.786101" lon="0.245625">
        <ele>1049.9</ele>
        <time>2020-07-05T05:15:16Z</time>
      </trkpt>
      <trkpt lat="42.786046" lon="0.245478">
        <ele>1052.2</ele>
        <time>2020-07-05T05:15:25Z</time>
      </trkpt>
      <trkpt lat="42.785977" lon="0.245309">
        <ele>1052.9</ele>
        <time>2020-07-05T05:15:36Z</time>
      </trkpt>
      <trkpt lat="42.785956" lon="0.245171">
        <ele>1052.9</ele>
        <time>2020-07-05T05:15:43Z</time>
      </trkpt>
      <trkpt lat="42.785926" lon="0.245042">
        <ele>1053.6</ele>
        <time>2020-07-05T05:15:51Z</time>
      </trkpt>
      <trkpt lat="42.785888" lon="0.244895">
        <ele>1054.3</ele>
        <time>2020-07-05T05:15:59Z</time>
      </trkpt>
      <trkpt lat="42.785861" lon="0.244777">
        <ele>1055.2</ele>
        <time>2020-07-05T05:16:07Z</time>
      </trkpt>
      <trkpt lat="42.785766" lon="0.244737">
        <ele>1056.8</ele>
        <time>2020-07-05T05:16:20Z</time>
      </trkpt>
      <trkpt lat="42.785738" lon="0.244882">
        <ele>1058.5</ele>
        <time>2020-07-05T05:16:29Z</time>
      </trkpt>
      <trkpt lat="42.785729" lon="0.245046">
        <ele>1060.3</ele>
        <time>2020-07-05T05:16:41Z</time>
      </trkpt>
      <trkpt lat="42.785677" lon="0.245228">
        <ele>1062.0</ele>
        <time>2020-07-05T05:16:52Z</time>
      </trkpt>
      <trkpt lat="42.785585" lon="0.245378">
        <ele>1065.5</ele>
        <time>2020-07-05T05:17:07Z</time>
      </trkpt>
      <trkpt lat="42.785489" lon="0.245464">
        <ele>1067.0</ele>
        <time>2020-07-05T05:17:18Z</time>
      </trkpt>
      <trkpt lat="42.785421" lon="0.245410">
        <ele>1070.3</ele>
        <time>2020-07-05T05:17:34Z</time>
      </trkpt>
      <trkpt lat="42.785336" lon="0.245326">
        <ele>1072.6</ele>
        <time>2020-07-05T05:17:51Z</time>
      </trkpt>
      <trkpt lat="42.785190" lon="0.245285">
        <ele>1073.8</ele>
        <time>2020-07-05T05:18:05Z</time>
      </trkpt>
      <trkpt lat="42.784959" lon="0.245241">
        <ele>1075.4</ele>
        <time>2020-07-05T05:18:18Z</time>
      </trkpt>
      <trkpt lat="42.784776" lon="0.245318">
        <ele>1078.6</ele>
        <time>2020-07-05T05:18:34Z</time>
      </trkpt>
      <trkpt lat="42.784589" lon="0.245497">
        <ele>1081.7</ele>
        <time>2020-07-05T05:18:50Z</time>
      </trkpt>
      <trkpt lat="42.784455" lon="0.245736">
        <ele>1084.3</ele>
        <time>2020-07-05T05:19:04Z</time>
      </trkpt>
      <trkpt lat="42.784371" lon="0.245819">
        <ele>1084.8</ele>
        <time>2020-07-05T05:19:16Z</time>
      </trkpt>
      <trkpt lat="42.784290" lon="0.245844">
        <ele>1087.4</ele>
        <time>2020-07-05T05:19:36Z</time>
      </trkpt>
      <trkpt lat="42.784186" lon="0.245816">
        <ele>1087.8</ele>
        <time>2020-07-05T05:19:55Z</time>
      </trkpt>
      <trkpt lat="42.784074" lon="0.245787">
        <ele>1089.2</ele>
        <time>2020-07-05T05:20:08Z</time>
      </trkpt>
      <trkpt lat="42.783888" lon="0.245794">
        <ele>1090.8</ele>
        <time>2020-07-05T05:20:24Z</time>
      </trkpt>
      <trkpt lat="42.783769" lon="0.245710">
        <ele>1092.5</ele>
        <time>2020-07-05T05:20:38Z</time>
      </trkpt>
      <trkpt lat="42.783643" lon="0.245718">
        <ele>1093.9</ele>
        <time>2020-07-05T05:20:52Z</time>
      </trkpt>
      <trkpt lat="42.783515" lon="0.245699">
        <ele>1096.2</ele>
        <time>2020-07-05T05:21:07Z</time>
      </trkpt>
      <trkpt lat="42.783346" lon="0.245685">
        <ele>1097.6</ele>
        <time>2020-07-05T05:21:20Z</time>
      </trkpt>
      <trkpt lat="42.783128" lon="0.245848">
        <ele>1099.7</ele>
        <time>2020-07-05T05:21:38Z</time>
      </trkpt>
      <trkpt lat="42.782957" lon="0.245869">
        <ele>1101.3</ele>
        <time>2020-07-05T05:21:49Z</time>
      </trkpt>
      <trkpt lat="42.782825" lon="0.245921">
        <ele>1103.8</ele>
        <time>2020-07-05T05:22:21Z</time>
      </trkpt>
      <trkpt lat="42.782691" lon="0.245941">
        <ele>1104.2</ele>
        <time>2020-07-05T05:22:35Z</time>
      </trkpt>
      <trkpt lat="42.782545" lon="0.245927">
        <ele>1106.5</ele>
        <time>2020-07-05T05:22:53Z</time>
      </trkpt>
      <trkpt lat="42.782435" lon="0.245756">
        <ele>1107.9</ele>
        <time>2020-07-05T05:23:05Z</time>
      </trkpt>
      <trkpt lat="42.782337" lon="0.245643">
        <ele>1108.4</ele>
        <time>2020-07-05T05:23:17Z</time>
      </trkpt>
      <trkpt lat="42.782226" lon="0.245541">
        <ele>1109.1</ele>
        <time>2020-07-05T05:23:26Z</time>
      </trkpt>
      <trkpt lat="42.782147" lon="0.245430">
        <ele>1110.9</ele>
        <time>2020-07-05T05:23:34Z</time>
      </trkpt>
      <trkpt lat="42.782091" lon="0.245304">
        <ele>1110.8</ele>
        <time>2020-07-05T05:23:41Z</time>
      </trkpt>
      <trkpt lat="42.782045" lon="0.245238">
        <ele>1111.6</ele>
        <time>2020-07-05T05:23:50Z</time>
      </trkpt>
      <trkpt lat="42.781958" lon="0.245086">
        <ele>1112.3</ele>
        <time>2020-07-05T05:24:02Z</time>
      </trkpt>
      <trkpt lat="42.781889" lon="0.244955">
        <ele>1113.0</ele>
        <time>2020-07-05T05:24:13Z</time>
      </trkpt>
      <trkpt lat="42.781747" lon="0.244773">
        <ele>1113.0</ele>
        <time>2020-07-05T05:24:22Z</time>
      </trkpt>
      <trkpt lat="42.781683" lon="0.244645">
        <ele>1113.0</ele>
        <time>2020-07-05T05:24:29Z</time>
      </trkpt>
      <trkpt lat="42.781735" lon="0.244568">
        <ele>1113.0</ele>
        <time>2020-07-05T05:24:35Z</time>
      </trkpt>
      <trkpt lat="42.781765" lon="0.244398">
        <ele>1113.0</ele>
        <time>2020-07-05T05:24:44Z</time>
      </trkpt>
      <trkpt lat="42.781650" lon="0.244193">
        <ele>1114.7</ele>
        <time>2020-07-05T05:24:56Z</time>
      </trkpt>
      <trkpt lat="42.781582" lon="0.244049">
        <ele>1117.2</ele>
        <time>2020-07-05T05:25:07Z</time>
      </trkpt>
      <trkpt lat="42.781480" lon="0.243904">
        <ele>1120.2</ele>
        <time>2020-07-05T05:25:17Z</time>
      </trkpt>
      <trkpt lat="42.781449" lon="0.243744">
        <ele>1123.1</ele>
        <time>2020-07-05T05:25:31Z</time>
      </trkpt>
      <trkpt lat="42.781394" lon="0.243617">
        <ele>1125.7</ele>
        <time>2020-07-05T05:25:46Z</time>
      </trkpt>
      <trkpt lat="42.781452" lon="0.243447">
        <ele>1128.6</ele>
        <time>2020-07-05T05:26:01Z</time>
      </trkpt>
      <trkpt lat="42.781428" lon="0.243236">
        <ele>1131.6</ele>
        <time>2020-07-05T05:26:15Z</time>
      </trkpt>
      <trkpt lat="42.781433" lon="0.243069">
        <ele>1134.4</ele>
        <time>2020-07-05T05:26:27Z</time>
      </trkpt>
      <trkpt lat="42.781451" lon="0.242910">
        <ele>1137.2</ele>
        <time>2020-07-05T05:26:42Z</time>
      </trkpt>
      <trkpt lat="42.781333" lon="0.242724">
        <ele>1141.0</ele>
        <time>2020-07-05T05:26:57Z</time>
      </trkpt>
      <trkpt lat="42.781269" lon="0.242581">
        <ele>1143.7</ele>
        <time>2020-07-05T05:27:12Z</time>
      </trkpt>
      <trkpt lat="42.781239" lon="0.242458">
        <ele>1146.3</ele>
        <time>2020-07-05T05:27:25Z</time>
      </trkpt>
      <trkpt lat="42.781188" lon="0.242199">
        <ele>1148.7</ele>
        <time>2020-07-05T05:27:41Z</time>
      </trkpt>
      <trkpt lat="42.781161" lon="0.241998">
        <ele>1151.9</ele>
        <time>2020-07-05T05:27:54Z</time>
      </trkpt>
      <trkpt lat="42.781172" lon="0.241775">
        <ele>1153.6</ele>
        <time>2020-07-05T05:28:09Z</time>
      </trkpt>
      <trkpt lat="42.781167" lon="0.241592">
        <ele>1156.4</ele>
        <time>2020-07-05T05:28:20Z</time>
      </trkpt>
      <trkpt lat="42.781174" lon="0.241383">
        <ele>1157.9</ele>
        <time>2020-07-05T05:28:34Z</time>
      </trkpt>
      <trkpt lat="42.781179" lon="0.241244">
        <ele>1160.6</ele>
        <time>2020-07-05T05:28:46Z</time>
      </trkpt>
      <trkpt lat="42.781137" lon="0.241039">
        <ele>1162.3</ele>
        <time>2020-07-05T05:29:00Z</time>
      </trkpt>
      <trkpt lat="42.781107" lon="0.240933">
        <ele>1163.9</ele>
        <time>2020-07-05T05:29:10Z</time>
      </trkpt>
      <trkpt lat="42.781112" lon="0.240734">
        <ele>1165.5</ele>
        <time>2020-07-05T05:29:22Z</time>
      </trkpt>
      <trkpt lat="42.780912" lon="0.240383">
        <ele>1168.9</ele>
        <time>2020-07-05T05:29:40Z</time>
      </trkpt>
      <trkpt lat="42.780715" lon="0.240180">
        <ele>1172.0</ele>
        <time>2020-07-05T05:29:56Z</time>
      </trkpt>
      <trkpt lat="42.780519" lon="0.240074">
        <ele>1174.4</ele>
        <time>2020-07-05T05:30:14Z</time>
      </trkpt>
      <trkpt lat="42.780515" lon="0.240004">
        <ele>1174.9</ele>
        <time>2020-07-05T05:31:45Z</time>
      </trkpt>
      <trkpt lat="42.780491" lon="0.239850">
        <ele>1176.7</ele>
        <time>2020-07-05T05:32:01Z</time>
      </trkpt>
      <trkpt lat="42.780410" lon="0.239737">
        <ele>1177.8</ele>
        <time>2020-07-05T05:32:16Z</time>
      </trkpt>
      <trkpt lat="42.780323" lon="0.239600">
        <ele>1181.1</ele>
        <time>2020-07-05T05:32:32Z</time>
      </trkpt>
      <trkpt lat="42.780187" lon="0.239454">
        <ele>1183.4</ele>
        <time>2020-07-05T05:32:51Z</time>
      </trkpt>
      <trkpt lat="42.780019" lon="0.239430">
        <ele>1185.2</ele>
        <time>2020-07-05T05:33:05Z</time>
      </trkpt>
      <trkpt lat="42.779864" lon="0.239414">
        <ele>1186.7</ele>
        <time>2020-07-05T05:33:20Z</time>
      </trkpt>
      <trkpt lat="42.779729" lon="0.239366">
        <ele>1188.2</ele>
        <time>2020-07-05T05:33:34Z</time>
      </trkpt>
      <trkpt lat="42.779608" lon="0.239267">
        <ele>1188.9</ele>
        <time>2020-07-05T05:33:49Z</time>
      </trkpt>
      <trkpt lat="42.779500" lon="0.239192">
        <ele>1189.7</ele>
        <time>2020-07-05T05:34:03Z</time>
      </trkpt>
      <trkpt lat="42.779387" lon="0.239090">
        <ele>1189.6</ele>
        <time>2020-07-05T05:34:15Z</time>
      </trkpt>
      <trkpt lat="42.779281" lon="0.238982">
        <ele>1189.5</ele>
        <time>2020-07-05T05:34:25Z</time>
      </trkpt>
      <trkpt lat="42.779228" lon="0.238862">
        <ele>1189.3</ele>
        <time>2020-07-05T05:34:35Z</time>
      </trkpt>
      <trkpt lat="42.779050" lon="0.238790">
        <ele>1189.2</ele>
        <time>2020-07-05T05:34:49Z</time>
      </trkpt>
      <trkpt lat="42.778906" lon="0.238744">
        <ele>1189.1</ele>
        <time>2020-07-05T05:35:07Z</time>
      </trkpt>
      <trkpt lat="42.778768" lon="0.238707">
        <ele>1190.8</ele>
        <time>2020-07-05T05:35:21Z</time>
      </trkpt>
      <trkpt lat="42.778665" lon="0.238796">
        <ele>1192.4</ele>
        <time>2020-07-05T05:35:36Z</time>
      </trkpt>
      <trkpt lat="42.778598" lon="0.238818">
        <ele>1193.0</ele>
        <time>2020-07-05T05:35:50Z</time>
      </trkpt>
      <trkpt lat="42.778514" lon="0.238921">
        <ele>1194.8</ele>
        <time>2020-07-05T05:36:09Z</time>
      </trkpt>
      <trkpt lat="42.778409" lon="0.238965">
        <ele>1197.2</ele>
        <time>2020-07-05T05:36:24Z</time>
      </trkpt>
      <trkpt lat="42.778212" lon="0.238980">
        <ele>1200.5</ele>
        <time>2020-07-05T05:36:42Z</time>
      </trkpt>
      <trkpt lat="42.778042" lon="0.238966">
        <ele>1202.2</ele>
        <time>2020-07-05T05:36:56Z</time>
      </trkpt>
      <trkpt lat="42.777903" lon="0.238905">
        <ele>1205.6</ele>
        <time>2020-07-05T05:37:10Z</time>
      </trkpt>
      <trkpt lat="42.777811" lon="0.238909">
        <ele>1208.7</ele>
        <time>2020-07-05T05:37:23Z</time>
      </trkpt>
      <trkpt lat="42.777677" lon="0.238893">
        <ele>1210.9</ele>
        <time>2020-07-05T05:37:42Z</time>
      </trkpt>
      <trkpt lat="42.777507" lon="0.238885">
        <ele>1213.3</ele>
        <time>2020-07-05T05:37:55Z</time>
      </trkpt>
      <trkpt lat="42.777375" lon="0.239126">
        <ele>1215.8</ele>
        <time>2020-07-05T05:38:10Z</time>
      </trkpt>
      <trkpt lat="42.777223" lon="0.239207">
        <ele>1217.6</ele>
        <time>2020-07-05T05:38:22Z</time>
      </trkpt>
      <trkpt lat="42.777036" lon="0.239145">
        <ele>1220.2</ele>
        <time>2020-07-05T05:38:36Z</time>
      </trkpt>
      <trkpt lat="42.776874" lon="0.239080">
        <ele>1221.9</ele>
        <time>2020-07-05T05:38:47Z</time>
      </trkpt>
      <trkpt lat="42.776773" lon="0.238986">
        <ele>1224.3</ele>
        <time>2020-07-05T05:39:01Z</time>
      </trkpt>
      <trkpt lat="42.776679" lon="0.238830">
        <ele>1226.6</ele>
        <time>2020-07-05T05:39:17Z</time>
      </trkpt>
      <trkpt lat="42.776543" lon="0.238649">
        <ele>1229.1</ele>
        <time>2020-07-05T05:39:31Z</time>
      </trkpt>
      <trkpt lat="42.776399" lon="0.238504">
        <ele>1231.4</ele>
        <time>2020-07-05T05:39:43Z</time>
      </trkpt>
      <trkpt lat="42.776242" lon="0.238464">
        <ele>1233.9</ele>
        <time>2020-07-05T05:39:58Z</time>
      </trkpt>
      <trkpt lat="42.776030" lon="0.238436">
        <ele>1237.5</ele>
        <time>2020-07-05T05:40:16Z</time>
      </trkpt>
      <trkpt lat="42.775890" lon="0.238467">
        <ele>1238.2</ele>
        <time>2020-07-05T05:40:29Z</time>
      </trkpt>
      <trkpt lat="42.775759" lon="0.238353">
        <ele>1239.9</ele>
        <time>2020-07-05T05:40:41Z</time>
      </trkpt>
      <trkpt lat="42.775614" lon="0.238304">
        <ele>1240.8</ele>
        <time>2020-07-05T05:40:52Z</time>
      </trkpt>
      <trkpt lat="42.775533" lon="0.238211">
        <ele>1242.3</ele>
        <time>2020-07-05T05:41:04Z</time>
      </trkpt>
      <trkpt lat="42.775421" lon="0.238118">
        <ele>1244.7</ele>
        <time>2020-07-05T05:41:15Z</time>
      </trkpt>
      <trkpt lat="42.775291" lon="0.238018">
        <ele>1246.3</ele>
        <time>2020-07-05T05:41:29Z</time>
      </trkpt>
      <trkpt lat="42.775193" lon="0.237941">
        <ele>1248.5</ele>
        <time>2020-07-05T05:41:43Z</time>
      </trkpt>
      <trkpt lat="42.775081" lon="0.238044">
        <ele>1249.9</ele>
        <time>2020-07-05T05:42:00Z</time>
      </trkpt>
      <trkpt lat="42.774873" lon="0.238198">
        <ele>1251.5</ele>
        <time>2020-07-05T05:42:17Z</time>
      </trkpt>
      <trkpt lat="42.774714" lon="0.238282">
        <ele>1253.0</ele>
        <time>2020-07-05T05:42:28Z</time>
      </trkpt>
      <trkpt lat="42.774626" lon="0.238453">
        <ele>1254.9</ele>
        <time>2020-07-05T05:42:39Z</time>
      </trkpt>
      <trkpt lat="42.774525" lon="0.238553">
        <ele>1256.8</ele>
        <time>2020-07-05T05:42:54Z</time>
      </trkpt>
      <trkpt lat="42.774407" lon="0.238715">
        <ele>1258.5</ele>
        <time>2020-07-05T05:43:06Z</time>
      </trkpt>
      <trkpt lat="42.774257" lon="0.238774">
        <ele>1260.3</ele>
        <time>2020-07-05T05:43:19Z</time>
      </trkpt>
      <trkpt lat="42.774125" lon="0.238701">
        <ele>1262.8</ele>
        <time>2020-07-05T05:43:35Z</time>
      </trkpt>
      <trkpt lat="42.773957" lon="0.238592">
        <ele>1264.3</ele>
        <time>2020-07-05T05:43:50Z</time>
      </trkpt>
      <trkpt lat="42.773867" lon="0.238448">
        <ele>1265.9</ele>
        <time>2020-07-05T05:43:59Z</time>
      </trkpt>
      <trkpt lat="42.773767" lon="0.238299">
        <ele>1267.4</ele>
        <time>2020-07-05T05:44:10Z</time>
      </trkpt>
      <trkpt lat="42.773648" lon="0.238187">
        <ele>1268.1</ele>
        <time>2020-07-05T05:44:21Z</time>
      </trkpt>
      <trkpt lat="42.773553" lon="0.238049">
        <ele>1269.6</ele>
        <time>2020-07-05T05:44:35Z</time>
      </trkpt>
      <trkpt lat="42.773371" lon="0.238029">
        <ele>1271.2</ele>
        <time>2020-07-05T05:44:47Z</time>
      </trkpt>
      <trkpt lat="42.773190" lon="0.238064">
        <ele>1271.9</ele>
        <time>2020-07-05T05:44:59Z</time>
      </trkpt>
      <trkpt lat="42.773053" lon="0.237961">
        <ele>1274.2</ele>
        <time>2020-07-05T05:45:15Z</time>
      </trkpt>
      <trkpt lat="42.772924" lon="0.237833">
        <ele>1276.7</ele>
        <time>2020-07-05T05:45:29Z</time>
      </trkpt>
      <trkpt lat="42.772839" lon="0.237904">
        <ele>1279.0</ele>
        <time>2020-07-05T05:45:45Z</time>
      </trkpt>
      <trkpt lat="42.772740" lon="0.237912">
        <ele>1281.0</ele>
        <time>2020-07-05T05:46:01Z</time>
      </trkpt>
      <trkpt lat="42.772621" lon="0.237916">
        <ele>1283.4</ele>
        <time>2020-07-05T05:46:15Z</time>
      </trkpt>
      <trkpt lat="42.772446" lon="0.237869">
        <ele>1285.7</ele>
        <time>2020-07-05T05:46:29Z</time>
      </trkpt>
      <trkpt lat="42.772239" lon="0.238066">
        <ele>1287.7</ele>
        <time>2020-07-05T05:46:47Z</time>
      </trkpt>
      <trkpt lat="42.772086" lon="0.238097">
        <ele>1290.5</ele>
        <time>2020-07-05T05:47:03Z</time>
      </trkpt>
      <trkpt lat="42.771902" lon="0.238105">
        <ele>1291.8</ele>
        <time>2020-07-05T05:47:16Z</time>
      </trkpt>
      <trkpt lat="42.771743" lon="0.238129">
        <ele>1293.1</ele>
        <time>2020-07-05T05:47:26Z</time>
      </trkpt>
      <trkpt lat="42.771702" lon="0.237960">
        <ele>1294.3</ele>
        <time>2020-07-05T05:47:39Z</time>
      </trkpt>
      <trkpt lat="42.771686" lon="0.237769">
        <ele>1295.6</ele>
        <time>2020-07-05T05:47:50Z</time>
      </trkpt>
      <trkpt lat="42.771609" lon="0.237552">
        <ele>1295.9</ele>
        <time>2020-07-05T05:48:04Z</time>
      </trkpt>
      <trkpt lat="42.771520" lon="0.237370">
        <ele>1297.2</ele>
        <time>2020-07-05T05:48:17Z</time>
      </trkpt>
      <trkpt lat="42.771426" lon="0.237237">
        <ele>1298.4</ele>
        <time>2020-07-05T05:48:29Z</time>
      </trkpt>
      <trkpt lat="42.771327" lon="0.237124">
        <ele>1300.7</ele>
        <time>2020-07-05T05:48:43Z</time>
      </trkpt>
      <trkpt lat="42.771235" lon="0.237027">
        <ele>1301.8</ele>
        <time>2020-07-05T05:48:58Z</time>
      </trkpt>
      <trkpt lat="42.771103" lon="0.236961">
        <ele>1303.1</ele>
        <time>2020-07-05T05:49:09Z</time>
      </trkpt>
      <trkpt lat="42.771009" lon="0.236844">
        <ele>1302.7</ele>
        <time>2020-07-05T05:49:19Z</time>
      </trkpt>
      <trkpt lat="42.770894" lon="0.236801">
        <ele>1303.0</ele>
        <time>2020-07-05T05:49:30Z</time>
      </trkpt>
      <trkpt lat="42.770757" lon="0.236738">
        <ele>1304.0</ele>
        <time>2020-07-05T05:49:41Z</time>
      </trkpt>
      <trkpt lat="42.770625" lon="0.236810">
        <ele>1305.1</ele>
        <time>2020-07-05T05:49:54Z</time>
      </trkpt>
      <trkpt lat="42.770498" lon="0.236943">
        <ele>1306.3</ele>
        <time>2020-07-05T05:50:06Z</time>
      </trkpt>
      <trkpt lat="42.770413" lon="0.237015">
        <ele>1306.6</ele>
        <time>2020-07-05T05:50:15Z</time>
      </trkpt>
      <trkpt lat="42.770349" lon="0.237211">
        <ele>1306.8</ele>
        <time>2020-07-05T05:50:26Z</time>
      </trkpt>
      <trkpt lat="42.770247" lon="0.237278">
        <ele>1307.7</ele>
        <time>2020-07-05T05:50:36Z</time>
      </trkpt>
      <trkpt lat="42.770116" lon="0.237362">
        <ele>1308.6</ele>
        <time>2020-07-05T05:50:51Z</time>
      </trkpt>
      <trkpt lat="42.769957" lon="0.237409">
        <ele>1309.5</ele>
        <time>2020-07-05T05:51:03Z</time>
      </trkpt>
      <trkpt lat="42.769769" lon="0.237496">
        <ele>1310.3</ele>
        <time>2020-07-05T05:51:17Z</time>
      </trkpt>
      <trkpt lat="42.769562" lon="0.237618">
        <ele>1311.9</ele>
        <time>2020-07-05T05:51:32Z</time>
      </trkpt>
      <trkpt lat="42.769385" lon="0.237560">
        <ele>1314.8</ele>
        <time>2020-07-05T05:51:46Z</time>
      </trkpt>
      <trkpt lat="42.769255" lon="0.237444">
        <ele>1316.1</ele>
        <time>2020-07-05T05:51:58Z</time>
      </trkpt>
      <trkpt lat="42.769128" lon="0.237272">
        <ele>1317.3</ele>
        <time>2020-07-05T05:52:12Z</time>
      </trkpt>
      <trkpt lat="42.769023" lon="0.237137">
        <ele>1316.7</ele>
        <time>2020-07-05T05:52:21Z</time>
      </trkpt>
      <trkpt lat="42.768916" lon="0.237046">
        <ele>1316.1</ele>
        <time>2020-07-05T05:52:33Z</time>
      </trkpt>
      <trkpt lat="42.768780" lon="0.237073">
        <ele>1318.8</ele>
        <time>2020-07-05T05:52:49Z</time>
      </trkpt>
      <trkpt lat="42.768620" lon="0.237117">
        <ele>1322.1</ele>
        <time>2020-07-05T05:53:07Z</time>
      </trkpt>
      <trkpt lat="42.768426" lon="0.237023">
        <ele>1324.6</ele>
        <time>2020-07-05T05:53:23Z</time>
      </trkpt>
      <trkpt lat="42.768252" lon="0.236938">
        <ele>1325.9</ele>
        <time>2020-07-05T05:53:38Z</time>
      </trkpt>
      <trkpt lat="42.768109" lon="0.236820">
        <ele>1327.6</ele>
        <time>2020-07-05T05:53:50Z</time>
      </trkpt>
      <trkpt lat="42.768014" lon="0.236694">
        <ele>1329.5</ele>
        <time>2020-07-05T05:54:02Z</time>
      </trkpt>
      <trkpt lat="42.767881" lon="0.236737">
        <ele>1329.8</ele>
        <time>2020-07-05T05:54:19Z</time>
      </trkpt>
      <trkpt lat="42.767709" lon="0.236619">
        <ele>1331.5</ele>
        <time>2020-07-05T05:54:33Z</time>
      </trkpt>
      <trkpt lat="42.767577" lon="0.236558">
        <ele>1333.4</ele>
        <time>2020-07-05T05:54:50Z</time>
      </trkpt>
      <trkpt lat="42.767414" lon="0.236495">
        <ele>1332.2</ele>
        <time>2020-07-05T05:55:04Z</time>
      </trkpt>
      <trkpt lat="42.767286" lon="0.236443">
        <ele>1333.6</ele>
        <time>2020-07-05T05:55:17Z</time>
      </trkpt>
      <trkpt lat="42.766990" lon="0.236497">
        <ele>1334.4</ele>
        <time>2020-07-05T05:55:38Z</time>
      </trkpt>
      <trkpt lat="42.766841" lon="0.236451">
        <ele>1335.7</ele>
        <time>2020-07-05T05:55:53Z</time>
      </trkpt>
      <trkpt lat="42.766700" lon="0.236421">
        <ele>1336.3</ele>
        <time>2020-07-05T05:56:07Z</time>
      </trkpt>
      <trkpt lat="42.766547" lon="0.236458">
        <ele>1336.7</ele>
        <time>2020-07-05T05:56:20Z</time>
      </trkpt>
      <trkpt lat="42.766412" lon="0.237443">
        <ele>1338.4</ele>
        <time>2020-07-05T05:56:34Z</time>
      </trkpt>
      <trkpt lat="42.766347" lon="0.237491">
        <ele>1338.5</ele>
        <time>2020-07-05T05:56:44Z</time>
      </trkpt>
      <trkpt lat="42.766299" lon="0.237463">
        <ele>1338.6</ele>
        <time>2020-07-05T05:56:53Z</time>
      </trkpt>
      <trkpt lat="42.766241" lon="0.237409">
        <ele>1337.9</ele>
        <time>2020-07-05T05:57:02Z</time>
      </trkpt>
      <trkpt lat="42.766150" lon="0.237238">
        <ele>1338.1</ele>
        <time>2020-07-05T05:57:12Z</time>
      </trkpt>
      <trkpt lat="42.766084" lon="0.237139">
        <ele>1337.0</ele>
        <time>2020-07-05T05:57:28Z</time>
      </trkpt>
      <trkpt lat="42.765974" lon="0.237011">
        <ele>1336.5</ele>
        <time>2020-07-05T05:57:37Z</time>
      </trkpt>
      <trkpt lat="42.765887" lon="0.236842">
        <ele>1335.9</ele>
        <time>2020-07-05T05:57:48Z</time>
      </trkpt>
      <trkpt lat="42.765775" lon="0.236691">
        <ele>1336.4</ele>
        <time>2020-07-05T05:57:56Z</time>
      </trkpt>
      <trkpt lat="42.765674" lon="0.236574">
        <ele>1337.0</ele>
        <time>2020-07-05T05:58:05Z</time>
      </trkpt>
      <trkpt lat="42.765592" lon="0.236386">
        <ele>1339.7</ele>
        <time>2020-07-05T05:58:14Z</time>
      </trkpt>
      <trkpt lat="42.765457" lon="0.236068">
        <ele>1341.1</ele>
        <time>2020-07-05T05:58:26Z</time>
      </trkpt>
      <trkpt lat="42.765319" lon="0.235904">
        <ele>1342.9</ele>
        <time>2020-07-05T05:58:36Z</time>
      </trkpt>
      <trkpt lat="42.765205" lon="0.235786">
        <ele>1344.7</ele>
        <time>2020-07-05T05:58:45Z</time>
      </trkpt>
      <trkpt lat="42.765117" lon="0.235688">
        <ele>1346.6</ele>
        <time>2020-07-05T05:58:54Z</time>
      </trkpt>
      <trkpt lat="42.765034" lon="0.235588">
        <ele>1347.6</ele>
        <time>2020-07-05T05:59:03Z</time>
      </trkpt>
      <trkpt lat="42.764948" lon="0.235497">
        <ele>1348.7</ele>
        <time>2020-07-05T05:59:12Z</time>
      </trkpt>
      <trkpt lat="42.764851" lon="0.235412">
        <ele>1349.8</ele>
        <time>2020-07-05T05:59:21Z</time>
      </trkpt>
      <trkpt lat="42.764737" lon="0.235317">
        <ele>1350.8</ele>
        <time>2020-07-05T05:59:31Z</time>
      </trkpt>
      <trkpt lat="42.764643" lon="0.235241">
        <ele>1351.0</ele>
        <time>2020-07-05T05:59:40Z</time>
      </trkpt>
      <trkpt lat="42.764572" lon="0.235143">
        <ele>1351.1</ele>
        <time>2020-07-05T05:59:47Z</time>
      </trkpt>
      <trkpt lat="42.764503" lon="0.235040">
        <ele>1351.3</ele>
        <time>2020-07-05T05:59:55Z</time>
      </trkpt>
      <trkpt lat="42.764399" lon="0.234967">
        <ele>1351.4</ele>
        <time>2020-07-05T06:00:06Z</time>
      </trkpt>
      <trkpt lat="42.764297" lon="0.234919">
        <ele>1353.3</ele>
        <time>2020-07-05T06:00:17Z</time>
      </trkpt>
      <trkpt lat="42.764175" lon="0.234944">
        <ele>1353.4</ele>
        <time>2020-07-05T06:00:32Z</time>
      </trkpt>
      <trkpt lat="42.763841" lon="0.234756">
        <ele>1356.0</ele>
        <time>2020-07-05T06:00:59Z</time>
      </trkpt>
      <trkpt lat="42.763631" lon="0.234802">
        <ele>1357.6</ele>
        <time>2020-07-05T06:01:18Z</time>
      </trkpt>
      <trkpt lat="42.763169" lon="0.234985">
        <ele>1360.6</ele>
        <time>2020-07-05T06:01:54Z</time>
      </trkpt>
      <trkpt lat="42.762747" lon="0.235127">
        <ele>1362.6</ele>
        <time>2020-07-05T06:02:26Z</time>
      </trkpt>
      <trkpt lat="42.762116" lon="0.235154">
        <ele>1370.8</ele>
        <time>2020-07-05T06:03:13Z</time>
      </trkpt>
      <trkpt lat="42.762019" lon="0.235126">
        <ele>1372.4</ele>
        <time>2020-07-05T06:03:23Z</time>
      </trkpt>
      <trkpt lat="42.761926" lon="0.235271">
        <ele>1373.5</ele>
        <time>2020-07-05T06:03:51Z</time>
      </trkpt>
      <trkpt lat="42.761740" lon="0.235412">
        <ele>1376.5</ele>
        <time>2020-07-05T06:05:47Z</time>
      </trkpt>
      <trkpt lat="42.761669" lon="0.235396">
        <ele>1379.0</ele>
        <time>2020-07-05T06:06:01Z</time>
      </trkpt>
      <trkpt lat="42.761596" lon="0.235410">
        <ele>1382.2</ele>
        <time>2020-07-05T06:06:38Z</time>
      </trkpt>
      <trkpt lat="42.761533" lon="0.235448">
        <ele>1385.9</ele>
        <time>2020-07-05T06:07:48Z</time>
      </trkpt>
      <trkpt lat="42.761446" lon="0.235399">
        <ele>1387.3</ele>
        <time>2020-07-05T06:07:59Z</time>
      </trkpt>
      <trkpt lat="42.761345" lon="0.235340">
        <ele>1389.5</ele>
        <time>2020-07-05T06:08:09Z</time>
      </trkpt>
      <trkpt lat="42.761240" lon="0.235280">
        <ele>1389.8</ele>
        <time>2020-07-05T06:08:18Z</time>
      </trkpt>
      <trkpt lat="42.761146" lon="0.235279">
        <ele>1391.0</ele>
        <time>2020-07-05T06:08:27Z</time>
      </trkpt>
      <trkpt lat="42.761047" lon="0.235331">
        <ele>1392.1</ele>
        <time>2020-07-05T06:08:35Z</time>
      </trkpt>
      <trkpt lat="42.760966" lon="0.235415">
        <ele>1392.3</ele>
        <time>2020-07-05T06:08:43Z</time>
      </trkpt>
      <trkpt lat="42.760878" lon="0.235562">
        <ele>1392.6</ele>
        <time>2020-07-05T06:08:51Z</time>
      </trkpt>
      <trkpt lat="42.760786" lon="0.235645">
        <ele>1392.8</ele>
        <time>2020-07-05T06:09:00Z</time>
      </trkpt>
      <trkpt lat="42.760692" lon="0.235701">
        <ele>1393.1</ele>
        <time>2020-07-05T06:09:08Z</time>
      </trkpt>
      <trkpt lat="42.760598" lon="0.235755">
        <ele>1393.4</ele>
        <time>2020-07-05T06:09:17Z</time>
      </trkpt>
      <trkpt lat="42.760516" lon="0.235884">
        <ele>1393.7</ele>
        <time>2020-07-05T06:09:25Z</time>
      </trkpt>
      <trkpt lat="42.760428" lon="0.235953">
        <ele>1393.9</ele>
        <time>2020-07-05T06:09:32Z</time>
      </trkpt>
      <trkpt lat="42.760335" lon="0.236001">
        <ele>1394.2</ele>
        <time>2020-07-05T06:09:39Z</time>
      </trkpt>
      <trkpt lat="42.760241" lon="0.236069">
        <ele>1395.1</ele>
        <time>2020-07-05T06:09:46Z</time>
      </trkpt>
      <trkpt lat="42.760144" lon="0.236141">
        <ele>1395.4</ele>
        <time>2020-07-05T06:09:54Z</time>
      </trkpt>
      <trkpt lat="42.760038" lon="0.236139">
        <ele>1396.3</ele>
        <time>2020-07-05T06:10:01Z</time>
      </trkpt>
      <trkpt lat="42.759922" lon="0.236154">
        <ele>1396.6</ele>
        <time>2020-07-05T06:10:10Z</time>
      </trkpt>
      <trkpt lat="42.759818" lon="0.236195">
        <ele>1396.8</ele>
        <time>2020-07-05T06:10:19Z</time>
      </trkpt>
      <trkpt lat="42.759711" lon="0.236241">
        <ele>1397.0</ele>
        <time>2020-07-05T06:10:27Z</time>
      </trkpt>
      <trkpt lat="42.759617" lon="0.236311">
        <ele>1397.9</ele>
        <time>2020-07-05T06:10:35Z</time>
      </trkpt>
      <trkpt lat="42.759542" lon="0.236402">
        <ele>1398.1</ele>
        <time>2020-07-05T06:10:43Z</time>
      </trkpt>
      <trkpt lat="42.759495" lon="0.236527">
        <ele>1398.2</ele>
        <time>2020-07-05T06:10:50Z</time>
      </trkpt>
      <trkpt lat="42.759447" lon="0.236649">
        <ele>1398.4</ele>
        <time>2020-07-05T06:10:57Z</time>
      </trkpt>
      <trkpt lat="42.759382" lon="0.236769">
        <ele>1399.3</ele>
        <time>2020-07-05T06:11:04Z</time>
      </trkpt>
      <trkpt lat="42.759294" lon="0.236893">
        <ele>1399.4</ele>
        <time>2020-07-05T06:11:11Z</time>
      </trkpt>
      <trkpt lat="42.759211" lon="0.236951">
        <ele>1399.6</ele>
        <time>2020-07-05T06:11:18Z</time>
      </trkpt>
      <trkpt lat="42.759125" lon="0.237001">
        <ele>1399.7</ele>
        <time>2020-07-05T06:11:25Z</time>
      </trkpt>
      <trkpt lat="42.759024" lon="0.237132">
        <ele>1399.9</ele>
        <time>2020-07-05T06:11:32Z</time>
      </trkpt>
      <trkpt lat="42.758942" lon="0.237227">
        <ele>1400.1</ele>
        <time>2020-07-05T06:11:39Z</time>
      </trkpt>
      <trkpt lat="42.758872" lon="0.237325">
        <ele>1400.3</ele>
        <time>2020-07-05T06:11:46Z</time>
      </trkpt>
      <trkpt lat="42.758797" lon="0.237416">
        <ele>1400.5</ele>
        <time>2020-07-05T06:11:53Z</time>
      </trkpt>
      <trkpt lat="42.758725" lon="0.237507">
        <ele>1401.5</ele>
        <time>2020-07-05T06:12:00Z</time>
      </trkpt>
      <trkpt lat="42.758659" lon="0.237599">
        <ele>1401.8</ele>
        <time>2020-07-05T06:12:07Z</time>
      </trkpt>
      <trkpt lat="42.758595" lon="0.237697">
        <ele>1402.8</ele>
        <time>2020-07-05T06:12:14Z</time>
      </trkpt>
      <trkpt lat="42.758524" lon="0.237776">
        <ele>1403.8</ele>
        <time>2020-07-05T06:12:21Z</time>
      </trkpt>
      <trkpt lat="42.758433" lon="0.237831">
        <ele>1404.8</ele>
        <time>2020-07-05T06:12:28Z</time>
      </trkpt>
      <trkpt lat="42.758338" lon="0.237877">
        <ele>1405.9</ele>
        <time>2020-07-05T06:12:35Z</time>
      </trkpt>
      <trkpt lat="42.758245" lon="0.237917">
        <ele>1406.9</ele>
        <time>2020-07-05T06:12:42Z</time>
      </trkpt>
      <trkpt lat="42.758150" lon="0.237943">
        <ele>1407.1</ele>
        <time>2020-07-05T06:12:49Z</time>
      </trkpt>
      <trkpt lat="42.758055" lon="0.237984">
        <ele>1408.2</ele>
        <time>2020-07-05T06:12:56Z</time>
      </trkpt>
      <trkpt lat="42.757964" lon="0.238033">
        <ele>1409.3</ele>
        <time>2020-07-05T06:13:03Z</time>
      </trkpt>
      <trkpt lat="42.757871" lon="0.238048">
        <ele>1410.3</ele>
        <time>2020-07-05T06:13:10Z</time>
      </trkpt>
      <trkpt lat="42.757784" lon="0.238026">
        <ele>1412.4</ele>
        <time>2020-07-05T06:13:18Z</time>
      </trkpt>
      <trkpt lat="42.757696" lon="0.237989">
        <ele>1414.3</ele>
        <time>2020-07-05T06:13:26Z</time>
      </trkpt>
      <trkpt lat="42.757603" lon="0.237943">
        <ele>1416.2</ele>
        <time>2020-07-05T06:13:34Z</time>
      </trkpt>
      <trkpt lat="42.757520" lon="0.237899">
        <ele>1416.4</ele>
        <time>2020-07-05T06:13:41Z</time>
      </trkpt>
      <trkpt lat="42.757431" lon="0.237828">
        <ele>1418.3</ele>
        <time>2020-07-05T06:13:49Z</time>
      </trkpt>
      <trkpt lat="42.757349" lon="0.237759">
        <ele>1418.5</ele>
        <time>2020-07-05T06:13:57Z</time>
      </trkpt>
      <trkpt lat="42.757261" lon="0.237718">
        <ele>1418.7</ele>
        <time>2020-07-05T06:14:04Z</time>
      </trkpt>
      <trkpt lat="42.757160" lon="0.237734">
        <ele>1419.0</ele>
        <time>2020-07-05T06:14:12Z</time>
      </trkpt>
      <trkpt lat="42.757072" lon="0.237783">
        <ele>1419.2</ele>
        <time>2020-07-05T06:14:19Z</time>
      </trkpt>
      <trkpt lat="42.756974" lon="0.237758">
        <ele>1419.4</ele>
        <time>2020-07-05T06:14:27Z</time>
      </trkpt>
      <trkpt lat="42.756886" lon="0.237713">
        <ele>1419.7</ele>
        <time>2020-07-05T06:14:34Z</time>
      </trkpt>
      <trkpt lat="42.756799" lon="0.237667">
        <ele>1419.9</ele>
        <time>2020-07-05T06:14:41Z</time>
      </trkpt>
      <trkpt lat="42.756715" lon="0.237624">
        <ele>1420.9</ele>
        <time>2020-07-05T06:14:48Z</time>
      </trkpt>
      <trkpt lat="42.756621" lon="0.237618">
        <ele>1421.1</ele>
        <time>2020-07-05T06:14:55Z</time>
      </trkpt>
      <trkpt lat="42.756527" lon="0.237639">
        <ele>1421.3</ele>
        <time>2020-07-05T06:15:02Z</time>
      </trkpt>
      <trkpt lat="42.756436" lon="0.237654">
        <ele>1423.1</ele>
        <time>2020-07-05T06:15:09Z</time>
      </trkpt>
      <trkpt lat="42.756331" lon="0.237656">
        <ele>1424.2</ele>
        <time>2020-07-05T06:15:17Z</time>
      </trkpt>
      <trkpt lat="42.756237" lon="0.237638">
        <ele>1425.1</ele>
        <time>2020-07-05T06:15:24Z</time>
      </trkpt>
      <trkpt lat="42.756141" lon="0.237647">
        <ele>1425.3</ele>
        <time>2020-07-05T06:15:31Z</time>
      </trkpt>
      <trkpt lat="42.756052" lon="0.237681">
        <ele>1426.3</ele>
        <time>2020-07-05T06:15:38Z</time>
      </trkpt>
      <trkpt lat="42.755963" lon="0.237731">
        <ele>1426.5</ele>
        <time>2020-07-05T06:15:45Z</time>
      </trkpt>
      <trkpt lat="42.755876" lon="0.237781">
        <ele>1427.6</ele>
        <time>2020-07-05T06:15:52Z</time>
      </trkpt>
      <trkpt lat="42.755786" lon="0.237822">
        <ele>1428.6</ele>
        <time>2020-07-05T06:15:59Z</time>
      </trkpt>
      <trkpt lat="42.755700" lon="0.237881">
        <ele>1428.8</ele>
        <time>2020-07-05T06:16:06Z</time>
      </trkpt>
      <trkpt lat="42.755623" lon="0.237960">
        <ele>1429.9</ele>
        <time>2020-07-05T06:16:13Z</time>
      </trkpt>
      <trkpt lat="42.755539" lon="0.238021">
        <ele>1430.9</ele>
        <time>2020-07-05T06:16:20Z</time>
      </trkpt>
      <trkpt lat="42.755448" lon="0.238060">
        <ele>1431.1</ele>
        <time>2020-07-05T06:16:27Z</time>
      </trkpt>
      <trkpt lat="42.755364" lon="0.238112">
        <ele>1432.1</ele>
        <time>2020-07-05T06:16:34Z</time>
      </trkpt>
      <trkpt lat="42.755272" lon="0.238159">
        <ele>1432.4</ele>
        <time>2020-07-05T06:16:41Z</time>
      </trkpt>
      <trkpt lat="42.755180" lon="0.238197">
        <ele>1433.5</ele>
        <time>2020-07-05T06:16:48Z</time>
      </trkpt>
      <trkpt lat="42.755090" lon="0.238223">
        <ele>1434.4</ele>
        <time>2020-07-05T06:16:55Z</time>
      </trkpt>
      <trkpt lat="42.754998" lon="0.238237">
        <ele>1435.4</ele>
        <time>2020-07-05T06:17:02Z</time>
      </trkpt>
      <trkpt lat="42.754906" lon="0.238261">
        <ele>1435.6</ele>
        <time>2020-07-05T06:17:09Z</time>
      </trkpt>
      <trkpt lat="42.754819" lon="0.238303">
        <ele>1436.7</ele>
        <time>2020-07-05T06:17:16Z</time>
      </trkpt>
      <trkpt lat="42.754748" lon="0.238377">
        <ele>1437.6</ele>
        <time>2020-07-05T06:17:23Z</time>
      </trkpt>
      <trkpt lat="42.754662" lon="0.238426">
        <ele>1438.6</ele>
        <time>2020-07-05T06:17:30Z</time>
      </trkpt>
      <trkpt lat="42.754573" lon="0.238418">
        <ele>1439.7</ele>
        <time>2020-07-05T06:17:37Z</time>
      </trkpt>
      <trkpt lat="42.754482" lon="0.238398">
        <ele>1439.9</ele>
        <time>2020-07-05T06:17:44Z</time>
      </trkpt>
      <trkpt lat="42.754382" lon="0.238412">
        <ele>1440.9</ele>
        <time>2020-07-05T06:17:51Z</time>
      </trkpt>
      <trkpt lat="42.754292" lon="0.238434">
        <ele>1441.1</ele>
        <time>2020-07-05T06:17:58Z</time>
      </trkpt>
      <trkpt lat="42.754201" lon="0.238455">
        <ele>1442.1</ele>
        <time>2020-07-05T06:18:05Z</time>
      </trkpt>
      <trkpt lat="42.754114" lon="0.238496">
        <ele>1442.3</ele>
        <time>2020-07-05T06:18:12Z</time>
      </trkpt>
      <trkpt lat="42.754027" lon="0.238543">
        <ele>1442.5</ele>
        <time>2020-07-05T06:18:19Z</time>
      </trkpt>
      <trkpt lat="42.753939" lon="0.238585">
        <ele>1443.5</ele>
        <time>2020-07-05T06:18:26Z</time>
      </trkpt>
      <trkpt lat="42.753847" lon="0.238604">
        <ele>1444.5</ele>
        <time>2020-07-05T06:18:33Z</time>
      </trkpt>
      <trkpt lat="42.753756" lon="0.238614">
        <ele>1445.5</ele>
        <time>2020-07-05T06:18:40Z</time>
      </trkpt>
      <trkpt lat="42.753667" lon="0.238593">
        <ele>1446.6</ele>
        <time>2020-07-05T06:18:47Z</time>
      </trkpt>
      <trkpt lat="42.753578" lon="0.238571">
        <ele>1446.7</ele>
        <time>2020-07-05T06:18:54Z</time>
      </trkpt>
      <trkpt lat="42.753492" lon="0.238545">
        <ele>1447.7</ele>
        <time>2020-07-05T06:19:01Z</time>
      </trkpt>
      <trkpt lat="42.753404" lon="0.238503">
        <ele>1448.8</ele>
        <time>2020-07-05T06:19:08Z</time>
      </trkpt>
      <trkpt lat="42.753314" lon="0.238460">
        <ele>1449.0</ele>
        <time>2020-07-05T06:19:15Z</time>
      </trkpt>
      <trkpt lat="42.753225" lon="0.238425">
        <ele>1449.9</ele>
        <time>2020-07-05T06:19:22Z</time>
      </trkpt>
      <trkpt lat="42.753137" lon="0.238391">
        <ele>1450.1</ele>
        <time>2020-07-05T06:19:29Z</time>
      </trkpt>
      <trkpt lat="42.753046" lon="0.238345">
        <ele>1451.1</ele>
        <time>2020-07-05T06:19:36Z</time>
      </trkpt>
      <trkpt lat="42.752953" lon="0.238311">
        <ele>1451.3</ele>
        <time>2020-07-05T06:19:43Z</time>
      </trkpt>
      <trkpt lat="42.752860" lon="0.238313">
        <ele>1452.3</ele>
        <time>2020-07-05T06:19:50Z</time>
      </trkpt>
      <trkpt lat="42.752763" lon="0.238319">
        <ele>1453.3</ele>
        <time>2020-07-05T06:19:57Z</time>
      </trkpt>
      <trkpt lat="42.752659" lon="0.238329">
        <ele>1454.3</ele>
        <time>2020-07-05T06:20:05Z</time>
      </trkpt>
      <trkpt lat="42.752562" lon="0.238358">
        <ele>1455.3</ele>
        <time>2020-07-05T06:20:13Z</time>
      </trkpt>
      <trkpt lat="42.752461" lon="0.238389">
        <ele>1456.3</ele>
        <time>2020-07-05T06:20:21Z</time>
      </trkpt>
      <trkpt lat="42.752364" lon="0.238395">
        <ele>1456.5</ele>
        <time>2020-07-05T06:20:28Z</time>
      </trkpt>
      <trkpt lat="42.752270" lon="0.238394">
        <ele>1457.6</ele>
        <time>2020-07-05T06:20:35Z</time>
      </trkpt>
      <trkpt lat="42.752174" lon="0.238387">
        <ele>1457.8</ele>
        <time>2020-07-05T06:20:42Z</time>
      </trkpt>
      <trkpt lat="42.752078" lon="0.238370">
        <ele>1457.9</ele>
        <time>2020-07-05T06:20:49Z</time>
      </trkpt>
      <trkpt lat="42.751981" lon="0.238357">
        <ele>1458.9</ele>
        <time>2020-07-05T06:20:56Z</time>
      </trkpt>
      <trkpt lat="42.751887" lon="0.238357">
        <ele>1460.0</ele>
        <time>2020-07-05T06:21:03Z</time>
      </trkpt>
      <trkpt lat="42.751795" lon="0.238380">
        <ele>1460.1</ele>
        <time>2020-07-05T06:21:10Z</time>
      </trkpt>
      <trkpt lat="42.751700" lon="0.238398">
        <ele>1461.1</ele>
        <time>2020-07-05T06:21:17Z</time>
      </trkpt>
      <trkpt lat="42.751604" lon="0.238415">
        <ele>1461.2</ele>
        <time>2020-07-05T06:21:24Z</time>
      </trkpt>
      <trkpt lat="42.751513" lon="0.238436">
        <ele>1461.4</ele>
        <time>2020-07-05T06:21:31Z</time>
      </trkpt>
      <trkpt lat="42.751424" lon="0.238452">
        <ele>1461.5</ele>
        <time>2020-07-05T06:21:38Z</time>
      </trkpt>
      <trkpt lat="42.751331" lon="0.238468">
        <ele>1462.4</ele>
        <time>2020-07-05T06:21:45Z</time>
      </trkpt>
      <trkpt lat="42.751234" lon="0.238509">
        <ele>1462.6</ele>
        <time>2020-07-05T06:21:52Z</time>
      </trkpt>
      <trkpt lat="42.751141" lon="0.238532">
        <ele>1462.8</ele>
        <time>2020-07-05T06:21:59Z</time>
      </trkpt>
      <trkpt lat="42.751042" lon="0.238549">
        <ele>1463.8</ele>
        <time>2020-07-05T06:22:06Z</time>
      </trkpt>
      <trkpt lat="42.750948" lon="0.238557">
        <ele>1463.9</ele>
        <time>2020-07-05T06:22:13Z</time>
      </trkpt>
      <trkpt lat="42.750850" lon="0.238587">
        <ele>1464.1</ele>
        <time>2020-07-05T06:22:20Z</time>
      </trkpt>
      <trkpt lat="42.750758" lon="0.238640">
        <ele>1464.2</ele>
        <time>2020-07-05T06:22:27Z</time>
      </trkpt>
      <trkpt lat="42.750676" lon="0.238697">
        <ele>1464.4</ele>
        <time>2020-07-05T06:22:34Z</time>
      </trkpt>
      <trkpt lat="42.750597" lon="0.238724">
        <ele>1465.5</ele>
        <time>2020-07-05T06:22:41Z</time>
      </trkpt>
      <trkpt lat="42.750510" lon="0.238746">
        <ele>1465.7</ele>
        <time>2020-07-05T06:22:48Z</time>
      </trkpt>
      <trkpt lat="42.750419" lon="0.238772">
        <ele>1466.6</ele>
        <time>2020-07-05T06:22:55Z</time>
      </trkpt>
      <trkpt lat="42.750326" lon="0.238790">
        <ele>1466.8</ele>
        <time>2020-07-05T06:23:02Z</time>
      </trkpt>
      <trkpt lat="42.750228" lon="0.238809">
        <ele>1466.9</ele>
        <time>2020-07-05T06:23:09Z</time>
      </trkpt>
      <trkpt lat="42.750126" lon="0.238836">
        <ele>1467.1</ele>
        <time>2020-07-05T06:23:17Z</time>
      </trkpt>
      <trkpt lat="42.750046" lon="0.238877">
        <ele>1467.4</ele>
        <time>2020-07-05T06:23:31Z</time>
      </trkpt>
      <trkpt lat="42.749954" lon="0.238937">
        <ele>1468.3</ele>
        <time>2020-07-05T06:23:38Z</time>
      </trkpt>
      <trkpt lat="42.749863" lon="0.238977">
        <ele>1468.4</ele>
        <time>2020-07-05T06:23:45Z</time>
      </trkpt>
      <trkpt lat="42.749768" lon="0.239000">
        <ele>1468.6</ele>
        <time>2020-07-05T06:23:52Z</time>
      </trkpt>
      <trkpt lat="42.749672" lon="0.239009">
        <ele>1469.6</ele>
        <time>2020-07-05T06:23:59Z</time>
      </trkpt>
      <trkpt lat="42.749578" lon="0.239017">
        <ele>1469.7</ele>
        <time>2020-07-05T06:24:06Z</time>
      </trkpt>
      <trkpt lat="42.749486" lon="0.239040">
        <ele>1469.8</ele>
        <time>2020-07-05T06:24:13Z</time>
      </trkpt>
      <trkpt lat="42.749393" lon="0.239055">
        <ele>1470.0</ele>
        <time>2020-07-05T06:24:20Z</time>
      </trkpt>
      <trkpt lat="42.749292" lon="0.239084">
        <ele>1471.0</ele>
        <time>2020-07-05T06:24:28Z</time>
      </trkpt>
      <trkpt lat="42.749201" lon="0.239104">
        <ele>1472.0</ele>
        <time>2020-07-05T06:24:35Z</time>
      </trkpt>
      <trkpt lat="42.749101" lon="0.239105">
        <ele>1472.2</ele>
        <time>2020-07-05T06:24:43Z</time>
      </trkpt>
      <trkpt lat="42.749004" lon="0.239091">
        <ele>1473.2</ele>
        <time>2020-07-05T06:24:51Z</time>
      </trkpt>
      <trkpt lat="42.748906" lon="0.239067">
        <ele>1473.4</ele>
        <time>2020-07-05T06:25:04Z</time>
      </trkpt>
      <trkpt lat="42.748818" lon="0.239031">
        <ele>1473.6</ele>
        <time>2020-07-05T06:25:12Z</time>
      </trkpt>
      <trkpt lat="42.748731" lon="0.238969">
        <ele>1473.8</ele>
        <time>2020-07-05T06:25:20Z</time>
      </trkpt>
      <trkpt lat="42.748657" lon="0.238907">
        <ele>1473.9</ele>
        <time>2020-07-05T06:25:27Z</time>
      </trkpt>
      <trkpt lat="42.748572" lon="0.238870">
        <ele>1474.1</ele>
        <time>2020-07-05T06:25:34Z</time>
      </trkpt>
      <trkpt lat="42.748482" lon="0.238839">
        <ele>1475.1</ele>
        <time>2020-07-05T06:25:43Z</time>
      </trkpt>
      <trkpt lat="42.748385" lon="0.238794">
        <ele>1475.2</ele>
        <time>2020-07-05T06:25:51Z</time>
      </trkpt>
      <trkpt lat="42.748289" lon="0.238796">
        <ele>1475.3</ele>
        <time>2020-07-05T06:25:58Z</time>
      </trkpt>
      <trkpt lat="42.748203" lon="0.238838">
        <ele>1475.5</ele>
        <time>2020-07-05T06:26:05Z</time>
      </trkpt>
      <trkpt lat="42.748120" lon="0.238883">
        <ele>1475.7</ele>
        <time>2020-07-05T06:26:12Z</time>
      </trkpt>
      <trkpt lat="42.748029" lon="0.238920">
        <ele>1476.7</ele>
        <time>2020-07-05T06:26:20Z</time>
      </trkpt>
      <trkpt lat="42.747933" lon="0.238958">
        <ele>1477.6</ele>
        <time>2020-07-05T06:26:28Z</time>
      </trkpt>
      <trkpt lat="42.747837" lon="0.239007">
        <ele>1478.6</ele>
        <time>2020-07-05T06:26:36Z</time>
      </trkpt>
      <trkpt lat="42.747742" lon="0.239051">
        <ele>1479.5</ele>
        <time>2020-07-05T06:26:44Z</time>
      </trkpt>
      <trkpt lat="42.747653" lon="0.239074">
        <ele>1481.2</ele>
        <time>2020-07-05T06:26:54Z</time>
      </trkpt>
      <trkpt lat="42.747646" lon="0.239065">
        <ele>1484.4</ele>
        <time>2020-07-05T06:29:53Z</time>
      </trkpt>
      <trkpt lat="42.747573" lon="0.239010">
        <ele>1486.0</ele>
        <time>2020-07-05T06:31:32Z</time>
      </trkpt>
      <trkpt lat="42.747480" lon="0.238991">
        <ele>1487.7</ele>
        <time>2020-07-05T06:31:40Z</time>
      </trkpt>
      <trkpt lat="42.747389" lon="0.238968">
        <ele>1489.6</ele>
        <time>2020-07-05T06:31:49Z</time>
      </trkpt>
      <trkpt lat="42.747298" lon="0.238941">
        <ele>1491.6</ele>
        <time>2020-07-05T06:31:58Z</time>
      </trkpt>
      <trkpt lat="42.747213" lon="0.238897">
        <ele>1492.4</ele>
        <time>2020-07-05T06:32:06Z</time>
      </trkpt>
      <trkpt lat="42.747139" lon="0.238830">
        <ele>1493.3</ele>
        <time>2020-07-05T06:32:13Z</time>
      </trkpt>
      <trkpt lat="42.747054" lon="0.238777">
        <ele>1495.3</ele>
        <time>2020-07-05T06:32:21Z</time>
      </trkpt>
      <trkpt lat="42.746967" lon="0.238737">
        <ele>1496.3</ele>
        <time>2020-07-05T06:32:29Z</time>
      </trkpt>
      <trkpt lat="42.746881" lon="0.238692">
        <ele>1496.4</ele>
        <time>2020-07-05T06:32:36Z</time>
      </trkpt>
      <trkpt lat="42.746787" lon="0.238644">
        <ele>1496.5</ele>
        <time>2020-07-05T06:32:44Z</time>
      </trkpt>
      <trkpt lat="42.746703" lon="0.238599">
        <ele>1497.3</ele>
        <time>2020-07-05T06:32:51Z</time>
      </trkpt>
      <trkpt lat="42.746604" lon="0.238555">
        <ele>1497.4</ele>
        <time>2020-07-05T06:32:59Z</time>
      </trkpt>
      <trkpt lat="42.746506" lon="0.238514">
        <ele>1497.6</ele>
        <time>2020-07-05T06:33:07Z</time>
      </trkpt>
      <trkpt lat="42.746413" lon="0.238494">
        <ele>1498.5</ele>
        <time>2020-07-05T06:33:15Z</time>
      </trkpt>
      <trkpt lat="42.746315" lon="0.238506">
        <ele>1499.4</ele>
        <time>2020-07-05T06:33:23Z</time>
      </trkpt>
      <trkpt lat="42.746214" lon="0.238523">
        <ele>1500.3</ele>
        <time>2020-07-05T06:33:31Z</time>
      </trkpt>
      <trkpt lat="42.746109" lon="0.238537">
        <ele>1500.4</ele>
        <time>2020-07-05T06:33:39Z</time>
      </trkpt>
      <trkpt lat="42.746017" lon="0.238547">
        <ele>1501.3</ele>
        <time>2020-07-05T06:33:46Z</time>
      </trkpt>
      <trkpt lat="42.745920" lon="0.238565">
        <ele>1502.3</ele>
        <time>2020-07-05T06:33:54Z</time>
      </trkpt>
      <trkpt lat="42.745830" lon="0.238582">
        <ele>1502.4</ele>
        <time>2020-07-05T06:34:01Z</time>
      </trkpt>
      <trkpt lat="42.745738" lon="0.238574">
        <ele>1504.4</ele>
        <time>2020-07-05T06:34:09Z</time>
      </trkpt>
      <trkpt lat="42.745633" lon="0.238551">
        <ele>1504.5</ele>
        <time>2020-07-05T06:34:17Z</time>
      </trkpt>
      <trkpt lat="42.745544" lon="0.238534">
        <ele>1505.4</ele>
        <time>2020-07-05T06:34:24Z</time>
      </trkpt>
      <trkpt lat="42.745454" lon="0.238516">
        <ele>1505.5</ele>
        <time>2020-07-05T06:34:31Z</time>
      </trkpt>
      <trkpt lat="42.745355" lon="0.238484">
        <ele>1507.2</ele>
        <time>2020-07-05T06:34:39Z</time>
      </trkpt>
      <trkpt lat="42.745262" lon="0.238447">
        <ele>1508.2</ele>
        <time>2020-07-05T06:34:47Z</time>
      </trkpt>
      <trkpt lat="42.745173" lon="0.238408">
        <ele>1508.3</ele>
        <time>2020-07-05T06:34:54Z</time>
      </trkpt>
      <trkpt lat="42.745081" lon="0.238360">
        <ele>1509.4</ele>
        <time>2020-07-05T06:35:01Z</time>
      </trkpt>
      <trkpt lat="42.744986" lon="0.238327">
        <ele>1509.4</ele>
        <time>2020-07-05T06:35:09Z</time>
      </trkpt>
      <trkpt lat="42.744898" lon="0.238280">
        <ele>1511.5</ele>
        <time>2020-07-05T06:35:18Z</time>
      </trkpt>
      <trkpt lat="42.744811" lon="0.238238">
        <ele>1511.7</ele>
        <time>2020-07-05T06:35:27Z</time>
      </trkpt>
      <trkpt lat="42.744720" lon="0.238203">
        <ele>1512.6</ele>
        <time>2020-07-05T06:35:37Z</time>
      </trkpt>
      <trkpt lat="42.744630" lon="0.238187">
        <ele>1513.6</ele>
        <time>2020-07-05T06:35:46Z</time>
      </trkpt>
      <trkpt lat="42.744540" lon="0.238154">
        <ele>1514.5</ele>
        <time>2020-07-05T06:35:54Z</time>
      </trkpt>
      <trkpt lat="42.744449" lon="0.238159">
        <ele>1515.4</ele>
        <time>2020-07-05T06:36:02Z</time>
      </trkpt>
      <trkpt lat="42.744353" lon="0.238170">
        <ele>1516.4</ele>
        <time>2020-07-05T06:36:10Z</time>
      </trkpt>
      <trkpt lat="42.744264" lon="0.238174">
        <ele>1516.5</ele>
        <time>2020-07-05T06:36:17Z</time>
      </trkpt>
      <trkpt lat="42.744173" lon="0.238131">
        <ele>1518.2</ele>
        <time>2020-07-05T06:36:25Z</time>
      </trkpt>
      <trkpt lat="42.744072" lon="0.238137">
        <ele>1518.3</ele>
        <time>2020-07-05T06:36:33Z</time>
      </trkpt>
      <trkpt lat="42.743982" lon="0.238123">
        <ele>1519.2</ele>
        <time>2020-07-05T06:36:42Z</time>
      </trkpt>
      <trkpt lat="42.743890" lon="0.238105">
        <ele>1520.1</ele>
        <time>2020-07-05T06:36:54Z</time>
      </trkpt>
      <trkpt lat="42.743800" lon="0.238058">
        <ele>1522.7</ele>
        <time>2020-07-05T06:37:07Z</time>
      </trkpt>
      <trkpt lat="42.743754" lon="0.237948">
        <ele>1528.3</ele>
        <time>2020-07-05T06:37:25Z</time>
      </trkpt>
      <trkpt lat="42.743772" lon="0.237810">
        <ele>1531.7</ele>
        <time>2020-07-05T06:37:41Z</time>
      </trkpt>
      <trkpt lat="42.743787" lon="0.237679">
        <ele>1534.9</ele>
        <time>2020-07-05T06:37:57Z</time>
      </trkpt>
      <trkpt lat="42.743752" lon="0.237565">
        <ele>1536.0</ele>
        <time>2020-07-05T06:38:13Z</time>
      </trkpt>
      <trkpt lat="42.743695" lon="0.237484">
        <ele>1539.9</ele>
        <time>2020-07-05T06:38:32Z</time>
      </trkpt>
      <trkpt lat="42.743618" lon="0.237459">
        <ele>1541.5</ele>
        <time>2020-07-05T06:38:44Z</time>
      </trkpt>
      <trkpt lat="42.743553" lon="0.237360">
        <ele>1541.5</ele>
        <time>2020-07-05T06:38:55Z</time>
      </trkpt>
      <trkpt lat="42.743567" lon="0.237244">
        <ele>1544.3</ele>
        <time>2020-07-05T06:39:09Z</time>
      </trkpt>
      <trkpt lat="42.743541" lon="0.237117">
        <ele>1545.2</ele>
        <time>2020-07-05T06:39:18Z</time>
      </trkpt>
      <trkpt lat="42.743499" lon="0.237016">
        <ele>1546.1</ele>
        <time>2020-07-05T06:39:30Z</time>
      </trkpt>
      <trkpt lat="42.743438" lon="0.236911">
        <ele>1546.9</ele>
        <time>2020-07-05T06:39:42Z</time>
      </trkpt>
      <trkpt lat="42.743394" lon="0.236785">
        <ele>1547.9</ele>
        <time>2020-07-05T06:39:53Z</time>
      </trkpt>
      <trkpt lat="42.743337" lon="0.236674">
        <ele>1550.4</ele>
        <time>2020-07-05T06:40:07Z</time>
      </trkpt>
      <trkpt lat="42.743260" lon="0.236574">
        <ele>1552.9</ele>
        <time>2020-07-05T06:40:21Z</time>
      </trkpt>
      <trkpt lat="42.743195" lon="0.236473">
        <ele>1554.6</ele>
        <time>2020-07-05T06:40:35Z</time>
      </trkpt>
      <trkpt lat="42.743189" lon="0.236332">
        <ele>1556.3</ele>
        <time>2020-07-05T06:40:46Z</time>
      </trkpt>
      <trkpt lat="42.743163" lon="0.236195">
        <ele>1556.3</ele>
        <time>2020-07-05T06:40:57Z</time>
      </trkpt>
      <trkpt lat="42.743180" lon="0.236068">
        <ele>1557.0</ele>
        <time>2020-07-05T06:41:07Z</time>
      </trkpt>
      <trkpt lat="42.743154" lon="0.235949">
        <ele>1557.0</ele>
        <time>2020-07-05T06:41:17Z</time>
      </trkpt>
      <trkpt lat="42.743105" lon="0.235831">
        <ele>1557.0</ele>
        <time>2020-07-05T06:41:27Z</time>
      </trkpt>
      <trkpt lat="42.743069" lon="0.235700">
        <ele>1557.1</ele>
        <time>2020-07-05T06:41:38Z</time>
      </trkpt>
      <trkpt lat="42.743027" lon="0.235581">
        <ele>1558.0</ele>
        <time>2020-07-05T06:41:51Z</time>
      </trkpt>
      <trkpt lat="42.742970" lon="0.235483">
        <ele>1558.0</ele>
        <time>2020-07-05T06:42:00Z</time>
      </trkpt>
      <trkpt lat="42.742904" lon="0.235390">
        <ele>1558.8</ele>
        <time>2020-07-05T06:42:12Z</time>
      </trkpt>
      <trkpt lat="42.742842" lon="0.235287">
        <ele>1559.9</ele>
        <time>2020-07-05T06:42:22Z</time>
      </trkpt>
      <trkpt lat="42.742768" lon="0.235209">
        <ele>1559.9</ele>
        <time>2020-07-05T06:42:33Z</time>
      </trkpt>
      <trkpt lat="42.742680" lon="0.235158">
        <ele>1556.5</ele>
        <time>2020-07-05T06:42:44Z</time>
      </trkpt>
      <trkpt lat="42.742591" lon="0.235122">
        <ele>1556.6</ele>
        <time>2020-07-05T06:42:53Z</time>
      </trkpt>
      <trkpt lat="42.742517" lon="0.235047">
        <ele>1556.7</ele>
        <time>2020-07-05T06:43:05Z</time>
      </trkpt>
      <trkpt lat="42.742479" lon="0.234909">
        <ele>1556.7</ele>
        <time>2020-07-05T06:43:15Z</time>
      </trkpt>
      <trkpt lat="42.742436" lon="0.234780">
        <ele>1556.8</ele>
        <time>2020-07-05T06:43:28Z</time>
      </trkpt>
      <trkpt lat="42.742398" lon="0.234661">
        <ele>1560.0</ele>
        <time>2020-07-05T06:43:39Z</time>
      </trkpt>
      <trkpt lat="42.742352" lon="0.234547">
        <ele>1560.9</ele>
        <time>2020-07-05T06:43:48Z</time>
      </trkpt>
      <trkpt lat="42.742298" lon="0.234434">
        <ele>1561.8</ele>
        <time>2020-07-05T06:43:58Z</time>
      </trkpt>
      <trkpt lat="42.742243" lon="0.234331">
        <ele>1563.5</ele>
        <time>2020-07-05T06:44:09Z</time>
      </trkpt>
      <trkpt lat="42.742189" lon="0.234210">
        <ele>1565.1</ele>
        <time>2020-07-05T06:44:21Z</time>
      </trkpt>
      <trkpt lat="42.742153" lon="0.234082">
        <ele>1567.0</ele>
        <time>2020-07-05T06:44:33Z</time>
      </trkpt>
      <trkpt lat="42.742180" lon="0.233960">
        <ele>1567.9</ele>
        <time>2020-07-05T06:44:44Z</time>
      </trkpt>
      <trkpt lat="42.742202" lon="0.233836">
        <ele>1569.6</ele>
        <time>2020-07-05T06:44:54Z</time>
      </trkpt>
      <trkpt lat="42.742177" lon="0.233740">
        <ele>1570.6</ele>
        <time>2020-07-05T06:45:12Z</time>
      </trkpt>
      <trkpt lat="42.742113" lon="0.233696">
        <ele>1574.5</ele>
        <time>2020-07-05T06:45:28Z</time>
      </trkpt>
      <trkpt lat="42.742091" lon="0.233568">
        <ele>1577.4</ele>
        <time>2020-07-05T06:45:45Z</time>
      </trkpt>
      <trkpt lat="42.742073" lon="0.233439">
        <ele>1580.1</ele>
        <time>2020-07-05T06:46:00Z</time>
      </trkpt>
      <trkpt lat="42.742051" lon="0.233326">
        <ele>1582.0</ele>
        <time>2020-07-05T06:46:15Z</time>
      </trkpt>
      <trkpt lat="42.742021" lon="0.233226">
        <ele>1583.8</ele>
        <time>2020-07-05T06:46:46Z</time>
      </trkpt>
      <trkpt lat="42.741968" lon="0.233145">
        <ele>1581.7</ele>
        <time>2020-07-05T06:47:23Z</time>
      </trkpt>
      <trkpt lat="42.741912" lon="0.233050">
        <ele>1581.8</ele>
        <time>2020-07-05T06:47:33Z</time>
      </trkpt>
      <trkpt lat="42.741862" lon="0.232949">
        <ele>1581.1</ele>
        <time>2020-07-05T06:47:44Z</time>
      </trkpt>
      <trkpt lat="42.741821" lon="0.232841">
        <ele>1581.2</ele>
        <time>2020-07-05T06:47:55Z</time>
      </trkpt>
      <trkpt lat="42.741812" lon="0.232809">
        <ele>1581.6</ele>
        <time>2020-07-05T06:48:31Z</time>
      </trkpt>
      <trkpt lat="42.741775" lon="0.232789">
        <ele>1583.0</ele>
        <time>2020-07-05T06:51:33Z</time>
      </trkpt>
      <trkpt lat="42.741755" lon="0.232652">
        <ele>1583.8</ele>
        <time>2020-07-05T06:53:01Z</time>
      </trkpt>
      <trkpt lat="42.741708" lon="0.232544">
        <ele>1586.2</ele>
        <time>2020-07-05T06:53:12Z</time>
      </trkpt>
      <trkpt lat="42.741626" lon="0.232491">
        <ele>1586.2</ele>
        <time>2020-07-05T06:53:22Z</time>
      </trkpt>
      <trkpt lat="42.741544" lon="0.232419">
        <ele>1587.1</ele>
        <time>2020-07-05T06:53:32Z</time>
      </trkpt>
      <trkpt lat="42.741458" lon="0.232339">
        <ele>1587.9</ele>
        <time>2020-07-05T06:53:44Z</time>
      </trkpt>
      <trkpt lat="42.741356" lon="0.232293">
        <ele>1590.9</ele>
        <time>2020-07-05T06:53:58Z</time>
      </trkpt>
      <trkpt lat="42.741272" lon="0.232252">
        <ele>1592.6</ele>
        <time>2020-07-05T06:54:10Z</time>
      </trkpt>
      <trkpt lat="42.741175" lon="0.232214">
        <ele>1595.3</ele>
        <time>2020-07-05T06:54:33Z</time>
      </trkpt>
      <trkpt lat="42.741079" lon="0.232240">
        <ele>1596.2</ele>
        <time>2020-07-05T06:54:45Z</time>
      </trkpt>
      <trkpt lat="42.741004" lon="0.232210">
        <ele>1598.2</ele>
        <time>2020-07-05T06:54:55Z</time>
      </trkpt>
      <trkpt lat="42.740913" lon="0.232190">
        <ele>1600.3</ele>
        <time>2020-07-05T06:55:06Z</time>
      </trkpt>
      <trkpt lat="42.740827" lon="0.232158">
        <ele>1601.1</ele>
        <time>2020-07-05T06:55:15Z</time>
      </trkpt>
      <trkpt lat="42.740748" lon="0.232096">
        <ele>1601.2</ele>
        <time>2020-07-05T06:55:24Z</time>
      </trkpt>
      <trkpt lat="42.740662" lon="0.232070">
        <ele>1602.8</ele>
        <time>2020-07-05T06:55:35Z</time>
      </trkpt>
      <trkpt lat="42.740577" lon="0.232009">
        <ele>1603.8</ele>
        <time>2020-07-05T06:55:45Z</time>
      </trkpt>
      <trkpt lat="42.740527" lon="0.231893">
        <ele>1606.0</ele>
        <time>2020-07-05T06:55:57Z</time>
      </trkpt>
      <trkpt lat="42.740527" lon="0.231774">
        <ele>1607.8</ele>
        <time>2020-07-05T06:56:08Z</time>
      </trkpt>
      <trkpt lat="42.740481" lon="0.231667">
        <ele>1610.6</ele>
        <time>2020-07-05T06:56:19Z</time>
      </trkpt>
      <trkpt lat="42.740454" lon="0.231541">
        <ele>1613.3</ele>
        <time>2020-07-05T06:56:30Z</time>
      </trkpt>
      <trkpt lat="42.740420" lon="0.231414">
        <ele>1614.3</ele>
        <time>2020-07-05T06:56:42Z</time>
      </trkpt>
      <trkpt lat="42.740382" lon="0.231312">
        <ele>1612.0</ele>
        <time>2020-07-05T06:56:52Z</time>
      </trkpt>
      <trkpt lat="42.740310" lon="0.231234">
        <ele>1612.1</ele>
        <time>2020-07-05T06:57:03Z</time>
      </trkpt>
      <trkpt lat="42.740252" lon="0.231124">
        <ele>1612.2</ele>
        <time>2020-07-05T06:57:12Z</time>
      </trkpt>
      <trkpt lat="42.740199" lon="0.231013">
        <ele>1615.4</ele>
        <time>2020-07-05T06:57:23Z</time>
      </trkpt>
      <trkpt lat="42.740112" lon="0.230934">
        <ele>1617.2</ele>
        <time>2020-07-05T06:57:34Z</time>
      </trkpt>
      <trkpt lat="42.740048" lon="0.230815">
        <ele>1618.1</ele>
        <time>2020-07-05T06:57:43Z</time>
      </trkpt>
      <trkpt lat="42.739997" lon="0.230732">
        <ele>1618.2</ele>
        <time>2020-07-05T06:57:52Z</time>
      </trkpt>
      <trkpt lat="42.739893" lon="0.230694">
        <ele>1619.0</ele>
        <time>2020-07-05T06:58:02Z</time>
      </trkpt>
      <trkpt lat="42.739809" lon="0.230607">
        <ele>1619.4</ele>
        <time>2020-07-05T06:58:51Z</time>
      </trkpt>
      <trkpt lat="42.739722" lon="0.230512">
        <ele>1620.3</ele>
        <time>2020-07-05T06:59:10Z</time>
      </trkpt>
      <trkpt lat="42.739617" lon="0.230447">
        <ele>1622.2</ele>
        <time>2020-07-05T06:59:22Z</time>
      </trkpt>
      <trkpt lat="42.739516" lon="0.230381">
        <ele>1624.0</ele>
        <time>2020-07-05T06:59:33Z</time>
      </trkpt>
      <trkpt lat="42.739393" lon="0.230332">
        <ele>1624.1</ele>
        <time>2020-07-05T06:59:43Z</time>
      </trkpt>
      <trkpt lat="42.739283" lon="0.230315">
        <ele>1626.8</ele>
        <time>2020-07-05T06:59:55Z</time>
      </trkpt>
      <trkpt lat="42.739221" lon="0.230291">
        <ele>1627.6</ele>
        <time>2020-07-05T07:00:16Z</time>
      </trkpt>
      <trkpt lat="42.739146" lon="0.230226">
        <ele>1629.3</ele>
        <time>2020-07-05T07:00:29Z</time>
      </trkpt>
      <trkpt lat="42.739057" lon="0.230168">
        <ele>1630.1</ele>
        <time>2020-07-05T07:00:43Z</time>
      </trkpt>
      <trkpt lat="42.738947" lon="0.230077">
        <ele>1630.0</ele>
        <time>2020-07-05T07:00:56Z</time>
      </trkpt>
      <trkpt lat="42.738880" lon="0.230086">
        <ele>1632.5</ele>
        <time>2020-07-05T07:01:07Z</time>
      </trkpt>
      <trkpt lat="42.738795" lon="0.230058">
        <ele>1632.4</ele>
        <time>2020-07-05T07:01:19Z</time>
      </trkpt>
      <trkpt lat="42.738708" lon="0.229981">
        <ele>1632.3</ele>
        <time>2020-07-05T07:01:30Z</time>
      </trkpt>
      <trkpt lat="42.738608" lon="0.229919">
        <ele>1632.3</ele>
        <time>2020-07-05T07:01:41Z</time>
      </trkpt>
      <trkpt lat="42.738487" lon="0.229839">
        <ele>1633.2</ele>
        <time>2020-07-05T07:01:50Z</time>
      </trkpt>
      <trkpt lat="42.738367" lon="0.229825">
        <ele>1633.1</ele>
        <time>2020-07-05T07:02:01Z</time>
      </trkpt>
      <trkpt lat="42.738336" lon="0.229837">
        <ele>1636.8</ele>
        <time>2020-07-05T07:02:15Z</time>
      </trkpt>
      <trkpt lat="42.738268" lon="0.229776">
        <ele>1638.5</ele>
        <time>2020-07-05T07:02:31Z</time>
      </trkpt>
      <trkpt lat="42.738166" lon="0.229742">
        <ele>1639.2</ele>
        <time>2020-07-05T07:02:41Z</time>
      </trkpt>
      <trkpt lat="42.738095" lon="0.229614">
        <ele>1639.1</ele>
        <time>2020-07-05T07:02:52Z</time>
      </trkpt>
      <trkpt lat="42.738023" lon="0.229552">
        <ele>1639.1</ele>
        <time>2020-07-05T07:03:02Z</time>
      </trkpt>
      <trkpt lat="42.737944" lon="0.229452">
        <ele>1639.1</ele>
        <time>2020-07-05T07:03:13Z</time>
      </trkpt>
      <trkpt lat="42.737907" lon="0.229323">
        <ele>1640.0</ele>
        <time>2020-07-05T07:03:24Z</time>
      </trkpt>
      <trkpt lat="42.737824" lon="0.229276">
        <ele>1639.9</ele>
        <time>2020-07-05T07:03:33Z</time>
      </trkpt>
      <trkpt lat="42.737735" lon="0.229195">
        <ele>1640.0</ele>
        <time>2020-07-05T07:03:42Z</time>
      </trkpt>
      <trkpt lat="42.737628" lon="0.229125">
        <ele>1640.1</ele>
        <time>2020-07-05T07:03:51Z</time>
      </trkpt>
      <trkpt lat="42.737535" lon="0.229034">
        <ele>1640.9</ele>
        <time>2020-07-05T07:04:00Z</time>
      </trkpt>
      <trkpt lat="42.737447" lon="0.228943">
        <ele>1641.9</ele>
        <time>2020-07-05T07:04:11Z</time>
      </trkpt>
      <trkpt lat="42.737361" lon="0.228873">
        <ele>1642.7</ele>
        <time>2020-07-05T07:04:20Z</time>
      </trkpt>
      <trkpt lat="42.737280" lon="0.228752">
        <ele>1643.5</ele>
        <time>2020-07-05T07:04:29Z</time>
      </trkpt>
      <trkpt lat="42.737208" lon="0.228673">
        <ele>1644.7</ele>
        <time>2020-07-05T07:04:38Z</time>
      </trkpt>
      <trkpt lat="42.737120" lon="0.228561">
        <ele>1646.7</ele>
        <time>2020-07-05T07:04:48Z</time>
      </trkpt>
      <trkpt lat="42.737024" lon="0.228459">
        <ele>1647.6</ele>
        <time>2020-07-05T07:04:59Z</time>
      </trkpt>
      <trkpt lat="42.736947" lon="0.228405">
        <ele>1649.3</ele>
        <time>2020-07-05T07:05:11Z</time>
      </trkpt>
      <trkpt lat="42.736830" lon="0.228336">
        <ele>1650.1</ele>
        <time>2020-07-05T07:05:22Z</time>
      </trkpt>
      <trkpt lat="42.736721" lon="0.228295">
        <ele>1650.1</ele>
        <time>2020-07-05T07:05:32Z</time>
      </trkpt>
      <trkpt lat="42.736615" lon="0.228212">
        <ele>1650.8</ele>
        <time>2020-07-05T07:05:42Z</time>
      </trkpt>
      <trkpt lat="42.736500" lon="0.228109">
        <ele>1653.2</ele>
        <time>2020-07-05T07:05:55Z</time>
      </trkpt>
      <trkpt lat="42.736408" lon="0.227953">
        <ele>1655.8</ele>
        <time>2020-07-05T07:06:11Z</time>
      </trkpt>
      <trkpt lat="42.736351" lon="0.227822">
        <ele>1656.5</ele>
        <time>2020-07-05T07:06:23Z</time>
      </trkpt>
      <trkpt lat="42.736276" lon="0.227737">
        <ele>1656.3</ele>
        <time>2020-07-05T07:06:36Z</time>
      </trkpt>
      <trkpt lat="42.736234" lon="0.227636">
        <ele>1655.9</ele>
        <time>2020-07-05T07:07:05Z</time>
      </trkpt>
      <trkpt lat="42.736189" lon="0.227549">
        <ele>1656.5</ele>
        <time>2020-07-05T07:07:26Z</time>
      </trkpt>
      <trkpt lat="42.736097" lon="0.227492">
        <ele>1658.1</ele>
        <time>2020-07-05T07:07:42Z</time>
      </trkpt>
      <trkpt lat="42.735993" lon="0.227422">
        <ele>1659.6</ele>
        <time>2020-07-05T07:07:59Z</time>
      </trkpt>
      <trkpt lat="42.735923" lon="0.227338">
        <ele>1662.0</ele>
        <time>2020-07-05T07:08:12Z</time>
      </trkpt>
      <trkpt lat="42.735829" lon="0.227263">
        <ele>1663.3</ele>
        <time>2020-07-05T07:08:27Z</time>
      </trkpt>
      <trkpt lat="42.735753" lon="0.227179">
        <ele>1663.8</ele>
        <time>2020-07-05T07:08:47Z</time>
      </trkpt>
      <trkpt lat="42.735666" lon="0.227171">
        <ele>1666.8</ele>
        <time>2020-07-05T07:09:05Z</time>
      </trkpt>
      <trkpt lat="42.735565" lon="0.227244">
        <ele>1668.4</ele>
        <time>2020-07-05T07:09:17Z</time>
      </trkpt>
      <trkpt lat="42.735456" lon="0.227253">
        <ele>1669.9</ele>
        <time>2020-07-05T07:09:32Z</time>
      </trkpt>
      <trkpt lat="42.735361" lon="0.227237">
        <ele>1672.6</ele>
        <time>2020-07-05T07:09:45Z</time>
      </trkpt>
      <trkpt lat="42.735259" lon="0.227219">
        <ele>1674.9</ele>
        <time>2020-07-05T07:10:04Z</time>
      </trkpt>
      <trkpt lat="42.735189" lon="0.227178">
        <ele>1676.5</ele>
        <time>2020-07-05T07:10:18Z</time>
      </trkpt>
      <trkpt lat="42.735077" lon="0.227131">
        <ele>1680.2</ele>
        <time>2020-07-05T07:10:36Z</time>
      </trkpt>
      <trkpt lat="42.734975" lon="0.227119">
        <ele>1680.1</ele>
        <time>2020-07-05T07:10:47Z</time>
      </trkpt>
      <trkpt lat="42.734876" lon="0.227140">
        <ele>1680.0</ele>
        <time>2020-07-05T07:11:00Z</time>
      </trkpt>
      <trkpt lat="42.734773" lon="0.227120">
        <ele>1681.7</ele>
        <time>2020-07-05T07:11:14Z</time>
      </trkpt>
      <trkpt lat="42.734703" lon="0.227119">
        <ele>1681.6</ele>
        <time>2020-07-05T07:11:24Z</time>
      </trkpt>
      <trkpt lat="42.734627" lon="0.227109">
        <ele>1682.4</ele>
        <time>2020-07-05T07:11:35Z</time>
      </trkpt>
      <trkpt lat="42.734519" lon="0.227071">
        <ele>1682.4</ele>
        <time>2020-07-05T07:11:46Z</time>
      </trkpt>
      <trkpt lat="42.734417" lon="0.227048">
        <ele>1683.2</ele>
        <time>2020-07-05T07:11:57Z</time>
      </trkpt>
      <trkpt lat="42.734311" lon="0.227023">
        <ele>1684.1</ele>
        <time>2020-07-05T07:12:08Z</time>
      </trkpt>
      <trkpt lat="42.734217" lon="0.227012">
        <ele>1686.0</ele>
        <time>2020-07-05T07:12:22Z</time>
      </trkpt>
      <trkpt lat="42.734117" lon="0.226986">
        <ele>1685.9</ele>
        <time>2020-07-05T07:12:34Z</time>
      </trkpt>
      <trkpt lat="42.734016" lon="0.226959">
        <ele>1686.8</ele>
        <time>2020-07-05T07:12:46Z</time>
      </trkpt>
      <trkpt lat="42.733929" lon="0.226879">
        <ele>1688.4</ele>
        <time>2020-07-05T07:13:00Z</time>
      </trkpt>
      <trkpt lat="42.733883" lon="0.226812">
        <ele>1692.3</ele>
        <time>2020-07-05T07:14:52Z</time>
      </trkpt>
      <trkpt lat="42.733802" lon="0.226843">
        <ele>1695.9</ele>
        <time>2020-07-05T07:15:09Z</time>
      </trkpt>
      <trkpt lat="42.733741" lon="0.226802">
        <ele>1698.9</ele>
        <time>2020-07-05T07:15:27Z</time>
      </trkpt>
      <trkpt lat="42.733684" lon="0.226725">
        <ele>1702.7</ele>
        <time>2020-07-05T07:15:47Z</time>
      </trkpt>
      <trkpt lat="42.733625" lon="0.226679">
        <ele>1705.2</ele>
        <time>2020-07-05T07:16:07Z</time>
      </trkpt>
      <trkpt lat="42.733576" lon="0.226657">
        <ele>1708.5</ele>
        <time>2020-07-05T07:17:02Z</time>
      </trkpt>
      <trkpt lat="42.733575" lon="0.226614">
        <ele>1709.2</ele>
        <time>2020-07-05T07:18:00Z</time>
      </trkpt>
      <trkpt lat="42.733491" lon="0.226574">
        <ele>1712.1</ele>
        <time>2020-07-05T07:18:21Z</time>
      </trkpt>
      <trkpt lat="42.733401" lon="0.226638">
        <ele>1713.2</ele>
        <time>2020-07-05T07:18:37Z</time>
      </trkpt>
      <trkpt lat="42.733346" lon="0.226585">
        <ele>1715.3</ele>
        <time>2020-07-05T07:19:01Z</time>
      </trkpt>
      <trkpt lat="42.733271" lon="0.226553">
        <ele>1717.4</ele>
        <time>2020-07-05T07:19:22Z</time>
      </trkpt>
      <trkpt lat="42.733177" lon="0.226559">
        <ele>1719.5</ele>
        <time>2020-07-05T07:20:15Z</time>
      </trkpt>
      <trkpt lat="42.733108" lon="0.226512">
        <ele>1721.4</ele>
        <time>2020-07-05T07:20:33Z</time>
      </trkpt>
      <trkpt lat="42.733044" lon="0.226424">
        <ele>1725.0</ele>
        <time>2020-07-05T07:20:49Z</time>
      </trkpt>
      <trkpt lat="42.732984" lon="0.226346">
        <ele>1727.8</ele>
        <time>2020-07-05T07:21:11Z</time>
      </trkpt>
      <trkpt lat="42.732901" lon="0.226282">
        <ele>1730.5</ele>
        <time>2020-07-05T07:21:29Z</time>
      </trkpt>
      <trkpt lat="42.732841" lon="0.226175">
        <ele>1732.7</ele>
        <time>2020-07-05T07:21:45Z</time>
      </trkpt>
      <trkpt lat="42.732781" lon="0.226083">
        <ele>1735.4</ele>
        <time>2020-07-05T07:22:04Z</time>
      </trkpt>
      <trkpt lat="42.732718" lon="0.226023">
        <ele>1738.2</ele>
        <time>2020-07-05T07:22:29Z</time>
      </trkpt>
      <trkpt lat="42.732615" lon="0.226048">
        <ele>1746.0</ele>
        <time>2020-07-05T07:22:46Z</time>
      </trkpt>
      <trkpt lat="42.732481" lon="0.226144">
        <ele>1744.2</ele>
        <time>2020-07-05T07:23:34Z</time>
      </trkpt>
      <trkpt lat="42.732342" lon="0.226255">
        <ele>1746.6</ele>
        <time>2020-07-05T07:23:55Z</time>
      </trkpt>
      <trkpt lat="42.732276" lon="0.226246">
        <ele>1748.9</ele>
        <time>2020-07-05T07:24:20Z</time>
      </trkpt>
      <trkpt lat="42.732256" lon="0.226426">
        <ele>1746.6</ele>
        <time>2020-07-05T07:24:50Z</time>
      </trkpt>
      <trkpt lat="42.732252" lon="0.226738">
        <ele>1743.4</ele>
        <time>2020-07-05T07:25:54Z</time>
      </trkpt>
      <trkpt lat="42.732239" lon="0.226993">
        <ele>1747.4</ele>
        <time>2020-07-05T07:26:08Z</time>
      </trkpt>
      <trkpt lat="42.732253" lon="0.227271">
        <ele>1750.4</ele>
        <time>2020-07-05T07:26:29Z</time>
      </trkpt>
      <trkpt lat="42.732085" lon="0.226990">
        <ele>1754.5</ele>
        <time>2020-07-05T07:26:56Z</time>
      </trkpt>
      <trkpt lat="42.732008" lon="0.226742">
        <ele>1753.2</ele>
        <time>2020-07-05T07:27:14Z</time>
      </trkpt>
      <trkpt lat="42.731909" lon="0.226581">
        <ele>1756.7</ele>
        <time>2020-07-05T07:27:36Z</time>
      </trkpt>
      <trkpt lat="42.731835" lon="0.226364">
        <ele>1761.9</ele>
        <time>2020-07-05T07:28:01Z</time>
      </trkpt>
      <trkpt lat="42.731779" lon="0.226243">
        <ele>1764.9</ele>
        <time>2020-07-05T07:29:45Z</time>
      </trkpt>
      <trkpt lat="42.731761" lon="0.226130">
        <ele>1766.7</ele>
        <time>2020-07-05T07:30:55Z</time>
      </trkpt>
      <trkpt lat="42.731726" lon="0.226082">
        <ele>1768.2</ele>
        <time>2020-07-05T07:31:13Z</time>
      </trkpt>
      <trkpt lat="42.731672" lon="0.225972">
        <ele>1770.7</ele>
        <time>2020-07-05T07:31:38Z</time>
      </trkpt>
      <trkpt lat="42.731636" lon="0.225878">
        <ele>1773.5</ele>
        <time>2020-07-05T07:31:57Z</time>
      </trkpt>
      <trkpt lat="42.731581" lon="0.225786">
        <ele>1778.5</ele>
        <time>2020-07-05T07:32:25Z</time>
      </trkpt>
      <trkpt lat="42.731560" lon="0.225699">
        <ele>1781.9</ele>
        <time>2020-07-05T07:32:46Z</time>
      </trkpt>
      <trkpt lat="42.731526" lon="0.225617">
        <ele>1785.9</ele>
        <time>2020-07-05T07:33:19Z</time>
      </trkpt>
      <trkpt lat="42.731493" lon="0.225523">
        <ele>1789.8</ele>
        <time>2020-07-05T07:33:46Z</time>
      </trkpt>
      <trkpt lat="42.731472" lon="0.225443">
        <ele>1792.8</ele>
        <time>2020-07-05T07:34:20Z</time>
      </trkpt>
      <trkpt lat="42.731465" lon="0.225364">
        <ele>1794.8</ele>
        <time>2020-07-05T07:34:52Z</time>
      </trkpt>
      <trkpt lat="42.731435" lon="0.225263">
        <ele>1798.5</ele>
        <time>2020-07-05T07:35:19Z</time>
      </trkpt>
      <trkpt lat="42.731421" lon="0.225189">
        <ele>1800.8</ele>
        <time>2020-07-05T07:35:55Z</time>
      </trkpt>
      <trkpt lat="42.731424" lon="0.225090">
        <ele>1808.3</ele>
        <time>2020-07-05T07:36:09Z</time>
      </trkpt>
      <trkpt lat="42.731377" lon="0.224984">
        <ele>1811.7</ele>
        <time>2020-07-05T07:36:27Z</time>
      </trkpt>
      <trkpt lat="42.731359" lon="0.224880">
        <ele>1813.8</ele>
        <time>2020-07-05T07:36:42Z</time>
      </trkpt>
      <trkpt lat="42.731367" lon="0.224778">
        <ele>1814.8</ele>
        <time>2020-07-05T07:37:42Z</time>
      </trkpt>
      <trkpt lat="42.731346" lon="0.224732">
        <ele>1816.6</ele>
        <time>2020-07-05T07:38:00Z</time>
      </trkpt>
      <trkpt lat="42.731299" lon="0.224878">
        <ele>1818.2</ele>
        <time>2020-07-05T07:38:15Z</time>
      </trkpt>
      <trkpt lat="42.731290" lon="0.225019">
        <ele>1820.1</ele>
        <time>2020-07-05T07:38:29Z</time>
      </trkpt>
      <trkpt lat="42.731257" lon="0.225163">
        <ele>1821.9</ele>
        <time>2020-07-05T07:38:42Z</time>
      </trkpt>
      <trkpt lat="42.731229" lon="0.225289">
        <ele>1823.7</ele>
        <time>2020-07-05T07:38:57Z</time>
      </trkpt>
      <trkpt lat="42.731216" lon="0.225417">
        <ele>1826.5</ele>
        <time>2020-07-05T07:39:11Z</time>
      </trkpt>
      <trkpt lat="42.731197" lon="0.225541">
        <ele>1828.2</ele>
        <time>2020-07-05T07:39:26Z</time>
      </trkpt>
      <trkpt lat="42.731170" lon="0.225667">
        <ele>1830.0</ele>
        <time>2020-07-05T07:39:41Z</time>
      </trkpt>
      <trkpt lat="42.731167" lon="0.225792">
        <ele>1832.4</ele>
        <time>2020-07-05T07:39:57Z</time>
      </trkpt>
      <trkpt lat="42.731144" lon="0.225941">
        <ele>1835.1</ele>
        <time>2020-07-05T07:40:15Z</time>
      </trkpt>
      <trkpt lat="42.731100" lon="0.226041">
        <ele>1837.7</ele>
        <time>2020-07-05T07:40:35Z</time>
      </trkpt>
      <trkpt lat="42.731086" lon="0.225943">
        <ele>1841.3</ele>
        <time>2020-07-05T07:41:03Z</time>
      </trkpt>
      <trkpt lat="42.731020" lon="0.225872">
        <ele>1843.2</ele>
        <time>2020-07-05T07:41:19Z</time>
      </trkpt>
      <trkpt lat="42.730980" lon="0.225801">
        <ele>1846.8</ele>
        <time>2020-07-05T07:41:34Z</time>
      </trkpt>
      <trkpt lat="42.730971" lon="0.225704">
        <ele>1849.0</ele>
        <time>2020-07-05T07:41:47Z</time>
      </trkpt>
      <trkpt lat="42.730949" lon="0.225739">
        <ele>1850.7</ele>
        <time>2020-07-05T07:42:03Z</time>
      </trkpt>
      <trkpt lat="42.730919" lon="0.225893">
        <ele>1853.3</ele>
        <time>2020-07-05T07:42:21Z</time>
      </trkpt>
      <trkpt lat="42.730923" lon="0.226008">
        <ele>1855.1</ele>
        <time>2020-07-05T07:42:37Z</time>
      </trkpt>
      <trkpt lat="42.730925" lon="0.226166">
        <ele>1856.1</ele>
        <time>2020-07-05T07:43:01Z</time>
      </trkpt>
      <trkpt lat="42.730896" lon="0.226293">
        <ele>1860.0</ele>
        <time>2020-07-05T07:43:19Z</time>
      </trkpt>
      <trkpt lat="42.730897" lon="0.226426">
        <ele>1863.5</ele>
        <time>2020-07-05T07:43:40Z</time>
      </trkpt>
      <trkpt lat="42.730932" lon="0.226536">
        <ele>1865.4</ele>
        <time>2020-07-05T07:43:57Z</time>
      </trkpt>
      <trkpt lat="42.730973" lon="0.226673">
        <ele>1868.0</ele>
        <time>2020-07-05T07:44:14Z</time>
      </trkpt>
      <trkpt lat="42.731000" lon="0.226801">
        <ele>1869.2</ele>
        <time>2020-07-05T07:44:30Z</time>
      </trkpt>
      <trkpt lat="42.730929" lon="0.226761">
        <ele>1873.0</ele>
        <time>2020-07-05T07:44:46Z</time>
      </trkpt>
      <trkpt lat="42.730869" lon="0.226678">
        <ele>1875.0</ele>
        <time>2020-07-05T07:45:01Z</time>
      </trkpt>
      <trkpt lat="42.730857" lon="0.226714">
        <ele>1877.2</ele>
        <time>2020-07-05T07:45:19Z</time>
      </trkpt>
      <trkpt lat="42.730915" lon="0.226839">
        <ele>1879.1</ele>
        <time>2020-07-05T07:45:35Z</time>
      </trkpt>
      <trkpt lat="42.730871" lon="0.226874">
        <ele>1881.8</ele>
        <time>2020-07-05T07:45:51Z</time>
      </trkpt>
      <trkpt lat="42.730782" lon="0.226808">
        <ele>1884.4</ele>
        <time>2020-07-05T07:46:07Z</time>
      </trkpt>
      <trkpt lat="42.730714" lon="0.226717">
        <ele>1887.9</ele>
        <time>2020-07-05T07:46:25Z</time>
      </trkpt>
      <trkpt lat="42.730667" lon="0.226611">
        <ele>1890.6</ele>
        <time>2020-07-05T07:46:45Z</time>
      </trkpt>
      <trkpt lat="42.730628" lon="0.226503">
        <ele>1893.5</ele>
        <time>2020-07-05T07:47:02Z</time>
      </trkpt>
      <trkpt lat="42.730601" lon="0.226583">
        <ele>1896.4</ele>
        <time>2020-07-05T07:47:22Z</time>
      </trkpt>
      <trkpt lat="42.730597" lon="0.226716">
        <ele>1899.9</ele>
        <time>2020-07-05T07:47:43Z</time>
      </trkpt>
      <trkpt lat="42.730527" lon="0.226661">
        <ele>1902.3</ele>
        <time>2020-07-05T07:47:59Z</time>
      </trkpt>
      <trkpt lat="42.730471" lon="0.226560">
        <ele>1905.8</ele>
        <time>2020-07-05T07:48:17Z</time>
      </trkpt>
      <trkpt lat="42.730426" lon="0.226450">
        <ele>1907.7</ele>
        <time>2020-07-05T07:48:33Z</time>
      </trkpt>
      <trkpt lat="42.730380" lon="0.226345">
        <ele>1910.4</ele>
        <time>2020-07-05T07:48:49Z</time>
      </trkpt>
      <trkpt lat="42.730334" lon="0.226245">
        <ele>1913.4</ele>
        <time>2020-07-05T07:49:07Z</time>
      </trkpt>
      <trkpt lat="42.730308" lon="0.226199">
        <ele>1915.4</ele>
        <time>2020-07-05T07:49:26Z</time>
      </trkpt>
      <trkpt lat="42.730294" lon="0.226307">
        <ele>1918.8</ele>
        <time>2020-07-05T07:49:45Z</time>
      </trkpt>
      <trkpt lat="42.730290" lon="0.226433">
        <ele>1921.3</ele>
        <time>2020-07-05T07:50:03Z</time>
      </trkpt>
      <trkpt lat="42.730216" lon="0.226412">
        <ele>1923.8</ele>
        <time>2020-07-05T07:50:19Z</time>
      </trkpt>
      <trkpt lat="42.730177" lon="0.226314">
        <ele>1924.7</ele>
        <time>2020-07-05T07:50:32Z</time>
      </trkpt>
      <trkpt lat="42.730137" lon="0.226203">
        <ele>1927.4</ele>
        <time>2020-07-05T07:50:48Z</time>
      </trkpt>
      <trkpt lat="42.730132" lon="0.226072">
        <ele>1929.3</ele>
        <time>2020-07-05T07:51:02Z</time>
      </trkpt>
      <trkpt lat="42.730125" lon="0.225956">
        <ele>1931.3</ele>
        <time>2020-07-05T07:51:17Z</time>
      </trkpt>
      <trkpt lat="42.730044" lon="0.225890">
        <ele>1933.9</ele>
        <time>2020-07-05T07:51:32Z</time>
      </trkpt>
      <trkpt lat="42.729950" lon="0.225819">
        <ele>1935.9</ele>
        <time>2020-07-05T07:51:47Z</time>
      </trkpt>
      <trkpt lat="42.729889" lon="0.225744">
        <ele>1937.8</ele>
        <time>2020-07-05T07:52:00Z</time>
      </trkpt>
      <trkpt lat="42.729860" lon="0.225634">
        <ele>1941.2</ele>
        <time>2020-07-05T07:52:15Z</time>
      </trkpt>
      <trkpt lat="42.729820" lon="0.225546">
        <ele>1943.7</ele>
        <time>2020-07-05T07:53:14Z</time>
      </trkpt>
      <trkpt lat="42.729767" lon="0.225551">
        <ele>1948.1</ele>
        <time>2020-07-05T07:56:13Z</time>
      </trkpt>
      <trkpt lat="42.729737" lon="0.225579">
        <ele>1951.1</ele>
        <time>2020-07-05T07:56:57Z</time>
      </trkpt>
      <trkpt lat="42.729684" lon="0.225590">
        <ele>1954.4</ele>
        <time>2020-07-05T07:57:50Z</time>
      </trkpt>
      <trkpt lat="42.729654" lon="0.225715">
        <ele>1956.3</ele>
        <time>2020-07-05T07:58:08Z</time>
      </trkpt>
      <trkpt lat="42.729576" lon="0.225743">
        <ele>1958.3</ele>
        <time>2020-07-05T07:58:25Z</time>
      </trkpt>
      <trkpt lat="42.729499" lon="0.225659">
        <ele>1961.8</ele>
        <time>2020-07-05T07:58:40Z</time>
      </trkpt>
      <trkpt lat="42.729432" lon="0.225557">
        <ele>1963.7</ele>
        <time>2020-07-05T07:58:55Z</time>
      </trkpt>
      <trkpt lat="42.729373" lon="0.225500">
        <ele>1966.4</ele>
        <time>2020-07-05T07:59:13Z</time>
      </trkpt>
      <trkpt lat="42.729360" lon="0.225606">
        <ele>1969.3</ele>
        <time>2020-07-05T07:59:30Z</time>
      </trkpt>
      <trkpt lat="42.729321" lon="0.225732">
        <ele>1971.9</ele>
        <time>2020-07-05T07:59:47Z</time>
      </trkpt>
      <trkpt lat="42.729260" lon="0.225653">
        <ele>1973.8</ele>
        <time>2020-07-05T08:00:02Z</time>
      </trkpt>
      <trkpt lat="42.729206" lon="0.225582">
        <ele>1976.6</ele>
        <time>2020-07-05T08:00:18Z</time>
      </trkpt>
      <trkpt lat="42.729186" lon="0.225688">
        <ele>1980.3</ele>
        <time>2020-07-05T08:00:38Z</time>
      </trkpt>
      <trkpt lat="42.729203" lon="0.225816">
        <ele>1983.1</ele>
        <time>2020-07-05T08:00:56Z</time>
      </trkpt>
      <trkpt lat="42.729237" lon="0.225955">
        <ele>1985.0</ele>
        <time>2020-07-05T08:01:11Z</time>
      </trkpt>
      <trkpt lat="42.729269" lon="0.226081">
        <ele>1987.7</ele>
        <time>2020-07-05T08:01:29Z</time>
      </trkpt>
      <trkpt lat="42.729295" lon="0.226212">
        <ele>1989.5</ele>
        <time>2020-07-05T08:01:46Z</time>
      </trkpt>
      <trkpt lat="42.729339" lon="0.226325">
        <ele>1992.0</ele>
        <time>2020-07-05T08:02:02Z</time>
      </trkpt>
      <trkpt lat="42.729344" lon="0.226447">
        <ele>1993.7</ele>
        <time>2020-07-05T08:02:22Z</time>
      </trkpt>
      <trkpt lat="42.729346" lon="0.226583">
        <ele>1995.8</ele>
        <time>2020-07-05T08:02:38Z</time>
      </trkpt>
      <trkpt lat="42.729373" lon="0.226716">
        <ele>1998.3</ele>
        <time>2020-07-05T08:02:54Z</time>
      </trkpt>
      <trkpt lat="42.729356" lon="0.226795">
        <ele>1999.5</ele>
        <time>2020-07-05T08:03:47Z</time>
      </trkpt>
      <trkpt lat="42.729328" lon="0.226776">
        <ele>2000.6</ele>
        <time>2020-07-05T08:04:23Z</time>
      </trkpt>
      <trkpt lat="42.729252" lon="0.226702">
        <ele>2002.5</ele>
        <time>2020-07-05T08:04:41Z</time>
      </trkpt>
      <trkpt lat="42.729183" lon="0.226616">
        <ele>2004.6</ele>
        <time>2020-07-05T08:05:08Z</time>
      </trkpt>
      <trkpt lat="42.729111" lon="0.226547">
        <ele>2006.4</ele>
        <time>2020-07-05T08:05:20Z</time>
      </trkpt>
      <trkpt lat="42.729040" lon="0.226472">
        <ele>2008.4</ele>
        <time>2020-07-05T08:05:33Z</time>
      </trkpt>
      <trkpt lat="42.728968" lon="0.226397">
        <ele>2011.1</ele>
        <time>2020-07-05T08:05:46Z</time>
      </trkpt>
      <trkpt lat="42.728904" lon="0.226351">
        <ele>2012.8</ele>
        <time>2020-07-05T08:06:01Z</time>
      </trkpt>
      <trkpt lat="42.728835" lon="0.226275">
        <ele>2016.6</ele>
        <time>2020-07-05T08:06:18Z</time>
      </trkpt>
      <trkpt lat="42.728777" lon="0.226194">
        <ele>2019.1</ele>
        <time>2020-07-05T08:06:32Z</time>
      </trkpt>
      <trkpt lat="42.728711" lon="0.226120">
        <ele>2020.3</ele>
        <time>2020-07-05T08:06:48Z</time>
      </trkpt>
      <trkpt lat="42.728630" lon="0.226058">
        <ele>2022.2</ele>
        <time>2020-07-05T08:07:02Z</time>
      </trkpt>
      <trkpt lat="42.728556" lon="0.225987">
        <ele>2024.0</ele>
        <time>2020-07-05T08:07:16Z</time>
      </trkpt>
      <trkpt lat="42.728478" lon="0.225941">
        <ele>2026.8</ele>
        <time>2020-07-05T08:07:31Z</time>
      </trkpt>
      <trkpt lat="42.728400" lon="0.225868">
        <ele>2028.6</ele>
        <time>2020-07-05T08:07:45Z</time>
      </trkpt>
      <trkpt lat="42.728322" lon="0.225803">
        <ele>2031.4</ele>
        <time>2020-07-05T08:07:59Z</time>
      </trkpt>
      <trkpt lat="42.728236" lon="0.225761">
        <ele>2033.1</ele>
        <time>2020-07-05T08:08:13Z</time>
      </trkpt>
      <trkpt lat="42.728162" lon="0.225707">
        <ele>2036.3</ele>
        <time>2020-07-05T08:08:29Z</time>
      </trkpt>
      <trkpt lat="42.728100" lon="0.225633">
        <ele>2038.1</ele>
        <time>2020-07-05T08:08:43Z</time>
      </trkpt>
      <trkpt lat="42.728011" lon="0.225564">
        <ele>2038.3</ele>
        <time>2020-07-05T08:08:59Z</time>
      </trkpt>
      <trkpt lat="42.727957" lon="0.225466">
        <ele>2041.8</ele>
        <time>2020-07-05T08:09:17Z</time>
      </trkpt>
      <trkpt lat="42.727910" lon="0.225352">
        <ele>2044.4</ele>
        <time>2020-07-05T08:09:36Z</time>
      </trkpt>
      <trkpt lat="42.727873" lon="0.225228">
        <ele>2047.0</ele>
        <time>2020-07-05T08:09:52Z</time>
      </trkpt>
      <trkpt lat="42.727842" lon="0.225111">
        <ele>2050.7</ele>
        <time>2020-07-05T08:10:10Z</time>
      </trkpt>
      <trkpt lat="42.727809" lon="0.224997">
        <ele>2052.6</ele>
        <time>2020-07-05T08:10:33Z</time>
      </trkpt>
      <trkpt lat="42.727784" lon="0.224886">
        <ele>2054.3</ele>
        <time>2020-07-05T08:10:51Z</time>
      </trkpt>
      <trkpt lat="42.727761" lon="0.224778">
        <ele>2056.1</ele>
        <time>2020-07-05T08:11:07Z</time>
      </trkpt>
      <trkpt lat="42.727769" lon="0.224674">
        <ele>2058.6</ele>
        <time>2020-07-05T08:11:29Z</time>
      </trkpt>
      <trkpt lat="42.727832" lon="0.224582">
        <ele>2061.3</ele>
        <time>2020-07-05T08:11:52Z</time>
      </trkpt>
      <trkpt lat="42.727914" lon="0.224516">
        <ele>2063.1</ele>
        <time>2020-07-05T08:12:09Z</time>
      </trkpt>
      <trkpt lat="42.727973" lon="0.224434">
        <ele>2065.1</ele>
        <time>2020-07-05T08:12:24Z</time>
      </trkpt>
      <trkpt lat="42.728008" lon="0.224322">
        <ele>2067.9</ele>
        <time>2020-07-05T08:12:41Z</time>
      </trkpt>
      <trkpt lat="42.728020" lon="0.224204">
        <ele>2070.4</ele>
        <time>2020-07-05T08:12:59Z</time>
      </trkpt>
      <trkpt lat="42.728008" lon="0.224164">
        <ele>2071.3</ele>
        <time>2020-07-05T08:13:26Z</time>
      </trkpt>
      <trkpt lat="42.727996" lon="0.224154">
        <ele>2071.4</ele>
        <time>2020-07-05T08:17:06Z</time>
      </trkpt>
      <trkpt lat="42.727924" lon="0.224152">
        <ele>2074.8</ele>
        <time>2020-07-05T08:17:25Z</time>
      </trkpt>
      <trkpt lat="42.727866" lon="0.224072">
        <ele>2079.1</ele>
        <time>2020-07-05T08:17:55Z</time>
      </trkpt>
      <trkpt lat="42.727769" lon="0.224050">
        <ele>2080.6</ele>
        <time>2020-07-05T08:18:12Z</time>
      </trkpt>
      <trkpt lat="42.727758" lon="0.223976">
        <ele>2083.1</ele>
        <time>2020-07-05T08:18:46Z</time>
      </trkpt>
      <trkpt lat="42.727678" lon="0.224019">
        <ele>2084.1</ele>
        <time>2020-07-05T08:19:16Z</time>
      </trkpt>
      <trkpt lat="42.727590" lon="0.224069">
        <ele>2086.0</ele>
        <time>2020-07-05T08:19:28Z</time>
      </trkpt>
      <trkpt lat="42.727506" lon="0.224118">
        <ele>2088.0</ele>
        <time>2020-07-05T08:19:41Z</time>
      </trkpt>
      <trkpt lat="42.727426" lon="0.224177">
        <ele>2089.9</ele>
        <time>2020-07-05T08:19:54Z</time>
      </trkpt>
      <trkpt lat="42.727337" lon="0.224160">
        <ele>2094.5</ele>
        <time>2020-07-05T08:20:21Z</time>
      </trkpt>
      <trkpt lat="42.727288" lon="0.224089">
        <ele>2098.7</ele>
        <time>2020-07-05T08:20:47Z</time>
      </trkpt>
      <trkpt lat="42.727210" lon="0.224044">
        <ele>2102.6</ele>
        <time>2020-07-05T08:21:11Z</time>
      </trkpt>
      <trkpt lat="42.727143" lon="0.223969">
        <ele>2106.1</ele>
        <time>2020-07-05T08:21:31Z</time>
      </trkpt>
      <trkpt lat="42.727083" lon="0.223869">
        <ele>2109.7</ele>
        <time>2020-07-05T08:21:51Z</time>
      </trkpt>
      <trkpt lat="42.727046" lon="0.223764">
        <ele>2113.2</ele>
        <time>2020-07-05T08:22:10Z</time>
      </trkpt>
      <trkpt lat="42.727034" lon="0.223660">
        <ele>2117.2</ele>
        <time>2020-07-05T08:22:32Z</time>
      </trkpt>
      <trkpt lat="42.727078" lon="0.223561">
        <ele>2120.8</ele>
        <time>2020-07-05T08:22:51Z</time>
      </trkpt>
      <trkpt lat="42.727113" lon="0.223449">
        <ele>2125.5</ele>
        <time>2020-07-05T08:23:16Z</time>
      </trkpt>
      <trkpt lat="42.727169" lon="0.223360">
        <ele>2130.7</ele>
        <time>2020-07-05T08:23:41Z</time>
      </trkpt>
      <trkpt lat="42.727243" lon="0.223281">
        <ele>2134.2</ele>
        <time>2020-07-05T08:24:00Z</time>
      </trkpt>
      <trkpt lat="42.727232" lon="0.223202">
        <ele>2135.8</ele>
        <time>2020-07-05T08:24:16Z</time>
      </trkpt>
      <trkpt lat="42.727168" lon="0.223100">
        <ele>2137.6</ele>
        <time>2020-07-05T08:24:30Z</time>
      </trkpt>
      <trkpt lat="42.727133" lon="0.222992">
        <ele>2139.3</ele>
        <time>2020-07-05T08:24:42Z</time>
      </trkpt>
      <trkpt lat="42.727102" lon="0.222888">
        <ele>2142.7</ele>
        <time>2020-07-05T08:24:58Z</time>
      </trkpt>
      <trkpt lat="42.727056" lon="0.222798">
        <ele>2145.2</ele>
        <time>2020-07-05T08:25:14Z</time>
      </trkpt>
      <trkpt lat="42.726996" lon="0.222724">
        <ele>2148.1</ele>
        <time>2020-07-05T08:25:36Z</time>
      </trkpt>
      <trkpt lat="42.726945" lon="0.222621">
        <ele>2149.9</ele>
        <time>2020-07-05T08:25:50Z</time>
      </trkpt>
      <trkpt lat="42.726920" lon="0.222562">
        <ele>2160.1</ele>
        <time>2020-07-05T08:36:13Z</time>
      </trkpt>
      <trkpt lat="42.726878" lon="0.222476">
        <ele>2157.9</ele>
        <time>2020-07-05T08:36:30Z</time>
      </trkpt>
      <trkpt lat="42.726804" lon="0.222391">
        <ele>2158.1</ele>
        <time>2020-07-05T08:36:44Z</time>
      </trkpt>
      <trkpt lat="42.726744" lon="0.222275">
        <ele>2160.7</ele>
        <time>2020-07-05T08:36:59Z</time>
      </trkpt>
      <trkpt lat="42.726672" lon="0.222157">
        <ele>2164.1</ele>
        <time>2020-07-05T08:37:14Z</time>
      </trkpt>
      <trkpt lat="42.726594" lon="0.222109">
        <ele>2166.0</ele>
        <time>2020-07-05T08:37:27Z</time>
      </trkpt>
      <trkpt lat="42.726513" lon="0.222139">
        <ele>2166.9</ele>
        <time>2020-07-05T08:37:40Z</time>
      </trkpt>
      <trkpt lat="42.726446" lon="0.222119">
        <ele>2167.9</ele>
        <time>2020-07-05T08:37:52Z</time>
      </trkpt>
      <trkpt lat="42.726376" lon="0.222050">
        <ele>2170.1</ele>
        <time>2020-07-05T08:38:05Z</time>
      </trkpt>
      <trkpt lat="42.726306" lon="0.221957">
        <ele>2171.9</ele>
        <time>2020-07-05T08:38:17Z</time>
      </trkpt>
      <trkpt lat="42.726208" lon="0.221881">
        <ele>2174.7</ele>
        <time>2020-07-05T08:38:30Z</time>
      </trkpt>
      <trkpt lat="42.726126" lon="0.221811">
        <ele>2176.7</ele>
        <time>2020-07-05T08:38:43Z</time>
      </trkpt>
      <trkpt lat="42.726041" lon="0.221769">
        <ele>2179.4</ele>
        <time>2020-07-05T08:38:56Z</time>
      </trkpt>
      <trkpt lat="42.725966" lon="0.221693">
        <ele>2181.2</ele>
        <time>2020-07-05T08:39:11Z</time>
      </trkpt>
      <trkpt lat="42.725915" lon="0.221579">
        <ele>2183.9</ele>
        <time>2020-07-05T08:39:27Z</time>
      </trkpt>
      <trkpt lat="42.725849" lon="0.221486">
        <ele>2185.9</ele>
        <time>2020-07-05T08:39:43Z</time>
      </trkpt>
      <trkpt lat="42.725777" lon="0.221397">
        <ele>2188.7</ele>
        <time>2020-07-05T08:39:59Z</time>
      </trkpt>
      <trkpt lat="42.725711" lon="0.221301">
        <ele>2191.7</ele>
        <time>2020-07-05T08:40:14Z</time>
      </trkpt>
      <trkpt lat="42.725623" lon="0.221209">
        <ele>2193.6</ele>
        <time>2020-07-05T08:40:28Z</time>
      </trkpt>
      <trkpt lat="42.725549" lon="0.221145">
        <ele>2196.4</ele>
        <time>2020-07-05T08:40:44Z</time>
      </trkpt>
      <trkpt lat="42.725466" lon="0.221098">
        <ele>2199.3</ele>
        <time>2020-07-05T08:41:03Z</time>
      </trkpt>
      <trkpt lat="42.725384" lon="0.221078">
        <ele>2203.8</ele>
        <time>2020-07-05T08:41:23Z</time>
      </trkpt>
      <trkpt lat="42.725292" lon="0.221022">
        <ele>2205.7</ele>
        <time>2020-07-05T08:41:39Z</time>
      </trkpt>
      <trkpt lat="42.725187" lon="0.220968">
        <ele>2208.6</ele>
        <time>2020-07-05T08:41:56Z</time>
      </trkpt>
      <trkpt lat="42.725090" lon="0.220927">
        <ele>2210.7</ele>
        <time>2020-07-05T08:42:11Z</time>
      </trkpt>
      <trkpt lat="42.724990" lon="0.220875">
        <ele>2214.1</ele>
        <time>2020-07-05T08:42:30Z</time>
      </trkpt>
      <trkpt lat="42.724905" lon="0.220841">
        <ele>2218.1</ele>
        <time>2020-07-05T08:42:49Z</time>
      </trkpt>
      <trkpt lat="42.724799" lon="0.220835">
        <ele>2221.7</ele>
        <time>2020-07-05T08:43:06Z</time>
      </trkpt>
      <trkpt lat="42.724705" lon="0.220866">
        <ele>2224.5</ele>
        <time>2020-07-05T08:43:23Z</time>
      </trkpt>
      <trkpt lat="42.724624" lon="0.220859">
        <ele>2226.4</ele>
        <time>2020-07-05T08:43:40Z</time>
      </trkpt>
      <trkpt lat="42.724529" lon="0.220827">
        <ele>2229.4</ele>
        <time>2020-07-05T08:43:58Z</time>
      </trkpt>
      <trkpt lat="42.724423" lon="0.220779">
        <ele>2231.3</ele>
        <time>2020-07-05T08:44:15Z</time>
      </trkpt>
      <trkpt lat="42.724307" lon="0.220740">
        <ele>2236.0</ele>
        <time>2020-07-05T08:44:33Z</time>
      </trkpt>
      <trkpt lat="42.724217" lon="0.220691">
        <ele>2238.7</ele>
        <time>2020-07-05T08:44:50Z</time>
      </trkpt>
      <trkpt lat="42.724154" lon="0.220605">
        <ele>2240.6</ele>
        <time>2020-07-05T08:45:10Z</time>
      </trkpt>
      <trkpt lat="42.724071" lon="0.220540">
        <ele>2244.4</ele>
        <time>2020-07-05T08:45:31Z</time>
      </trkpt>
      <trkpt lat="42.723997" lon="0.220436">
        <ele>2247.5</ele>
        <time>2020-07-05T08:45:52Z</time>
      </trkpt>
      <trkpt lat="42.723965" lon="0.220305">
        <ele>2251.0</ele>
        <time>2020-07-05T08:46:13Z</time>
      </trkpt>
      <trkpt lat="42.723940" lon="0.220173">
        <ele>2256.4</ele>
        <time>2020-07-05T08:46:35Z</time>
      </trkpt>
      <trkpt lat="42.723875" lon="0.220126">
        <ele>2261.1</ele>
        <time>2020-07-05T08:47:15Z</time>
      </trkpt>
      <trkpt lat="42.723844" lon="0.220012">
        <ele>2264.6</ele>
        <time>2020-07-05T08:47:45Z</time>
      </trkpt>
      <trkpt lat="42.723785" lon="0.219960">
        <ele>2268.9</ele>
        <time>2020-07-05T08:48:18Z</time>
      </trkpt>
      <trkpt lat="42.723737" lon="0.219915">
        <ele>2272.8</ele>
        <time>2020-07-05T08:49:12Z</time>
      </trkpt>
      <trkpt lat="42.723697" lon="0.219812">
        <ele>2276.1</ele>
        <time>2020-07-05T08:49:37Z</time>
      </trkpt>
      <trkpt lat="42.723647" lon="0.219742">
        <ele>2279.7</ele>
        <time>2020-07-05T08:50:05Z</time>
      </trkpt>
      <trkpt lat="42.723579" lon="0.219691">
        <ele>2283.6</ele>
        <time>2020-07-05T08:50:41Z</time>
      </trkpt>
      <trkpt lat="42.723508" lon="0.219586">
        <ele>2285.3</ele>
        <time>2020-07-05T08:51:02Z</time>
      </trkpt>
      <trkpt lat="42.723452" lon="0.219508">
        <ele>2288.8</ele>
        <time>2020-07-05T08:51:20Z</time>
      </trkpt>
      <trkpt lat="42.723411" lon="0.219420">
        <ele>2293.1</ele>
        <time>2020-07-05T08:51:40Z</time>
      </trkpt>
      <trkpt lat="42.723358" lon="0.219347">
        <ele>2296.2</ele>
        <time>2020-07-05T08:52:04Z</time>
      </trkpt>
      <trkpt lat="42.723321" lon="0.219252">
        <ele>2300.5</ele>
        <time>2020-07-05T08:52:29Z</time>
      </trkpt>
      <trkpt lat="42.723320" lon="0.219128">
        <ele>2305.9</ele>
        <time>2020-07-05T08:52:55Z</time>
      </trkpt>
      <trkpt lat="42.723290" lon="0.219029">
        <ele>2309.7</ele>
        <time>2020-07-05T08:53:20Z</time>
      </trkpt>
      <trkpt lat="42.723231" lon="0.218933">
        <ele>2313.6</ele>
        <time>2020-07-05T08:53:44Z</time>
      </trkpt>
      <trkpt lat="42.723198" lon="0.218819">
        <ele>2316.9</ele>
        <time>2020-07-05T08:54:06Z</time>
      </trkpt>
      <trkpt lat="42.723145" lon="0.218707">
        <ele>2321.7</ele>
        <time>2020-07-05T08:54:30Z</time>
      </trkpt>
      <trkpt lat="42.723117" lon="0.218589">
        <ele>2324.9</ele>
        <time>2020-07-05T08:54:53Z</time>
      </trkpt>
      <trkpt lat="42.723100" lon="0.218472">
        <ele>2329.0</ele>
        <time>2020-07-05T08:55:16Z</time>
      </trkpt>
      <trkpt lat="42.723139" lon="0.218379">
        <ele>2330.8</ele>
        <time>2020-07-05T08:55:34Z</time>
      </trkpt>
      <trkpt lat="42.723223" lon="0.218284">
        <ele>2331.7</ele>
        <time>2020-07-05T08:55:47Z</time>
      </trkpt>
      <trkpt lat="42.723300" lon="0.218195">
        <ele>2332.7</ele>
        <time>2020-07-05T08:55:59Z</time>
      </trkpt>
      <trkpt lat="42.723384" lon="0.218152">
        <ele>2333.6</ele>
        <time>2020-07-05T08:56:20Z</time>
      </trkpt>
      <trkpt lat="42.723460" lon="0.218062">
        <ele>2336.0</ele>
        <time>2020-07-05T08:56:35Z</time>
      </trkpt>
      <trkpt lat="42.723562" lon="0.218016">
        <ele>2335.8</ele>
        <time>2020-07-05T08:57:09Z</time>
      </trkpt>
      <trkpt lat="42.723660" lon="0.218005">
        <ele>2335.8</ele>
        <time>2020-07-05T08:57:21Z</time>
      </trkpt>
      <trkpt lat="42.723764" lon="0.217996">
        <ele>2338.5</ele>
        <time>2020-07-05T08:57:34Z</time>
      </trkpt>
      <trkpt lat="42.723860" lon="0.217976">
        <ele>2339.4</ele>
        <time>2020-07-05T08:57:46Z</time>
      </trkpt>
      <trkpt lat="42.723959" lon="0.217946">
        <ele>2339.3</ele>
        <time>2020-07-05T08:57:57Z</time>
      </trkpt>
      <trkpt lat="42.724057" lon="0.217917">
        <ele>2340.0</ele>
        <time>2020-07-05T08:58:08Z</time>
      </trkpt>
      <trkpt lat="42.724174" lon="0.217945">
        <ele>2340.8</ele>
        <time>2020-07-05T08:58:21Z</time>
      </trkpt>
      <trkpt lat="42.724248" lon="0.217894">
        <ele>2342.6</ele>
        <time>2020-07-05T08:58:34Z</time>
      </trkpt>
      <trkpt lat="42.724273" lon="0.217782">
        <ele>2343.4</ele>
        <time>2020-07-05T08:58:53Z</time>
      </trkpt>
      <trkpt lat="42.724282" lon="0.217649">
        <ele>2343.4</ele>
        <time>2020-07-05T08:59:06Z</time>
      </trkpt>
      <trkpt lat="42.724310" lon="0.217528">
        <ele>2345.0</ele>
        <time>2020-07-05T08:59:19Z</time>
      </trkpt>
      <trkpt lat="42.724293" lon="0.217405">
        <ele>2346.7</ele>
        <time>2020-07-05T08:59:33Z</time>
      </trkpt>
      <trkpt lat="42.724266" lon="0.217287">
        <ele>2347.5</ele>
        <time>2020-07-05T08:59:46Z</time>
      </trkpt>
      <trkpt lat="42.724199" lon="0.217215">
        <ele>2350.7</ele>
        <time>2020-07-05T09:00:04Z</time>
      </trkpt>
      <trkpt lat="42.724177" lon="0.217114">
        <ele>2354.2</ele>
        <time>2020-07-05T09:00:21Z</time>
      </trkpt>
      <trkpt lat="42.724104" lon="0.217040">
        <ele>2356.7</ele>
        <time>2020-07-05T09:00:37Z</time>
      </trkpt>
      <trkpt lat="42.724033" lon="0.216955">
        <ele>2359.1</ele>
        <time>2020-07-05T09:00:52Z</time>
      </trkpt>
      <trkpt lat="42.723952" lon="0.216894">
        <ele>2361.7</ele>
        <time>2020-07-05T09:01:11Z</time>
      </trkpt>
      <trkpt lat="42.723868" lon="0.216875">
        <ele>2364.3</ele>
        <time>2020-07-05T09:01:30Z</time>
      </trkpt>
      <trkpt lat="42.723783" lon="0.216815">
        <ele>2367.8</ele>
        <time>2020-07-05T09:01:47Z</time>
      </trkpt>
      <trkpt lat="42.723701" lon="0.216769">
        <ele>2371.3</ele>
        <time>2020-07-05T09:02:03Z</time>
      </trkpt>
      <trkpt lat="42.723622" lon="0.216701">
        <ele>2373.7</ele>
        <time>2020-07-05T09:02:21Z</time>
      </trkpt>
      <trkpt lat="42.723545" lon="0.216605">
        <ele>2377.9</ele>
        <time>2020-07-05T09:02:42Z</time>
      </trkpt>
      <trkpt lat="42.723484" lon="0.216491">
        <ele>2382.3</ele>
        <time>2020-07-05T09:03:05Z</time>
      </trkpt>
      <trkpt lat="42.723429" lon="0.216409">
        <ele>2386.7</ele>
        <time>2020-07-05T09:04:07Z</time>
      </trkpt>
      <trkpt lat="42.723390" lon="0.216466">
        <ele>2387.2</ele>
        <time>2020-07-05T09:09:25Z</time>
      </trkpt>
      <trkpt lat="42.723346" lon="0.216560">
        <ele>2387.3</ele>
        <time>2020-07-05T09:09:38Z</time>
      </trkpt>
      <trkpt lat="42.723288" lon="0.216655">
        <ele>2389.8</ele>
        <time>2020-07-05T09:09:55Z</time>
      </trkpt>
      <trkpt lat="42.723225" lon="0.216731">
        <ele>2390.5</ele>
        <time>2020-07-05T09:10:11Z</time>
      </trkpt>
      <trkpt lat="42.723153" lon="0.216797">
        <ele>2390.5</ele>
        <time>2020-07-05T09:10:26Z</time>
      </trkpt>
      <trkpt lat="42.723064" lon="0.216826">
        <ele>2392.3</ele>
        <time>2020-07-05T09:10:39Z</time>
      </trkpt>
      <trkpt lat="42.722967" lon="0.216860">
        <ele>2394.9</ele>
        <time>2020-07-05T09:10:54Z</time>
      </trkpt>
      <trkpt lat="42.722891" lon="0.216929">
        <ele>2397.5</ele>
        <time>2020-07-05T09:11:09Z</time>
      </trkpt>
      <trkpt lat="42.722806" lon="0.216989">
        <ele>2399.9</ele>
        <time>2020-07-05T09:11:24Z</time>
      </trkpt>
      <trkpt lat="42.722720" lon="0.217050">
        <ele>2402.5</ele>
        <time>2020-07-05T09:11:37Z</time>
      </trkpt>
      <trkpt lat="42.722628" lon="0.217099">
        <ele>2404.4</ele>
        <time>2020-07-05T09:11:51Z</time>
      </trkpt>
      <trkpt lat="42.722543" lon="0.217157">
        <ele>2406.9</ele>
        <time>2020-07-05T09:12:03Z</time>
      </trkpt>
      <trkpt lat="42.722471" lon="0.217215">
        <ele>2407.8</ele>
        <time>2020-07-05T09:12:16Z</time>
      </trkpt>
      <trkpt lat="42.722417" lon="0.217310">
        <ele>2409.6</ele>
        <time>2020-07-05T09:12:28Z</time>
      </trkpt>
      <trkpt lat="42.722322" lon="0.217378">
        <ele>2411.4</ele>
        <time>2020-07-05T09:12:41Z</time>
      </trkpt>
      <trkpt lat="42.722254" lon="0.217457">
        <ele>2413.3</ele>
        <time>2020-07-05T09:12:54Z</time>
      </trkpt>
      <trkpt lat="42.722184" lon="0.217537">
        <ele>2416.2</ele>
        <time>2020-07-05T09:13:09Z</time>
      </trkpt>
      <trkpt lat="42.722092" lon="0.217614">
        <ele>2418.8</ele>
        <time>2020-07-05T09:13:24Z</time>
      </trkpt>
      <trkpt lat="42.721990" lon="0.217622">
        <ele>2421.3</ele>
        <time>2020-07-05T09:13:41Z</time>
      </trkpt>
      <trkpt lat="42.721890" lon="0.217635">
        <ele>2425.7</ele>
        <time>2020-07-05T09:14:01Z</time>
      </trkpt>
      <trkpt lat="42.721860" lon="0.217564">
        <ele>2429.8</ele>
        <time>2020-07-05T09:14:29Z</time>
      </trkpt>
      <trkpt lat="42.721851" lon="0.217462">
        <ele>2434.9</ele>
        <time>2020-07-05T09:14:49Z</time>
      </trkpt>
      <trkpt lat="42.721764" lon="0.217466">
        <ele>2438.7</ele>
        <time>2020-07-05T09:15:06Z</time>
      </trkpt>
      <trkpt lat="42.721688" lon="0.217525">
        <ele>2441.5</ele>
        <time>2020-07-05T09:15:21Z</time>
      </trkpt>
      <trkpt lat="42.721610" lon="0.217588">
        <ele>2444.0</ele>
        <time>2020-07-05T09:15:39Z</time>
      </trkpt>
      <trkpt lat="42.721532" lon="0.217564">
        <ele>2447.7</ele>
        <time>2020-07-05T09:16:09Z</time>
      </trkpt>
      <trkpt lat="42.721487" lon="0.217662">
        <ele>2447.8</ele>
        <time>2020-07-05T09:16:30Z</time>
      </trkpt>
      <trkpt lat="42.721438" lon="0.217768">
        <ele>2447.8</ele>
        <time>2020-07-05T09:16:41Z</time>
      </trkpt>
      <trkpt lat="42.721376" lon="0.217869">
        <ele>2447.8</ele>
        <time>2020-07-05T09:16:53Z</time>
      </trkpt>
      <trkpt lat="42.721292" lon="0.217903">
        <ele>2447.9</ele>
        <time>2020-07-05T09:17:31Z</time>
      </trkpt>
      <trkpt lat="42.721265" lon="0.218006">
        <ele>2445.1</ele>
        <time>2020-07-05T09:29:02Z</time>
      </trkpt>
      <trkpt lat="42.721206" lon="0.218103">
        <ele>2448.5</ele>
        <time>2020-07-05T09:29:13Z</time>
      </trkpt>
      <trkpt lat="42.721148" lon="0.218192">
        <ele>2449.4</ele>
        <time>2020-07-05T09:29:25Z</time>
      </trkpt>
      <trkpt lat="42.721085" lon="0.218291">
        <ele>2450.3</ele>
        <time>2020-07-05T09:29:37Z</time>
      </trkpt>
      <trkpt lat="42.721041" lon="0.218407">
        <ele>2451.3</ele>
        <time>2020-07-05T09:29:49Z</time>
      </trkpt>
      <trkpt lat="42.720983" lon="0.218519">
        <ele>2452.1</ele>
        <time>2020-07-05T09:30:01Z</time>
      </trkpt>
      <trkpt lat="42.720918" lon="0.218612">
        <ele>2452.1</ele>
        <time>2020-07-05T09:30:12Z</time>
      </trkpt>
      <trkpt lat="42.720851" lon="0.218700">
        <ele>2452.9</ele>
        <time>2020-07-05T09:30:23Z</time>
      </trkpt>
      <trkpt lat="42.720795" lon="0.218803">
        <ele>2453.8</ele>
        <time>2020-07-05T09:30:34Z</time>
      </trkpt>
      <trkpt lat="42.720801" lon="0.218926">
        <ele>2453.8</ele>
        <time>2020-07-05T09:30:46Z</time>
      </trkpt>
      <trkpt lat="42.720822" lon="0.219046">
        <ele>2457.5</ele>
        <time>2020-07-05T09:30:59Z</time>
      </trkpt>
      <trkpt lat="42.720797" lon="0.219173">
        <ele>2457.5</ele>
        <time>2020-07-05T09:31:10Z</time>
      </trkpt>
      <trkpt lat="42.720745" lon="0.219277">
        <ele>2457.4</ele>
        <time>2020-07-05T09:31:20Z</time>
      </trkpt>
      <trkpt lat="42.720713" lon="0.219392">
        <ele>2458.4</ele>
        <time>2020-07-05T09:31:31Z</time>
      </trkpt>
      <trkpt lat="42.720665" lon="0.219504">
        <ele>2459.3</ele>
        <time>2020-07-05T09:31:42Z</time>
      </trkpt>
      <trkpt lat="42.720597" lon="0.219598">
        <ele>2460.9</ele>
        <time>2020-07-05T09:31:54Z</time>
      </trkpt>
      <trkpt lat="42.720535" lon="0.219687">
        <ele>2462.5</ele>
        <time>2020-07-05T09:32:06Z</time>
      </trkpt>
      <trkpt lat="42.720463" lon="0.219759">
        <ele>2463.3</ele>
        <time>2020-07-05T09:32:18Z</time>
      </trkpt>
      <trkpt lat="42.720430" lon="0.219843">
        <ele>2465.5</ele>
        <time>2020-07-05T09:32:32Z</time>
      </trkpt>
      <trkpt lat="42.720375" lon="0.219930">
        <ele>2469.3</ele>
        <time>2020-07-05T09:32:50Z</time>
      </trkpt>
      <trkpt lat="42.720315" lon="0.220022">
        <ele>2471.9</ele>
        <time>2020-07-05T09:33:05Z</time>
      </trkpt>
      <trkpt lat="42.720268" lon="0.220125">
        <ele>2475.4</ele>
        <time>2020-07-05T09:33:25Z</time>
      </trkpt>
      <trkpt lat="42.720208" lon="0.220189">
        <ele>2477.8</ele>
        <time>2020-07-05T09:33:43Z</time>
      </trkpt>
      <trkpt lat="42.720155" lon="0.220288">
        <ele>2483.0</ele>
        <time>2020-07-05T09:34:04Z</time>
      </trkpt>
      <trkpt lat="42.720090" lon="0.220387">
        <ele>2484.8</ele>
        <time>2020-07-05T09:34:23Z</time>
      </trkpt>
      <trkpt lat="42.720029" lon="0.220490">
        <ele>2488.4</ele>
        <time>2020-07-05T09:34:41Z</time>
      </trkpt>
      <trkpt lat="42.720011" lon="0.220576">
        <ele>2492.8</ele>
        <time>2020-07-05T09:35:07Z</time>
      </trkpt>
      <trkpt lat="42.719998" lon="0.220674">
        <ele>2498.2</ele>
        <time>2020-07-05T09:35:43Z</time>
      </trkpt>
      <trkpt lat="42.719935" lon="0.220695">
        <ele>2499.8</ele>
        <time>2020-07-05T09:36:17Z</time>
      </trkpt>
      <trkpt lat="42.719885" lon="0.220781">
        <ele>2502.5</ele>
        <time>2020-07-05T09:36:34Z</time>
      </trkpt>
      <trkpt lat="42.719854" lon="0.220899">
        <ele>2505.9</ele>
        <time>2020-07-05T09:36:52Z</time>
      </trkpt>
      <trkpt lat="42.719811" lon="0.220958">
        <ele>2506.6</ele>
        <time>2020-07-05T09:37:10Z</time>
      </trkpt>
      <trkpt lat="42.719746" lon="0.221008">
        <ele>2500.1</ele>
        <time>2020-07-05T09:37:49Z</time>
      </trkpt>
      <trkpt lat="42.719709" lon="0.221084">
        <ele>2497.3</ele>
        <time>2020-07-05T09:39:03Z</time>
      </trkpt>
      <trkpt lat="42.719671" lon="0.221198">
        <ele>2495.2</ele>
        <time>2020-07-05T09:39:25Z</time>
      </trkpt>
      <trkpt lat="42.719642" lon="0.221331">
        <ele>2495.3</ele>
        <time>2020-07-05T09:39:56Z</time>
      </trkpt>
      <trkpt lat="42.719603" lon="0.221436">
        <ele>2494.4</ele>
        <time>2020-07-05T09:40:08Z</time>
      </trkpt>
      <trkpt lat="42.719576" lon="0.221542">
        <ele>2494.4</ele>
        <time>2020-07-05T09:40:21Z</time>
      </trkpt>
      <trkpt lat="42.719514" lon="0.221637">
        <ele>2494.4</ele>
        <time>2020-07-05T09:40:37Z</time>
      </trkpt>
      <trkpt lat="42.719472" lon="0.221722">
        <ele>2494.5</ele>
        <time>2020-07-05T09:40:57Z</time>
      </trkpt>
      <trkpt lat="42.719436" lon="0.221838">
        <ele>2500.1</ele>
        <time>2020-07-05T09:41:32Z</time>
      </trkpt>
      <trkpt lat="42.719390" lon="0.221958">
        <ele>2503.5</ele>
        <time>2020-07-05T09:42:37Z</time>
      </trkpt>
      <trkpt lat="42.719370" lon="0.222086">
        <ele>2506.2</ele>
        <time>2020-07-05T09:43:08Z</time>
      </trkpt>
      <trkpt lat="42.719328" lon="0.222169">
        <ele>2506.3</ele>
        <time>2020-07-05T09:44:00Z</time>
      </trkpt>
      <trkpt lat="42.719289" lon="0.222289">
        <ele>2507.1</ele>
        <time>2020-07-05T09:44:15Z</time>
      </trkpt>
      <trkpt lat="42.719270" lon="0.222420">
        <ele>2507.1</ele>
        <time>2020-07-05T09:44:25Z</time>
      </trkpt>
      <trkpt lat="42.719247" lon="0.222537">
        <ele>2507.1</ele>
        <time>2020-07-05T09:44:36Z</time>
      </trkpt>
      <trkpt lat="42.719220" lon="0.222654">
        <ele>2504.8</ele>
        <time>2020-07-05T09:44:46Z</time>
      </trkpt>
      <trkpt lat="42.719182" lon="0.222764">
        <ele>2504.8</ele>
        <time>2020-07-05T09:44:55Z</time>
      </trkpt>
      <trkpt lat="42.719142" lon="0.222872">
        <ele>2504.8</ele>
        <time>2020-07-05T09:45:04Z</time>
      </trkpt>
      <trkpt lat="42.719098" lon="0.222981">
        <ele>2504.9</ele>
        <time>2020-07-05T09:45:14Z</time>
      </trkpt>
      <trkpt lat="42.719026" lon="0.223068">
        <ele>2504.9</ele>
        <time>2020-07-05T09:45:24Z</time>
      </trkpt>
      <trkpt lat="42.718948" lon="0.223133">
        <ele>2507.3</ele>
        <time>2020-07-05T09:45:34Z</time>
      </trkpt>
      <trkpt lat="42.718880" lon="0.223209">
        <ele>2509.1</ele>
        <time>2020-07-05T09:45:45Z</time>
      </trkpt>
      <trkpt lat="42.718830" lon="0.223298">
        <ele>2511.9</ele>
        <time>2020-07-05T09:45:59Z</time>
      </trkpt>
      <trkpt lat="42.718753" lon="0.223351">
        <ele>2515.3</ele>
        <time>2020-07-05T09:46:15Z</time>
      </trkpt>
      <trkpt lat="42.718707" lon="0.223450">
        <ele>2517.7</ele>
        <time>2020-07-05T09:46:32Z</time>
      </trkpt>
      <trkpt lat="42.718635" lon="0.223521">
        <ele>2520.5</ele>
        <time>2020-07-05T09:46:49Z</time>
      </trkpt>
      <trkpt lat="42.718601" lon="0.223625">
        <ele>2523.2</ele>
        <time>2020-07-05T09:47:08Z</time>
      </trkpt>
      <trkpt lat="42.718551" lon="0.223723">
        <ele>2525.7</ele>
        <time>2020-07-05T09:47:27Z</time>
      </trkpt>
      <trkpt lat="42.718485" lon="0.223807">
        <ele>2528.3</ele>
        <time>2020-07-05T09:47:49Z</time>
      </trkpt>
      <trkpt lat="42.718423" lon="0.223899">
        <ele>2529.9</ele>
        <time>2020-07-05T09:48:05Z</time>
      </trkpt>
      <trkpt lat="42.718360" lon="0.223988">
        <ele>2532.8</ele>
        <time>2020-07-05T09:48:22Z</time>
      </trkpt>
      <trkpt lat="42.718329" lon="0.224094">
        <ele>2537.3</ele>
        <time>2020-07-05T09:48:45Z</time>
      </trkpt>
      <trkpt lat="42.718284" lon="0.224197">
        <ele>2541.7</ele>
        <time>2020-07-05T09:49:09Z</time>
      </trkpt>
      <trkpt lat="42.718260" lon="0.224279">
        <ele>2545.6</ele>
        <time>2020-07-05T09:49:35Z</time>
      </trkpt>
      <trkpt lat="42.718234" lon="0.224378">
        <ele>2552.3</ele>
        <time>2020-07-05T09:50:02Z</time>
      </trkpt>
      <trkpt lat="42.718174" lon="0.224481">
        <ele>2555.4</ele>
        <time>2020-07-05T09:50:24Z</time>
      </trkpt>
      <trkpt lat="42.718098" lon="0.224538">
        <ele>2558.7</ele>
        <time>2020-07-05T09:50:45Z</time>
      </trkpt>
      <trkpt lat="42.718082" lon="0.224650">
        <ele>2561.7</ele>
        <time>2020-07-05T09:51:09Z</time>
      </trkpt>
      <trkpt lat="42.718032" lon="0.224729">
        <ele>2565.2</ele>
        <time>2020-07-05T09:51:32Z</time>
      </trkpt>
      <trkpt lat="42.717964" lon="0.224791">
        <ele>2569.7</ele>
        <time>2020-07-05T09:51:54Z</time>
      </trkpt>
      <trkpt lat="42.717896" lon="0.224868">
        <ele>2571.5</ele>
        <time>2020-07-05T09:52:15Z</time>
      </trkpt>
      <trkpt lat="42.717821" lon="0.224944">
        <ele>2575.8</ele>
        <time>2020-07-05T09:52:38Z</time>
      </trkpt>
      <trkpt lat="42.717745" lon="0.225011">
        <ele>2578.4</ele>
        <time>2020-07-05T09:53:00Z</time>
      </trkpt>
      <trkpt lat="42.717678" lon="0.225097">
        <ele>2583.1</ele>
        <time>2020-07-05T09:53:23Z</time>
      </trkpt>
      <trkpt lat="42.717634" lon="0.225191">
        <ele>2586.7</ele>
        <time>2020-07-05T09:53:46Z</time>
      </trkpt>
      <trkpt lat="42.717566" lon="0.225269">
        <ele>2591.1</ele>
        <time>2020-07-05T09:54:09Z</time>
      </trkpt>
      <trkpt lat="42.717528" lon="0.225368">
        <ele>2594.3</ele>
        <time>2020-07-05T09:54:34Z</time>
      </trkpt>
      <trkpt lat="42.717451" lon="0.225446">
        <ele>2598.5</ele>
        <time>2020-07-05T09:54:55Z</time>
      </trkpt>
      <trkpt lat="42.717398" lon="0.225536">
        <ele>2602.6</ele>
        <time>2020-07-05T09:55:18Z</time>
      </trkpt>
      <trkpt lat="42.717338" lon="0.225630">
        <ele>2606.4</ele>
        <time>2020-07-05T09:55:43Z</time>
      </trkpt>
      <trkpt lat="42.717269" lon="0.225720">
        <ele>2609.9</ele>
        <time>2020-07-05T09:56:06Z</time>
      </trkpt>
      <trkpt lat="42.717199" lon="0.225799">
        <ele>2613.4</ele>
        <time>2020-07-05T09:56:29Z</time>
      </trkpt>
      <trkpt lat="42.717135" lon="0.225888">
        <ele>2618.1</ele>
        <time>2020-07-05T09:56:53Z</time>
      </trkpt>
      <trkpt lat="42.717072" lon="0.225981">
        <ele>2621.6</ele>
        <time>2020-07-05T09:57:17Z</time>
      </trkpt>
      <trkpt lat="42.717018" lon="0.226075">
        <ele>2625.8</ele>
        <time>2020-07-05T09:57:40Z</time>
      </trkpt>
      <trkpt lat="42.716982" lon="0.226183">
        <ele>2629.6</ele>
        <time>2020-07-05T09:58:03Z</time>
      </trkpt>
      <trkpt lat="42.716928" lon="0.226277">
        <ele>2632.2</ele>
        <time>2020-07-05T09:58:27Z</time>
      </trkpt>
      <trkpt lat="42.716853" lon="0.226349">
        <ele>2633.8</ele>
        <time>2020-07-05T09:58:43Z</time>
      </trkpt>
      <trkpt lat="42.716794" lon="0.226437">
        <ele>2637.4</ele>
        <time>2020-07-05T09:59:01Z</time>
      </trkpt>
      <trkpt lat="42.716749" lon="0.226538">
        <ele>2640.1</ele>
        <time>2020-07-05T09:59:22Z</time>
      </trkpt>
      <trkpt lat="42.716713" lon="0.226651">
        <ele>2642.6</ele>
        <time>2020-07-05T09:59:43Z</time>
      </trkpt>
      <trkpt lat="42.716775" lon="0.226699">
        <ele>2646.3</ele>
        <time>2020-07-05T10:00:04Z</time>
      </trkpt>
      <trkpt lat="42.716828" lon="0.226770">
        <ele>2650.0</ele>
        <time>2020-07-05T10:00:33Z</time>
      </trkpt>
      <trkpt lat="42.716881" lon="0.226877">
        <ele>2654.7</ele>
        <time>2020-07-05T10:00:59Z</time>
      </trkpt>
      <trkpt lat="42.716954" lon="0.226920">
        <ele>2659.2</ele>
        <time>2020-07-05T10:01:19Z</time>
      </trkpt>
      <trkpt lat="42.717038" lon="0.226963">
        <ele>2660.9</ele>
        <time>2020-07-05T10:01:34Z</time>
      </trkpt>
      <trkpt lat="42.717134" lon="0.226979">
        <ele>2662.6</ele>
        <time>2020-07-05T10:01:49Z</time>
      </trkpt>
      <trkpt lat="42.717224" lon="0.227004">
        <ele>2665.5</ele>
        <time>2020-07-05T10:02:05Z</time>
      </trkpt>
      <trkpt lat="42.717321" lon="0.227033">
        <ele>2667.3</ele>
        <time>2020-07-05T10:02:21Z</time>
      </trkpt>
      <trkpt lat="42.717370" lon="0.227050">
        <ele>2672.3</ele>
        <time>2020-07-05T10:13:43Z</time>
      </trkpt>
      <trkpt lat="42.717381" lon="0.227065">
        <ele>2678.7</ele>
        <time>2020-07-05T10:53:27Z</time>
      </trkpt>
      <trkpt lat="42.717407" lon="0.227062">
        <ele>2678.6</ele>
        <time>2020-07-05T10:54:21Z</time>
      </trkpt>
      <trkpt lat="42.717500" lon="0.227068">
        <ele>2676.0</ele>
        <time>2020-07-05T10:59:35Z</time>
      </trkpt>
      <trkpt lat="42.717581" lon="0.227090">
        <ele>2672.8</ele>
        <time>2020-07-05T10:59:55Z</time>
      </trkpt>
      <trkpt lat="42.717662" lon="0.227069">
        <ele>2667.3</ele>
        <time>2020-07-05T11:00:12Z</time>
      </trkpt>
      <trkpt lat="42.717746" lon="0.227054">
        <ele>2663.1</ele>
        <time>2020-07-05T11:00:32Z</time>
      </trkpt>
      <trkpt lat="42.717826" lon="0.227111">
        <ele>2660.4</ele>
        <time>2020-07-05T11:00:44Z</time>
      </trkpt>
      <trkpt lat="42.717906" lon="0.227168">
        <ele>2656.9</ele>
        <time>2020-07-05T11:00:55Z</time>
      </trkpt>
      <trkpt lat="42.717973" lon="0.227248">
        <ele>2654.6</ele>
        <time>2020-07-05T11:01:12Z</time>
      </trkpt>
      <trkpt lat="42.718018" lon="0.227360">
        <ele>2652.6</ele>
        <time>2020-07-05T11:01:21Z</time>
      </trkpt>
      <trkpt lat="42.718078" lon="0.227462">
        <ele>2650.8</ele>
        <time>2020-07-05T11:01:31Z</time>
      </trkpt>
      <trkpt lat="42.718135" lon="0.227556">
        <ele>2648.6</ele>
        <time>2020-07-05T11:01:40Z</time>
      </trkpt>
      <trkpt lat="42.718196" lon="0.227656">
        <ele>2646.8</ele>
        <time>2020-07-05T11:01:48Z</time>
      </trkpt>
      <trkpt lat="42.718259" lon="0.227747">
        <ele>2645.9</ele>
        <time>2020-07-05T11:01:57Z</time>
      </trkpt>
      <trkpt lat="42.718337" lon="0.227819">
        <ele>2645.9</ele>
        <time>2020-07-05T11:02:06Z</time>
      </trkpt>
      <trkpt lat="42.718388" lon="0.227920">
        <ele>2645.9</ele>
        <time>2020-07-05T11:02:36Z</time>
      </trkpt>
      <trkpt lat="42.718438" lon="0.228020">
        <ele>2645.9</ele>
        <time>2020-07-05T11:02:44Z</time>
      </trkpt>
      <trkpt lat="42.718496" lon="0.228103">
        <ele>2645.9</ele>
        <time>2020-07-05T11:02:56Z</time>
      </trkpt>
      <trkpt lat="42.718554" lon="0.228197">
        <ele>2645.9</ele>
        <time>2020-07-05T11:03:07Z</time>
      </trkpt>
      <trkpt lat="42.718611" lon="0.228298">
        <ele>2649.1</ele>
        <time>2020-07-05T11:03:20Z</time>
      </trkpt>
      <trkpt lat="42.718674" lon="0.228367">
        <ele>2653.5</ele>
        <time>2020-07-05T11:03:42Z</time>
      </trkpt>
      <trkpt lat="42.718695" lon="0.228454">
        <ele>2653.3</ele>
        <time>2020-07-05T11:05:01Z</time>
      </trkpt>
      <trkpt lat="42.718662" lon="0.228560">
        <ele>2646.6</ele>
        <time>2020-07-05T11:05:24Z</time>
      </trkpt>
      <trkpt lat="42.718666" lon="0.228683">
        <ele>2643.8</ele>
        <time>2020-07-05T11:05:36Z</time>
      </trkpt>
      <trkpt lat="42.718657" lon="0.228806">
        <ele>2639.0</ele>
        <time>2020-07-05T11:05:52Z</time>
      </trkpt>
      <trkpt lat="42.718630" lon="0.228934">
        <ele>2637.4</ele>
        <time>2020-07-05T11:06:04Z</time>
      </trkpt>
      <trkpt lat="42.718621" lon="0.229059">
        <ele>2635.5</ele>
        <time>2020-07-05T11:06:15Z</time>
      </trkpt>
      <trkpt lat="42.718610" lon="0.229186">
        <ele>2637.9</ele>
        <time>2020-07-05T11:06:39Z</time>
      </trkpt>
      <trkpt lat="42.718613" lon="0.229313">
        <ele>2638.7</ele>
        <time>2020-07-05T11:07:04Z</time>
      </trkpt>
      <trkpt lat="42.718642" lon="0.229418">
        <ele>2638.6</ele>
        <time>2020-07-05T11:07:43Z</time>
      </trkpt>
      <trkpt lat="42.718683" lon="0.229526">
        <ele>2638.6</ele>
        <time>2020-07-05T11:07:54Z</time>
      </trkpt>
      <trkpt lat="42.718713" lon="0.229626">
        <ele>2634.4</ele>
        <time>2020-07-05T11:08:08Z</time>
      </trkpt>
      <trkpt lat="42.718720" lon="0.229733">
        <ele>2632.6</ele>
        <time>2020-07-05T11:08:20Z</time>
      </trkpt>
      <trkpt lat="42.718722" lon="0.229854">
        <ele>2630.7</ele>
        <time>2020-07-05T11:08:38Z</time>
      </trkpt>
      <trkpt lat="42.718746" lon="0.229940">
        <ele>2627.2</ele>
        <time>2020-07-05T11:10:53Z</time>
      </trkpt>
      <trkpt lat="42.718752" lon="0.230020">
        <ele>2621.3</ele>
        <time>2020-07-05T11:11:15Z</time>
      </trkpt>
      <trkpt lat="42.718736" lon="0.230152">
        <ele>2621.3</ele>
        <time>2020-07-05T11:11:39Z</time>
      </trkpt>
      <trkpt lat="42.718723" lon="0.230267">
        <ele>2618.5</ele>
        <time>2020-07-05T11:12:13Z</time>
      </trkpt>
      <trkpt lat="42.718709" lon="0.230395">
        <ele>2615.7</ele>
        <time>2020-07-05T11:12:35Z</time>
      </trkpt>
      <trkpt lat="42.718705" lon="0.230518">
        <ele>2615.7</ele>
        <time>2020-07-05T11:12:49Z</time>
      </trkpt>
      <trkpt lat="42.718718" lon="0.230642">
        <ele>2615.6</ele>
        <time>2020-07-05T11:13:08Z</time>
      </trkpt>
      <trkpt lat="42.718721" lon="0.230748">
        <ele>2613.3</ele>
        <time>2020-07-05T11:13:59Z</time>
      </trkpt>
      <trkpt lat="42.718735" lon="0.230860">
        <ele>2609.5</ele>
        <time>2020-07-05T11:14:18Z</time>
      </trkpt>
      <trkpt lat="42.718766" lon="0.230975">
        <ele>2607.3</ele>
        <time>2020-07-05T11:14:44Z</time>
      </trkpt>
      <trkpt lat="42.718770" lon="0.231085">
        <ele>2607.3</ele>
        <time>2020-07-05T11:15:02Z</time>
      </trkpt>
      <trkpt lat="42.718797" lon="0.231209">
        <ele>2605.6</ele>
        <time>2020-07-05T11:15:23Z</time>
      </trkpt>
      <trkpt lat="42.718856" lon="0.231309">
        <ele>2603.0</ele>
        <time>2020-07-05T11:15:43Z</time>
      </trkpt>
      <trkpt lat="42.718882" lon="0.231413">
        <ele>2603.0</ele>
        <time>2020-07-05T11:16:07Z</time>
      </trkpt>
      <trkpt lat="42.718898" lon="0.231502">
        <ele>2603.0</ele>
        <time>2020-07-05T11:16:59Z</time>
      </trkpt>
      <trkpt lat="42.718925" lon="0.231624">
        <ele>2601.9</ele>
        <time>2020-07-05T11:17:19Z</time>
      </trkpt>
      <trkpt lat="42.718934" lon="0.231736">
        <ele>2599.6</ele>
        <time>2020-07-05T11:17:38Z</time>
      </trkpt>
      <trkpt lat="42.718944" lon="0.231905">
        <ele>2597.9</ele>
        <time>2020-07-05T11:18:01Z</time>
      </trkpt>
      <trkpt lat="42.718968" lon="0.231993">
        <ele>2596.9</ele>
        <time>2020-07-05T11:18:17Z</time>
      </trkpt>
      <trkpt lat="42.719000" lon="0.232101">
        <ele>2598.3</ele>
        <time>2020-07-05T11:18:55Z</time>
      </trkpt>
      <trkpt lat="42.718987" lon="0.232206">
        <ele>2593.9</ele>
        <time>2020-07-05T11:19:21Z</time>
      </trkpt>
      <trkpt lat="42.719001" lon="0.232343">
        <ele>2589.1</ele>
        <time>2020-07-05T11:19:41Z</time>
      </trkpt>
      <trkpt lat="42.718956" lon="0.232496">
        <ele>2589.2</ele>
        <time>2020-07-05T11:19:56Z</time>
      </trkpt>
      <trkpt lat="42.718908" lon="0.232581">
        <ele>2586.6</ele>
        <time>2020-07-05T11:20:34Z</time>
      </trkpt>
      <trkpt lat="42.718867" lon="0.232638">
        <ele>2591.9</ele>
        <time>2020-07-05T11:21:27Z</time>
      </trkpt>
      <trkpt lat="42.718793" lon="0.232696">
        <ele>2598.0</ele>
        <time>2020-07-05T11:22:04Z</time>
      </trkpt>
      <trkpt lat="42.718781" lon="0.232792">
        <ele>2599.5</ele>
        <time>2020-07-05T11:23:10Z</time>
      </trkpt>
      <trkpt lat="42.718761" lon="0.232886">
        <ele>2599.4</ele>
        <time>2020-07-05T11:23:30Z</time>
      </trkpt>
      <trkpt lat="42.718727" lon="0.232985">
        <ele>2597.1</ele>
        <time>2020-07-05T11:23:45Z</time>
      </trkpt>
      <trkpt lat="42.718793" lon="0.233083">
        <ele>2594.4</ele>
        <time>2020-07-05T11:24:02Z</time>
      </trkpt>
      <trkpt lat="42.718830" lon="0.233177">
        <ele>2590.5</ele>
        <time>2020-07-05T11:24:44Z</time>
      </trkpt>
      <trkpt lat="42.718857" lon="0.233277">
        <ele>2588.5</ele>
        <time>2020-07-05T11:24:57Z</time>
      </trkpt>
      <trkpt lat="42.718908" lon="0.233359">
        <ele>2585.5</ele>
        <time>2020-07-05T11:25:18Z</time>
      </trkpt>
      <trkpt lat="42.718940" lon="0.233401">
        <ele>2583.6</ele>
        <time>2020-07-05T11:25:50Z</time>
      </trkpt>
      <trkpt lat="42.718904" lon="0.233524">
        <ele>2583.7</ele>
        <time>2020-07-05T11:26:21Z</time>
      </trkpt>
      <trkpt lat="42.718848" lon="0.233533">
        <ele>2587.8</ele>
        <time>2020-07-05T11:27:16Z</time>
      </trkpt>
      <trkpt lat="42.718875" lon="0.233618">
        <ele>2585.3</ele>
        <time>2020-07-05T11:27:32Z</time>
      </trkpt>
      <trkpt lat="42.718925" lon="0.233713">
        <ele>2585.4</ele>
        <time>2020-07-05T11:28:07Z</time>
      </trkpt>
      <trkpt lat="42.718903" lon="0.233810">
        <ele>2590.2</ele>
        <time>2020-07-05T11:29:04Z</time>
      </trkpt>
      <trkpt lat="42.718830" lon="0.233755">
        <ele>2593.3</ele>
        <time>2020-07-05T11:29:45Z</time>
      </trkpt>
      <trkpt lat="42.718843" lon="0.233810">
        <ele>2599.2</ele>
        <time>2020-07-05T11:31:30Z</time>
      </trkpt>
      <trkpt lat="42.718834" lon="0.233810">
        <ele>2600.1</ele>
        <time>2020-07-05T11:32:30Z</time>
      </trkpt>
      <trkpt lat="42.718815" lon="0.233806">
        <ele>2605.4</ele>
        <time>2020-07-05T11:36:47Z</time>
      </trkpt>
      <trkpt lat="42.718840" lon="0.233906">
        <ele>2607.0</ele>
        <time>2020-07-05T11:37:39Z</time>
      </trkpt>
      <trkpt lat="42.718826" lon="0.233981">
        <ele>2609.7</ele>
        <time>2020-07-05T11:38:01Z</time>
      </trkpt>
      <trkpt lat="42.718819" lon="0.234084">
        <ele>2616.8</ele>
        <time>2020-07-05T11:39:03Z</time>
      </trkpt>
      <trkpt lat="42.718821" lon="0.234170">
        <ele>2620.4</ele>
        <time>2020-07-05T11:40:35Z</time>
      </trkpt>
      <trkpt lat="42.718773" lon="0.234236">
        <ele>2623.1</ele>
        <time>2020-07-05T11:41:06Z</time>
      </trkpt>
      <trkpt lat="42.718737" lon="0.234322">
        <ele>2628.8</ele>
        <time>2020-07-05T11:41:45Z</time>
      </trkpt>
      <trkpt lat="42.718711" lon="0.234378">
        <ele>2634.9</ele>
        <time>2020-07-05T11:42:29Z</time>
      </trkpt>
      <trkpt lat="42.718703" lon="0.234398">
        <ele>2637.3</ele>
        <time>2020-07-05T11:44:07Z</time>
      </trkpt>
      <trkpt lat="42.718666" lon="0.234494">
        <ele>2639.9</ele>
        <time>2020-07-05T11:44:22Z</time>
      </trkpt>
      <trkpt lat="42.718605" lon="0.234575">
        <ele>2643.6</ele>
        <time>2020-07-05T11:44:41Z</time>
      </trkpt>
      <trkpt lat="42.718527" lon="0.234645">
        <ele>2645.3</ele>
        <time>2020-07-05T11:44:56Z</time>
      </trkpt>
      <trkpt lat="42.718471" lon="0.234733">
        <ele>2646.1</ele>
        <time>2020-07-05T11:45:08Z</time>
      </trkpt>
      <trkpt lat="42.718402" lon="0.234816">
        <ele>2646.9</ele>
        <time>2020-07-05T11:45:17Z</time>
      </trkpt>
      <trkpt lat="42.718311" lon="0.234867">
        <ele>2647.8</ele>
        <time>2020-07-05T11:45:26Z</time>
      </trkpt>
      <trkpt lat="42.718221" lon="0.234928">
        <ele>2647.8</ele>
        <time>2020-07-05T11:45:36Z</time>
      </trkpt>
      <trkpt lat="42.718145" lon="0.234989">
        <ele>2648.6</ele>
        <time>2020-07-05T11:45:49Z</time>
      </trkpt>
      <trkpt lat="42.718121" lon="0.235105">
        <ele>2648.5</ele>
        <time>2020-07-05T11:46:00Z</time>
      </trkpt>
      <trkpt lat="42.718046" lon="0.235189">
        <ele>2648.6</ele>
        <time>2020-07-05T11:46:15Z</time>
      </trkpt>
      <trkpt lat="42.717986" lon="0.235265">
        <ele>2649.4</ele>
        <time>2020-07-05T11:46:38Z</time>
      </trkpt>
      <trkpt lat="42.717957" lon="0.235309">
        <ele>2647.3</ele>
        <time>2020-07-05T11:53:12Z</time>
      </trkpt>
      <trkpt lat="42.717942" lon="0.235414">
        <ele>2644.8</ele>
        <time>2020-07-05T11:53:29Z</time>
      </trkpt>
      <trkpt lat="42.717912" lon="0.235516">
        <ele>2642.4</ele>
        <time>2020-07-05T11:53:46Z</time>
      </trkpt>
      <trkpt lat="42.717886" lon="0.235606">
        <ele>2639.7</ele>
        <time>2020-07-05T11:54:09Z</time>
      </trkpt>
      <trkpt lat="42.717863" lon="0.235720">
        <ele>2636.9</ele>
        <time>2020-07-05T11:54:22Z</time>
      </trkpt>
      <trkpt lat="42.717826" lon="0.235833">
        <ele>2634.0</ele>
        <time>2020-07-05T11:54:32Z</time>
      </trkpt>
      <trkpt lat="42.717778" lon="0.235953">
        <ele>2632.0</ele>
        <time>2020-07-05T11:54:42Z</time>
      </trkpt>
      <trkpt lat="42.717731" lon="0.236065">
        <ele>2630.4</ele>
        <time>2020-07-05T11:54:52Z</time>
      </trkpt>
      <trkpt lat="42.717677" lon="0.236171">
        <ele>2628.6</ele>
        <time>2020-07-05T11:55:02Z</time>
      </trkpt>
      <trkpt lat="42.717625" lon="0.236273">
        <ele>2627.7</ele>
        <time>2020-07-05T11:55:12Z</time>
      </trkpt>
      <trkpt lat="42.717576" lon="0.236381">
        <ele>2626.0</ele>
        <time>2020-07-05T11:55:22Z</time>
      </trkpt>
      <trkpt lat="42.717519" lon="0.236479">
        <ele>2624.9</ele>
        <time>2020-07-05T11:55:30Z</time>
      </trkpt>
      <trkpt lat="42.717472" lon="0.236585">
        <ele>2625.1</ele>
        <time>2020-07-05T11:55:39Z</time>
      </trkpt>
      <trkpt lat="42.717433" lon="0.236698">
        <ele>2625.1</ele>
        <time>2020-07-05T11:55:49Z</time>
      </trkpt>
      <trkpt lat="42.717409" lon="0.236818">
        <ele>2623.2</ele>
        <time>2020-07-05T11:55:59Z</time>
      </trkpt>
      <trkpt lat="42.717381" lon="0.236943">
        <ele>2621.3</ele>
        <time>2020-07-05T11:56:10Z</time>
      </trkpt>
      <trkpt lat="42.717368" lon="0.237061">
        <ele>2617.6</ele>
        <time>2020-07-05T11:56:21Z</time>
      </trkpt>
      <trkpt lat="42.717363" lon="0.237186">
        <ele>2615.7</ele>
        <time>2020-07-05T11:56:31Z</time>
      </trkpt>
      <trkpt lat="42.717360" lon="0.237312">
        <ele>2612.2</ele>
        <time>2020-07-05T11:56:42Z</time>
      </trkpt>
      <trkpt lat="42.717385" lon="0.237432">
        <ele>2610.4</ele>
        <time>2020-07-05T11:56:52Z</time>
      </trkpt>
      <trkpt lat="42.717401" lon="0.237553">
        <ele>2607.8</ele>
        <time>2020-07-05T11:57:12Z</time>
      </trkpt>
      <trkpt lat="42.717406" lon="0.237685">
        <ele>2605.1</ele>
        <time>2020-07-05T11:57:23Z</time>
      </trkpt>
      <trkpt lat="42.717410" lon="0.237819">
        <ele>2602.3</ele>
        <time>2020-07-05T11:57:38Z</time>
      </trkpt>
      <trkpt lat="42.717358" lon="0.237914">
        <ele>2599.8</ele>
        <time>2020-07-05T11:57:49Z</time>
      </trkpt>
      <trkpt lat="42.717358" lon="0.238018">
        <ele>2598.0</ele>
        <time>2020-07-05T11:58:00Z</time>
      </trkpt>
      <trkpt lat="42.717336" lon="0.238159">
        <ele>2594.4</ele>
        <time>2020-07-05T11:58:12Z</time>
      </trkpt>
      <trkpt lat="42.717330" lon="0.238285">
        <ele>2591.9</ele>
        <time>2020-07-05T11:58:23Z</time>
      </trkpt>
      <trkpt lat="42.717324" lon="0.238395">
        <ele>2589.2</ele>
        <time>2020-07-05T11:58:35Z</time>
      </trkpt>
      <trkpt lat="42.717338" lon="0.238491">
        <ele>2587.5</ele>
        <time>2020-07-05T11:59:23Z</time>
      </trkpt>
      <trkpt lat="42.717400" lon="0.238593">
        <ele>2584.7</ele>
        <time>2020-07-05T11:59:35Z</time>
      </trkpt>
      <trkpt lat="42.717458" lon="0.238699">
        <ele>2583.9</ele>
        <time>2020-07-05T11:59:45Z</time>
      </trkpt>
      <trkpt lat="42.717517" lon="0.238801">
        <ele>2581.0</ele>
        <time>2020-07-05T11:59:55Z</time>
      </trkpt>
      <trkpt lat="42.717579" lon="0.238897">
        <ele>2577.5</ele>
        <time>2020-07-05T12:00:06Z</time>
      </trkpt>
      <trkpt lat="42.717651" lon="0.238978">
        <ele>2575.4</ele>
        <time>2020-07-05T12:00:16Z</time>
      </trkpt>
      <trkpt lat="42.717711" lon="0.239064">
        <ele>2573.7</ele>
        <time>2020-07-05T12:00:26Z</time>
      </trkpt>
      <trkpt lat="42.717749" lon="0.239151">
        <ele>2571.2</ele>
        <time>2020-07-05T12:00:36Z</time>
      </trkpt>
      <trkpt lat="42.717816" lon="0.239230">
        <ele>2567.5</ele>
        <time>2020-07-05T12:00:46Z</time>
      </trkpt>
      <trkpt lat="42.717861" lon="0.239338">
        <ele>2565.6</ele>
        <time>2020-07-05T12:00:57Z</time>
      </trkpt>
      <trkpt lat="42.717881" lon="0.239466">
        <ele>2563.1</ele>
        <time>2020-07-05T12:01:08Z</time>
      </trkpt>
      <trkpt lat="42.717904" lon="0.239594">
        <ele>2559.4</ele>
        <time>2020-07-05T12:01:19Z</time>
      </trkpt>
      <trkpt lat="42.717920" lon="0.239729">
        <ele>2556.6</ele>
        <time>2020-07-05T12:01:30Z</time>
      </trkpt>
      <trkpt lat="42.717937" lon="0.239840">
        <ele>2552.6</ele>
        <time>2020-07-05T12:01:41Z</time>
      </trkpt>
      <trkpt lat="42.717979" lon="0.239952">
        <ele>2550.6</ele>
        <time>2020-07-05T12:01:50Z</time>
      </trkpt>
      <trkpt lat="42.718022" lon="0.240068">
        <ele>2548.8</ele>
        <time>2020-07-05T12:02:00Z</time>
      </trkpt>
      <trkpt lat="42.718044" lon="0.240189">
        <ele>2545.9</ele>
        <time>2020-07-05T12:02:12Z</time>
      </trkpt>
      <trkpt lat="42.718096" lon="0.240293">
        <ele>2544.2</ele>
        <time>2020-07-05T12:02:24Z</time>
      </trkpt>
      <trkpt lat="42.718089" lon="0.240395">
        <ele>2541.6</ele>
        <time>2020-07-05T12:04:57Z</time>
      </trkpt>
      <trkpt lat="42.718085" lon="0.240503">
        <ele>2538.8</ele>
        <time>2020-07-05T12:05:14Z</time>
      </trkpt>
      <trkpt lat="42.718090" lon="0.240606">
        <ele>2534.3</ele>
        <time>2020-07-05T12:05:31Z</time>
      </trkpt>
      <trkpt lat="42.718055" lon="0.240690">
        <ele>2531.2</ele>
        <time>2020-07-05T12:05:48Z</time>
      </trkpt>
      <trkpt lat="42.718063" lon="0.240817">
        <ele>2527.6</ele>
        <time>2020-07-05T12:05:58Z</time>
      </trkpt>
      <trkpt lat="42.718064" lon="0.240945">
        <ele>2527.7</ele>
        <time>2020-07-05T12:06:11Z</time>
      </trkpt>
      <trkpt lat="42.718084" lon="0.241061">
        <ele>2525.9</ele>
        <time>2020-07-05T12:06:23Z</time>
      </trkpt>
      <trkpt lat="42.718069" lon="0.241152">
        <ele>2522.6</ele>
        <time>2020-07-05T12:07:23Z</time>
      </trkpt>
      <trkpt lat="42.718029" lon="0.241200">
        <ele>2520.8</ele>
        <time>2020-07-05T12:07:43Z</time>
      </trkpt>
      <trkpt lat="42.718041" lon="0.241317">
        <ele>2516.9</ele>
        <time>2020-07-05T12:08:11Z</time>
      </trkpt>
      <trkpt lat="42.718048" lon="0.241433">
        <ele>2514.3</ele>
        <time>2020-07-05T12:08:25Z</time>
      </trkpt>
      <trkpt lat="42.718075" lon="0.241559">
        <ele>2513.2</ele>
        <time>2020-07-05T12:08:39Z</time>
      </trkpt>
      <trkpt lat="42.718095" lon="0.241666">
        <ele>2509.6</ele>
        <time>2020-07-05T12:08:58Z</time>
      </trkpt>
      <trkpt lat="42.718090" lon="0.241775">
        <ele>2508.4</ele>
        <time>2020-07-05T12:09:18Z</time>
      </trkpt>
      <trkpt lat="42.718127" lon="0.241890">
        <ele>2503.1</ele>
        <time>2020-07-05T12:09:35Z</time>
      </trkpt>
      <trkpt lat="42.718139" lon="0.242012">
        <ele>2500.2</ele>
        <time>2020-07-05T12:09:48Z</time>
      </trkpt>
      <trkpt lat="42.718169" lon="0.242131">
        <ele>2499.4</ele>
        <time>2020-07-05T12:10:02Z</time>
      </trkpt>
      <trkpt lat="42.718197" lon="0.242236">
        <ele>2498.6</ele>
        <time>2020-07-05T12:10:20Z</time>
      </trkpt>
      <trkpt lat="42.718229" lon="0.242349">
        <ele>2498.6</ele>
        <time>2020-07-05T12:10:33Z</time>
      </trkpt>
      <trkpt lat="42.718197" lon="0.242452">
        <ele>2501.0</ele>
        <time>2020-07-05T12:10:46Z</time>
      </trkpt>
      <trkpt lat="42.718187" lon="0.242567">
        <ele>2501.8</ele>
        <time>2020-07-05T12:10:59Z</time>
      </trkpt>
      <trkpt lat="42.718165" lon="0.242689">
        <ele>2501.7</ele>
        <time>2020-07-05T12:11:12Z</time>
      </trkpt>
      <trkpt lat="42.718162" lon="0.242834">
        <ele>2501.7</ele>
        <time>2020-07-05T12:11:24Z</time>
      </trkpt>
      <trkpt lat="42.718171" lon="0.242921">
        <ele>2503.1</ele>
        <time>2020-07-05T12:12:10Z</time>
      </trkpt>
      <trkpt lat="42.718168" lon="0.243044">
        <ele>2499.7</ele>
        <time>2020-07-05T12:12:23Z</time>
      </trkpt>
      <trkpt lat="42.718169" lon="0.243176">
        <ele>2499.0</ele>
        <time>2020-07-05T12:12:37Z</time>
      </trkpt>
      <trkpt lat="42.718173" lon="0.243301">
        <ele>2498.1</ele>
        <time>2020-07-05T12:12:53Z</time>
      </trkpt>
      <trkpt lat="42.718110" lon="0.243268">
        <ele>2495.3</ele>
        <time>2020-07-05T12:13:36Z</time>
      </trkpt>
      <trkpt lat="42.718120" lon="0.243400">
        <ele>2491.7</ele>
        <time>2020-07-05T12:13:49Z</time>
      </trkpt>
      <trkpt lat="42.718133" lon="0.243507">
        <ele>2490.9</ele>
        <time>2020-07-05T12:14:21Z</time>
      </trkpt>
      <trkpt lat="42.718137" lon="0.243627">
        <ele>2487.8</ele>
        <time>2020-07-05T12:15:01Z</time>
      </trkpt>
      <trkpt lat="42.718132" lon="0.243772">
        <ele>2487.8</ele>
        <time>2020-07-05T12:15:21Z</time>
      </trkpt>
      <trkpt lat="42.718118" lon="0.243895">
        <ele>2487.7</ele>
        <time>2020-07-05T12:15:31Z</time>
      </trkpt>
      <trkpt lat="42.718082" lon="0.244012">
        <ele>2487.7</ele>
        <time>2020-07-05T12:15:40Z</time>
      </trkpt>
      <trkpt lat="42.718065" lon="0.244140">
        <ele>2490.2</ele>
        <time>2020-07-05T12:15:51Z</time>
      </trkpt>
      <trkpt lat="42.718043" lon="0.244258">
        <ele>2492.6</ele>
        <time>2020-07-05T12:16:03Z</time>
      </trkpt>
      <trkpt lat="42.718048" lon="0.244376">
        <ele>2496.0</ele>
        <time>2020-07-05T12:16:17Z</time>
      </trkpt>
      <trkpt lat="42.718046" lon="0.244492">
        <ele>2499.5</ele>
        <time>2020-07-05T12:16:33Z</time>
      </trkpt>
      <trkpt lat="42.718061" lon="0.244616">
        <ele>2502.4</ele>
        <time>2020-07-05T12:16:50Z</time>
      </trkpt>
      <trkpt lat="42.718049" lon="0.244733">
        <ele>2505.8</ele>
        <time>2020-07-05T12:17:07Z</time>
      </trkpt>
      <trkpt lat="42.718034" lon="0.244851">
        <ele>2508.5</ele>
        <time>2020-07-05T12:17:19Z</time>
      </trkpt>
      <trkpt lat="42.718005" lon="0.244969">
        <ele>2509.3</ele>
        <time>2020-07-05T12:17:30Z</time>
      </trkpt>
      <trkpt lat="42.717977" lon="0.245095">
        <ele>2511.4</ele>
        <time>2020-07-05T12:17:41Z</time>
      </trkpt>
      <trkpt lat="42.717963" lon="0.245222">
        <ele>2514.0</ele>
        <time>2020-07-05T12:17:55Z</time>
      </trkpt>
      <trkpt lat="42.717953" lon="0.245344">
        <ele>2516.9</ele>
        <time>2020-07-05T12:18:09Z</time>
      </trkpt>
      <trkpt lat="42.717963" lon="0.245449">
        <ele>2519.8</ele>
        <time>2020-07-05T12:18:27Z</time>
      </trkpt>
      <trkpt lat="42.717958" lon="0.245577">
        <ele>2523.2</ele>
        <time>2020-07-05T12:18:42Z</time>
      </trkpt>
      <trkpt lat="42.717906" lon="0.245678">
        <ele>2523.1</ele>
        <time>2020-07-05T12:19:22Z</time>
      </trkpt>
      <trkpt lat="42.717878" lon="0.245799">
        <ele>2521.5</ele>
        <time>2020-07-05T12:19:39Z</time>
      </trkpt>
      <trkpt lat="42.717863" lon="0.245926">
        <ele>2520.7</ele>
        <time>2020-07-05T12:19:50Z</time>
      </trkpt>
      <trkpt lat="42.717855" lon="0.246049">
        <ele>2519.9</ele>
        <time>2020-07-05T12:20:01Z</time>
      </trkpt>
      <trkpt lat="42.717850" lon="0.246172">
        <ele>2519.9</ele>
        <time>2020-07-05T12:20:13Z</time>
      </trkpt>
      <trkpt lat="42.717819" lon="0.246290">
        <ele>2523.2</ele>
        <time>2020-07-05T12:20:26Z</time>
      </trkpt>
      <trkpt lat="42.717856" lon="0.246395">
        <ele>2525.9</ele>
        <time>2020-07-05T12:20:46Z</time>
      </trkpt>
      <trkpt lat="42.717847" lon="0.246514">
        <ele>2529.1</ele>
        <time>2020-07-05T12:21:06Z</time>
      </trkpt>
      <trkpt lat="42.717815" lon="0.246632">
        <ele>2530.5</ele>
        <time>2020-07-05T12:21:23Z</time>
      </trkpt>
      <trkpt lat="42.717791" lon="0.246759">
        <ele>2531.3</ele>
        <time>2020-07-05T12:21:37Z</time>
      </trkpt>
      <trkpt lat="42.717773" lon="0.246868">
        <ele>2533.9</ele>
        <time>2020-07-05T12:21:53Z</time>
      </trkpt>
      <trkpt lat="42.717730" lon="0.246970">
        <ele>2534.6</ele>
        <time>2020-07-05T12:22:06Z</time>
      </trkpt>
      <trkpt lat="42.717714" lon="0.247095">
        <ele>2536.4</ele>
        <time>2020-07-05T12:22:23Z</time>
      </trkpt>
      <trkpt lat="42.717695" lon="0.247224">
        <ele>2538.0</ele>
        <time>2020-07-05T12:22:41Z</time>
      </trkpt>
      <trkpt lat="42.717693" lon="0.247359">
        <ele>2538.8</ele>
        <time>2020-07-05T12:22:53Z</time>
      </trkpt>
      <trkpt lat="42.717692" lon="0.247475">
        <ele>2538.7</ele>
        <time>2020-07-05T12:23:04Z</time>
      </trkpt>
      <trkpt lat="42.717693" lon="0.247599">
        <ele>2535.6</ele>
        <time>2020-07-05T12:23:15Z</time>
      </trkpt>
      <trkpt lat="42.717709" lon="0.247724">
        <ele>2535.6</ele>
        <time>2020-07-05T12:23:25Z</time>
      </trkpt>
      <trkpt lat="42.717714" lon="0.247850">
        <ele>2533.8</ele>
        <time>2020-07-05T12:23:35Z</time>
      </trkpt>
      <trkpt lat="42.717743" lon="0.247965">
        <ele>2532.1</ele>
        <time>2020-07-05T12:23:46Z</time>
      </trkpt>
      <trkpt lat="42.717772" lon="0.248079">
        <ele>2532.1</ele>
        <time>2020-07-05T12:24:02Z</time>
      </trkpt>
      <trkpt lat="42.717814" lon="0.248182">
        <ele>2530.2</ele>
        <time>2020-07-05T12:24:13Z</time>
      </trkpt>
      <trkpt lat="42.717878" lon="0.248259">
        <ele>2527.9</ele>
        <time>2020-07-05T12:24:23Z</time>
      </trkpt>
      <trkpt lat="42.717941" lon="0.248352">
        <ele>2527.1</ele>
        <time>2020-07-05T12:24:34Z</time>
      </trkpt>
      <trkpt lat="42.718017" lon="0.248438">
        <ele>2525.5</ele>
        <time>2020-07-05T12:25:00Z</time>
      </trkpt>
      <trkpt lat="42.718093" lon="0.248522">
        <ele>2523.4</ele>
        <time>2020-07-05T12:25:26Z</time>
      </trkpt>
      <trkpt lat="42.718160" lon="0.248611">
        <ele>2523.4</ele>
        <time>2020-07-05T12:25:36Z</time>
      </trkpt>
      <trkpt lat="42.718221" lon="0.248693">
        <ele>2521.5</ele>
        <time>2020-07-05T12:25:45Z</time>
      </trkpt>
      <trkpt lat="42.718271" lon="0.248770">
        <ele>2520.7</ele>
        <time>2020-07-05T12:25:55Z</time>
      </trkpt>
      <trkpt lat="42.718335" lon="0.248863">
        <ele>2519.8</ele>
        <time>2020-07-05T12:26:06Z</time>
      </trkpt>
      <trkpt lat="42.718384" lon="0.248979">
        <ele>2518.9</ele>
        <time>2020-07-05T12:26:17Z</time>
      </trkpt>
      <trkpt lat="42.718437" lon="0.249080">
        <ele>2517.1</ele>
        <time>2020-07-05T12:26:27Z</time>
      </trkpt>
      <trkpt lat="42.718499" lon="0.249179">
        <ele>2515.5</ele>
        <time>2020-07-05T12:26:38Z</time>
      </trkpt>
      <trkpt lat="42.718545" lon="0.249274">
        <ele>2513.8</ele>
        <time>2020-07-05T12:26:48Z</time>
      </trkpt>
      <trkpt lat="42.718580" lon="0.249385">
        <ele>2512.1</ele>
        <time>2020-07-05T12:26:58Z</time>
      </trkpt>
      <trkpt lat="42.718617" lon="0.249498">
        <ele>2510.3</ele>
        <time>2020-07-05T12:27:09Z</time>
      </trkpt>
      <trkpt lat="42.718638" lon="0.249623">
        <ele>2509.1</ele>
        <time>2020-07-05T12:27:20Z</time>
      </trkpt>
      <trkpt lat="42.718658" lon="0.249736">
        <ele>2507.5</ele>
        <time>2020-07-05T12:27:31Z</time>
      </trkpt>
      <trkpt lat="42.718654" lon="0.249864">
        <ele>2506.6</ele>
        <time>2020-07-05T12:27:42Z</time>
      </trkpt>
      <trkpt lat="42.718671" lon="0.249975">
        <ele>2505.6</ele>
        <time>2020-07-05T12:27:54Z</time>
      </trkpt>
      <trkpt lat="42.718682" lon="0.250100">
        <ele>2502.8</ele>
        <time>2020-07-05T12:28:07Z</time>
      </trkpt>
      <trkpt lat="42.718733" lon="0.250168">
        <ele>2499.2</ele>
        <time>2020-07-05T12:30:34Z</time>
      </trkpt>
      <trkpt lat="42.718813" lon="0.250179">
        <ele>2494.7</ele>
        <time>2020-07-05T12:30:50Z</time>
      </trkpt>
      <trkpt lat="42.718905" lon="0.250227">
        <ele>2490.9</ele>
        <time>2020-07-05T12:31:03Z</time>
      </trkpt>
      <trkpt lat="42.718961" lon="0.250300">
        <ele>2489.2</ele>
        <time>2020-07-05T12:31:17Z</time>
      </trkpt>
      <trkpt lat="42.718939" lon="0.250403">
        <ele>2488.4</ele>
        <time>2020-07-05T12:31:31Z</time>
      </trkpt>
      <trkpt lat="42.719018" lon="0.250416">
        <ele>2486.7</ele>
        <time>2020-07-05T12:31:54Z</time>
      </trkpt>
      <trkpt lat="42.719105" lon="0.250400">
        <ele>2485.8</ele>
        <time>2020-07-05T12:32:04Z</time>
      </trkpt>
      <trkpt lat="42.719197" lon="0.250386">
        <ele>2485.1</ele>
        <time>2020-07-05T12:32:13Z</time>
      </trkpt>
      <trkpt lat="42.719293" lon="0.250394">
        <ele>2485.2</ele>
        <time>2020-07-05T12:32:24Z</time>
      </trkpt>
      <trkpt lat="42.719377" lon="0.250453">
        <ele>2487.4</ele>
        <time>2020-07-05T12:32:35Z</time>
      </trkpt>
      <trkpt lat="42.719451" lon="0.250526">
        <ele>2487.3</ele>
        <time>2020-07-05T12:32:45Z</time>
      </trkpt>
      <trkpt lat="42.719534" lon="0.250565">
        <ele>2483.6</ele>
        <time>2020-07-05T12:32:56Z</time>
      </trkpt>
      <trkpt lat="42.719623" lon="0.250565">
        <ele>2481.7</ele>
        <time>2020-07-05T12:33:08Z</time>
      </trkpt>
      <trkpt lat="42.719715" lon="0.250566">
        <ele>2478.5</ele>
        <time>2020-07-05T12:33:21Z</time>
      </trkpt>
      <trkpt lat="42.719786" lon="0.250561">
        <ele>2476.0</ele>
        <time>2020-07-05T12:34:01Z</time>
      </trkpt>
      <trkpt lat="42.719861" lon="0.250493">
        <ele>2474.4</ele>
        <time>2020-07-05T12:34:15Z</time>
      </trkpt>
      <trkpt lat="42.719944" lon="0.250439">
        <ele>2471.6</ele>
        <time>2020-07-05T12:34:29Z</time>
      </trkpt>
      <trkpt lat="42.720027" lon="0.250399">
        <ele>2467.7</ele>
        <time>2020-07-05T12:34:40Z</time>
      </trkpt>
      <trkpt lat="42.720099" lon="0.250322">
        <ele>2464.1</ele>
        <time>2020-07-05T12:34:51Z</time>
      </trkpt>
      <trkpt lat="42.720170" lon="0.250242">
        <ele>2461.3</ele>
        <time>2020-07-05T12:35:02Z</time>
      </trkpt>
      <trkpt lat="42.720234" lon="0.250139">
        <ele>2458.4</ele>
        <time>2020-07-05T12:35:13Z</time>
      </trkpt>
      <trkpt lat="42.720290" lon="0.250043">
        <ele>2457.7</ele>
        <time>2020-07-05T12:35:22Z</time>
      </trkpt>
      <trkpt lat="42.720355" lon="0.249954">
        <ele>2455.8</ele>
        <time>2020-07-05T12:35:32Z</time>
      </trkpt>
      <trkpt lat="42.720406" lon="0.249854">
        <ele>2454.1</ele>
        <time>2020-07-05T12:36:04Z</time>
      </trkpt>
      <trkpt lat="42.720468" lon="0.249758">
        <ele>2453.2</ele>
        <time>2020-07-05T12:36:14Z</time>
      </trkpt>
      <trkpt lat="42.720518" lon="0.249645">
        <ele>2452.3</ele>
        <time>2020-07-05T12:36:24Z</time>
      </trkpt>
      <trkpt lat="42.720597" lon="0.249577">
        <ele>2448.8</ele>
        <time>2020-07-05T12:36:34Z</time>
      </trkpt>
      <trkpt lat="42.720658" lon="0.249487">
        <ele>2447.1</ele>
        <time>2020-07-05T12:36:44Z</time>
      </trkpt>
      <trkpt lat="42.720707" lon="0.249377">
        <ele>2446.4</ele>
        <time>2020-07-05T12:36:52Z</time>
      </trkpt>
      <trkpt lat="42.720781" lon="0.249309">
        <ele>2444.3</ele>
        <time>2020-07-05T12:37:00Z</time>
      </trkpt>
      <trkpt lat="42.720857" lon="0.249242">
        <ele>2442.4</ele>
        <time>2020-07-05T12:37:09Z</time>
      </trkpt>
      <trkpt lat="42.720929" lon="0.249159">
        <ele>2441.5</ele>
        <time>2020-07-05T12:37:18Z</time>
      </trkpt>
      <trkpt lat="42.720976" lon="0.249050">
        <ele>2440.5</ele>
        <time>2020-07-05T12:37:27Z</time>
      </trkpt>
      <trkpt lat="42.720939" lon="0.248939">
        <ele>2439.5</ele>
        <time>2020-07-05T12:37:36Z</time>
      </trkpt>
      <trkpt lat="42.720870" lon="0.248869">
        <ele>2439.4</ele>
        <time>2020-07-05T12:37:44Z</time>
      </trkpt>
      <trkpt lat="42.720798" lon="0.248793">
        <ele>2437.8</ele>
        <time>2020-07-05T12:37:53Z</time>
      </trkpt>
      <trkpt lat="42.720773" lon="0.248675">
        <ele>2435.1</ele>
        <time>2020-07-05T12:38:02Z</time>
      </trkpt>
      <trkpt lat="42.720757" lon="0.248544">
        <ele>2433.1</ele>
        <time>2020-07-05T12:38:11Z</time>
      </trkpt>
      <trkpt lat="42.720742" lon="0.248420">
        <ele>2432.3</ele>
        <time>2020-07-05T12:38:20Z</time>
      </trkpt>
      <trkpt lat="42.720704" lon="0.248334">
        <ele>2431.3</ele>
        <time>2020-07-05T12:38:31Z</time>
      </trkpt>
      <trkpt lat="42.720656" lon="0.248190">
        <ele>2429.6</ele>
        <time>2020-07-05T12:38:48Z</time>
      </trkpt>
      <trkpt lat="42.720598" lon="0.248109">
        <ele>2428.7</ele>
        <time>2020-07-05T12:38:57Z</time>
      </trkpt>
      <trkpt lat="42.720537" lon="0.248003">
        <ele>2428.6</ele>
        <time>2020-07-05T12:39:06Z</time>
      </trkpt>
      <trkpt lat="42.720494" lon="0.247923">
        <ele>2427.8</ele>
        <time>2020-07-05T12:39:27Z</time>
      </trkpt>
      <trkpt lat="42.720526" lon="0.247770">
        <ele>2427.5</ele>
        <time>2020-07-05T12:40:36Z</time>
      </trkpt>
      <trkpt lat="42.720550" lon="0.247648">
        <ele>2423.3</ele>
        <time>2020-07-05T12:40:48Z</time>
      </trkpt>
      <trkpt lat="42.720577" lon="0.247534">
        <ele>2420.7</ele>
        <time>2020-07-05T12:40:58Z</time>
      </trkpt>
      <trkpt lat="42.720613" lon="0.247412">
        <ele>2418.1</ele>
        <time>2020-07-05T12:41:10Z</time>
      </trkpt>
      <trkpt lat="42.720618" lon="0.247290">
        <ele>2416.4</ele>
        <time>2020-07-05T12:41:20Z</time>
      </trkpt>
      <trkpt lat="42.720640" lon="0.247177">
        <ele>2413.6</ele>
        <time>2020-07-05T12:41:32Z</time>
      </trkpt>
      <trkpt lat="42.720662" lon="0.247046">
        <ele>2410.8</ele>
        <time>2020-07-05T12:41:42Z</time>
      </trkpt>
      <trkpt lat="42.720687" lon="0.246914">
        <ele>2410.1</ele>
        <time>2020-07-05T12:41:51Z</time>
      </trkpt>
      <trkpt lat="42.720712" lon="0.246806">
        <ele>2406.7</ele>
        <time>2020-07-05T12:42:04Z</time>
      </trkpt>
      <trkpt lat="42.720792" lon="0.246783">
        <ele>2402.0</ele>
        <time>2020-07-05T12:43:08Z</time>
      </trkpt>
      <trkpt lat="42.720865" lon="0.246735">
        <ele>2398.9</ele>
        <time>2020-07-05T12:43:21Z</time>
      </trkpt>
      <trkpt lat="42.720904" lon="0.246635">
        <ele>2393.1</ele>
        <time>2020-07-05T12:43:36Z</time>
      </trkpt>
      <trkpt lat="42.720963" lon="0.246551">
        <ele>2388.6</ele>
        <time>2020-07-05T12:43:47Z</time>
      </trkpt>
      <trkpt lat="42.721024" lon="0.246485">
        <ele>2383.4</ele>
        <time>2020-07-05T12:44:02Z</time>
      </trkpt>
      <trkpt lat="42.721104" lon="0.246432">
        <ele>2378.5</ele>
        <time>2020-07-05T12:44:14Z</time>
      </trkpt>
      <trkpt lat="42.721121" lon="0.246313">
        <ele>2373.7</ele>
        <time>2020-07-05T12:44:28Z</time>
      </trkpt>
      <trkpt lat="42.721174" lon="0.246236">
        <ele>2368.9</ele>
        <time>2020-07-05T12:44:42Z</time>
      </trkpt>
      <trkpt lat="42.721229" lon="0.246171">
        <ele>2365.0</ele>
        <time>2020-07-05T12:44:55Z</time>
      </trkpt>
      <trkpt lat="42.721306" lon="0.246102">
        <ele>2361.6</ele>
        <time>2020-07-05T12:45:07Z</time>
      </trkpt>
      <trkpt lat="42.721377" lon="0.246011">
        <ele>2357.8</ele>
        <time>2020-07-05T12:45:19Z</time>
      </trkpt>
      <trkpt lat="42.721456" lon="0.245970">
        <ele>2355.9</ele>
        <time>2020-07-05T12:45:30Z</time>
      </trkpt>
      <trkpt lat="42.721500" lon="0.245869">
        <ele>2351.5</ele>
        <time>2020-07-05T12:45:40Z</time>
      </trkpt>
      <trkpt lat="42.721530" lon="0.245751">
        <ele>2348.7</ele>
        <time>2020-07-05T12:45:51Z</time>
      </trkpt>
      <trkpt lat="42.721559" lon="0.245628">
        <ele>2345.7</ele>
        <time>2020-07-05T12:46:02Z</time>
      </trkpt>
      <trkpt lat="42.721576" lon="0.245504">
        <ele>2343.8</ele>
        <time>2020-07-05T12:46:11Z</time>
      </trkpt>
      <trkpt lat="42.721579" lon="0.245380">
        <ele>2342.1</ele>
        <time>2020-07-05T12:46:21Z</time>
      </trkpt>
      <trkpt lat="42.721627" lon="0.245278">
        <ele>2339.3</ele>
        <time>2020-07-05T12:46:31Z</time>
      </trkpt>
      <trkpt lat="42.721681" lon="0.245179">
        <ele>2336.7</ele>
        <time>2020-07-05T12:46:44Z</time>
      </trkpt>
      <trkpt lat="42.721715" lon="0.245090">
        <ele>2333.3</ele>
        <time>2020-07-05T12:46:55Z</time>
      </trkpt>
      <trkpt lat="42.721751" lon="0.244979">
        <ele>2330.5</ele>
        <time>2020-07-05T12:47:07Z</time>
      </trkpt>
      <trkpt lat="42.721775" lon="0.244892">
        <ele>2328.5</ele>
        <time>2020-07-05T12:47:22Z</time>
      </trkpt>
      <trkpt lat="42.721749" lon="0.244782">
        <ele>2325.5</ele>
        <time>2020-07-05T12:47:36Z</time>
      </trkpt>
      <trkpt lat="42.721833" lon="0.244707">
        <ele>2321.9</ele>
        <time>2020-07-05T12:47:48Z</time>
      </trkpt>
      <trkpt lat="42.721897" lon="0.244630">
        <ele>2316.7</ele>
        <time>2020-07-05T12:47:59Z</time>
      </trkpt>
      <trkpt lat="42.721940" lon="0.244516">
        <ele>2315.6</ele>
        <time>2020-07-05T12:48:11Z</time>
      </trkpt>
      <trkpt lat="42.722006" lon="0.244422">
        <ele>2312.9</ele>
        <time>2020-07-05T12:48:25Z</time>
      </trkpt>
      <trkpt lat="42.722082" lon="0.244340">
        <ele>2309.8</ele>
        <time>2020-07-05T12:48:36Z</time>
      </trkpt>
      <trkpt lat="42.722160" lon="0.244264">
        <ele>2308.0</ele>
        <time>2020-07-05T12:48:48Z</time>
      </trkpt>
      <trkpt lat="42.722237" lon="0.244211">
        <ele>2306.3</ele>
        <time>2020-07-05T12:48:59Z</time>
      </trkpt>
      <trkpt lat="42.722303" lon="0.244140">
        <ele>2304.4</ele>
        <time>2020-07-05T12:50:02Z</time>
      </trkpt>
      <trkpt lat="42.722392" lon="0.244112">
        <ele>2302.4</ele>
        <time>2020-07-05T12:50:17Z</time>
      </trkpt>
      <trkpt lat="42.722435" lon="0.244144">
        <ele>2300.5</ele>
        <time>2020-07-05T12:50:29Z</time>
      </trkpt>
      <trkpt lat="42.722468" lon="0.244238">
        <ele>2296.9</ele>
        <time>2020-07-05T12:50:43Z</time>
      </trkpt>
      <trkpt lat="42.722545" lon="0.244241">
        <ele>2293.9</ele>
        <time>2020-07-05T12:51:00Z</time>
      </trkpt>
      <trkpt lat="42.722597" lon="0.244298">
        <ele>2291.5</ele>
        <time>2020-07-05T12:51:23Z</time>
      </trkpt>
      <trkpt lat="42.722672" lon="0.244279">
        <ele>2287.4</ele>
        <time>2020-07-05T12:51:36Z</time>
      </trkpt>
      <trkpt lat="42.722751" lon="0.244310">
        <ele>2284.4</ele>
        <time>2020-07-05T12:51:48Z</time>
      </trkpt>
      <trkpt lat="42.722794" lon="0.244405">
        <ele>2280.8</ele>
        <time>2020-07-05T12:52:00Z</time>
      </trkpt>
      <trkpt lat="42.722878" lon="0.244361">
        <ele>2276.6</ele>
        <time>2020-07-05T12:52:14Z</time>
      </trkpt>
      <trkpt lat="42.722980" lon="0.244348">
        <ele>2273.8</ele>
        <time>2020-07-05T12:52:26Z</time>
      </trkpt>
      <trkpt lat="42.723056" lon="0.244335">
        <ele>2270.5</ele>
        <time>2020-07-05T12:52:37Z</time>
      </trkpt>
      <trkpt lat="42.723134" lon="0.244295">
        <ele>2267.2</ele>
        <time>2020-07-05T12:52:47Z</time>
      </trkpt>
      <trkpt lat="42.723212" lon="0.244290">
        <ele>2262.0</ele>
        <time>2020-07-05T12:52:59Z</time>
      </trkpt>
      <trkpt lat="42.723280" lon="0.244259">
        <ele>2257.1</ele>
        <time>2020-07-05T12:53:11Z</time>
      </trkpt>
      <trkpt lat="42.723356" lon="0.244297">
        <ele>2253.6</ele>
        <time>2020-07-05T12:53:38Z</time>
      </trkpt>
      <trkpt lat="42.723423" lon="0.244265">
        <ele>2249.5</ele>
        <time>2020-07-05T12:53:51Z</time>
      </trkpt>
      <trkpt lat="42.723493" lon="0.244253">
        <ele>2246.9</ele>
        <time>2020-07-05T12:54:07Z</time>
      </trkpt>
      <trkpt lat="42.723556" lon="0.244198">
        <ele>2242.5</ele>
        <time>2020-07-05T12:54:21Z</time>
      </trkpt>
      <trkpt lat="42.723623" lon="0.244134">
        <ele>2238.9</ele>
        <time>2020-07-05T12:54:35Z</time>
      </trkpt>
      <trkpt lat="42.723711" lon="0.244100">
        <ele>2234.9</ele>
        <time>2020-07-05T12:54:46Z</time>
      </trkpt>
      <trkpt lat="42.723754" lon="0.244015">
        <ele>2233.3</ele>
        <time>2020-07-05T12:55:12Z</time>
      </trkpt>
      <trkpt lat="42.723823" lon="0.243985">
        <ele>2230.0</ele>
        <time>2020-07-05T12:55:23Z</time>
      </trkpt>
      <trkpt lat="42.723902" lon="0.243970">
        <ele>2226.9</ele>
        <time>2020-07-05T12:55:33Z</time>
      </trkpt>
      <trkpt lat="42.723959" lon="0.244001">
        <ele>2224.1</ele>
        <time>2020-07-05T12:56:11Z</time>
      </trkpt>
      <trkpt lat="42.724003" lon="0.244017">
        <ele>2218.7</ele>
        <time>2020-07-05T13:02:28Z</time>
      </trkpt>
      <trkpt lat="42.724087" lon="0.244056">
        <ele>2213.8</ele>
        <time>2020-07-05T13:02:41Z</time>
      </trkpt>
      <trkpt lat="42.724162" lon="0.244084">
        <ele>2209.3</ele>
        <time>2020-07-05T13:02:52Z</time>
      </trkpt>
      <trkpt lat="42.724254" lon="0.244087">
        <ele>2204.4</ele>
        <time>2020-07-05T13:03:04Z</time>
      </trkpt>
      <trkpt lat="42.724340" lon="0.244117">
        <ele>2199.8</ele>
        <time>2020-07-05T13:03:14Z</time>
      </trkpt>
      <trkpt lat="42.724425" lon="0.244115">
        <ele>2195.3</ele>
        <time>2020-07-05T13:03:24Z</time>
      </trkpt>
      <trkpt lat="42.724492" lon="0.244114">
        <ele>2191.5</ele>
        <time>2020-07-05T13:03:35Z</time>
      </trkpt>
      <trkpt lat="42.724584" lon="0.244100">
        <ele>2185.2</ele>
        <time>2020-07-05T13:03:45Z</time>
      </trkpt>
      <trkpt lat="42.724678" lon="0.244125">
        <ele>2181.1</ele>
        <time>2020-07-05T13:03:57Z</time>
      </trkpt>
      <trkpt lat="42.724772" lon="0.244153">
        <ele>2177.3</ele>
        <time>2020-07-05T13:04:07Z</time>
      </trkpt>
      <trkpt lat="42.724851" lon="0.244216">
        <ele>2173.3</ele>
        <time>2020-07-05T13:04:15Z</time>
      </trkpt>
      <trkpt lat="42.724941" lon="0.244292">
        <ele>2168.4</ele>
        <time>2020-07-05T13:04:26Z</time>
      </trkpt>
      <trkpt lat="42.725027" lon="0.244312">
        <ele>2163.1</ele>
        <time>2020-07-05T13:04:35Z</time>
      </trkpt>
      <trkpt lat="42.725119" lon="0.244286">
        <ele>2159.5</ele>
        <time>2020-07-05T13:04:46Z</time>
      </trkpt>
      <trkpt lat="42.725214" lon="0.244252">
        <ele>2154.4</ele>
        <time>2020-07-05T13:04:58Z</time>
      </trkpt>
      <trkpt lat="42.725294" lon="0.244196">
        <ele>2149.5</ele>
        <time>2020-07-05T13:05:10Z</time>
      </trkpt>
      <trkpt lat="42.725381" lon="0.244141">
        <ele>2145.6</ele>
        <time>2020-07-05T13:05:22Z</time>
      </trkpt>
      <trkpt lat="42.725452" lon="0.244058">
        <ele>2141.7</ele>
        <time>2020-07-05T13:05:32Z</time>
      </trkpt>
      <trkpt lat="42.725525" lon="0.244080">
        <ele>2137.9</ele>
        <time>2020-07-05T13:05:48Z</time>
      </trkpt>
      <trkpt lat="42.725613" lon="0.244110">
        <ele>2135.3</ele>
        <time>2020-07-05T13:05:57Z</time>
      </trkpt>
      <trkpt lat="42.725699" lon="0.244083">
        <ele>2131.3</ele>
        <time>2020-07-05T13:06:06Z</time>
      </trkpt>
      <trkpt lat="42.725799" lon="0.244063">
        <ele>2129.3</ele>
        <time>2020-07-05T13:06:14Z</time>
      </trkpt>
      <trkpt lat="42.725884" lon="0.243991">
        <ele>2127.4</ele>
        <time>2020-07-05T13:06:22Z</time>
      </trkpt>
      <trkpt lat="42.725977" lon="0.243931">
        <ele>2125.7</ele>
        <time>2020-07-05T13:06:30Z</time>
      </trkpt>
      <trkpt lat="42.726068" lon="0.243924">
        <ele>2124.0</ele>
        <time>2020-07-05T13:06:38Z</time>
      </trkpt>
      <trkpt lat="42.726156" lon="0.243894">
        <ele>2123.2</ele>
        <time>2020-07-05T13:06:47Z</time>
      </trkpt>
      <trkpt lat="42.726245" lon="0.243886">
        <ele>2120.1</ele>
        <time>2020-07-05T13:06:59Z</time>
      </trkpt>
      <trkpt lat="42.726322" lon="0.243824">
        <ele>2116.3</ele>
        <time>2020-07-05T13:07:10Z</time>
      </trkpt>
      <trkpt lat="42.726376" lon="0.243737">
        <ele>2113.6</ele>
        <time>2020-07-05T13:07:19Z</time>
      </trkpt>
      <trkpt lat="42.726454" lon="0.243713">
        <ele>2110.1</ele>
        <time>2020-07-05T13:07:29Z</time>
      </trkpt>
      <trkpt lat="42.726543" lon="0.243734">
        <ele>2106.5</ele>
        <time>2020-07-05T13:07:39Z</time>
      </trkpt>
      <trkpt lat="42.726620" lon="0.243783">
        <ele>2103.1</ele>
        <time>2020-07-05T13:07:52Z</time>
      </trkpt>
      <trkpt lat="42.726704" lon="0.243846">
        <ele>2101.5</ele>
        <time>2020-07-05T13:08:19Z</time>
      </trkpt>
      <trkpt lat="42.726782" lon="0.243908">
        <ele>2100.5</ele>
        <time>2020-07-05T13:08:29Z</time>
      </trkpt>
      <trkpt lat="42.726851" lon="0.243997">
        <ele>2097.7</ele>
        <time>2020-07-05T13:08:40Z</time>
      </trkpt>
      <trkpt lat="42.726926" lon="0.244057">
        <ele>2097.8</ele>
        <time>2020-07-05T13:08:50Z</time>
      </trkpt>
      <trkpt lat="42.727016" lon="0.244032">
        <ele>2094.8</ele>
        <time>2020-07-05T13:09:00Z</time>
      </trkpt>
      <trkpt lat="42.727095" lon="0.243989">
        <ele>2092.9</ele>
        <time>2020-07-05T13:09:10Z</time>
      </trkpt>
      <trkpt lat="42.727188" lon="0.244015">
        <ele>2092.0</ele>
        <time>2020-07-05T13:09:34Z</time>
      </trkpt>
      <trkpt lat="42.727275" lon="0.244058">
        <ele>2090.0</ele>
        <time>2020-07-05T13:09:45Z</time>
      </trkpt>
      <trkpt lat="42.727345" lon="0.244126">
        <ele>2086.9</ele>
        <time>2020-07-05T13:09:58Z</time>
      </trkpt>
      <trkpt lat="42.727393" lon="0.244220">
        <ele>2083.0</ele>
        <time>2020-07-05T13:10:15Z</time>
      </trkpt>
      <trkpt lat="42.727471" lon="0.244273">
        <ele>2081.3</ele>
        <time>2020-07-05T13:10:29Z</time>
      </trkpt>
      <trkpt lat="42.727562" lon="0.244300">
        <ele>2077.6</ele>
        <time>2020-07-05T13:10:40Z</time>
      </trkpt>
      <trkpt lat="42.727654" lon="0.244352">
        <ele>2073.7</ele>
        <time>2020-07-05T13:10:51Z</time>
      </trkpt>
      <trkpt lat="42.727723" lon="0.244435">
        <ele>2071.5</ele>
        <time>2020-07-05T13:11:00Z</time>
      </trkpt>
      <trkpt lat="42.727791" lon="0.244511">
        <ele>2068.2</ele>
        <time>2020-07-05T13:11:09Z</time>
      </trkpt>
      <trkpt lat="42.727860" lon="0.244574">
        <ele>2064.3</ele>
        <time>2020-07-05T13:11:19Z</time>
      </trkpt>
      <trkpt lat="42.727939" lon="0.244612">
        <ele>2060.2</ele>
        <time>2020-07-05T13:11:30Z</time>
      </trkpt>
      <trkpt lat="42.728029" lon="0.244612">
        <ele>2056.4</ele>
        <time>2020-07-05T13:11:38Z</time>
      </trkpt>
      <trkpt lat="42.728109" lon="0.244652">
        <ele>2054.6</ele>
        <time>2020-07-05T13:11:47Z</time>
      </trkpt>
      <trkpt lat="42.728202" lon="0.244636">
        <ele>2052.8</ele>
        <time>2020-07-05T13:11:57Z</time>
      </trkpt>
      <trkpt lat="42.728299" lon="0.244591">
        <ele>2050.1</ele>
        <time>2020-07-05T13:12:06Z</time>
      </trkpt>
      <trkpt lat="42.728397" lon="0.244578">
        <ele>2048.5</ele>
        <time>2020-07-05T13:12:14Z</time>
      </trkpt>
      <trkpt lat="42.728489" lon="0.244551">
        <ele>2047.6</ele>
        <time>2020-07-05T13:12:22Z</time>
      </trkpt>
      <trkpt lat="42.728581" lon="0.244613">
        <ele>2045.7</ele>
        <time>2020-07-05T13:12:31Z</time>
      </trkpt>
      <trkpt lat="42.728668" lon="0.244674">
        <ele>2043.6</ele>
        <time>2020-07-05T13:12:39Z</time>
      </trkpt>
      <trkpt lat="42.728744" lon="0.244764">
        <ele>2042.7</ele>
        <time>2020-07-05T13:12:48Z</time>
      </trkpt>
      <trkpt lat="42.728812" lon="0.244854">
        <ele>2041.1</ele>
        <time>2020-07-05T13:12:56Z</time>
      </trkpt>
      <trkpt lat="42.728889" lon="0.244930">
        <ele>2039.5</ele>
        <time>2020-07-05T13:13:05Z</time>
      </trkpt>
      <trkpt lat="42.728958" lon="0.245002">
        <ele>2037.6</ele>
        <time>2020-07-05T13:13:14Z</time>
      </trkpt>
      <trkpt lat="42.729045" lon="0.245053">
        <ele>2035.6</ele>
        <time>2020-07-05T13:13:23Z</time>
      </trkpt>
      <trkpt lat="42.729129" lon="0.245100">
        <ele>2031.7</ele>
        <time>2020-07-05T13:13:32Z</time>
      </trkpt>
      <trkpt lat="42.729220" lon="0.245117">
        <ele>2028.9</ele>
        <time>2020-07-05T13:13:41Z</time>
      </trkpt>
      <trkpt lat="42.729320" lon="0.245119">
        <ele>2025.3</ele>
        <time>2020-07-05T13:13:50Z</time>
      </trkpt>
      <trkpt lat="42.729410" lon="0.245114">
        <ele>2022.5</ele>
        <time>2020-07-05T13:13:59Z</time>
      </trkpt>
      <trkpt lat="42.729500" lon="0.245082">
        <ele>2019.6</ele>
        <time>2020-07-05T13:14:07Z</time>
      </trkpt>
      <trkpt lat="42.729597" lon="0.245069">
        <ele>2017.9</ele>
        <time>2020-07-05T13:14:15Z</time>
      </trkpt>
      <trkpt lat="42.729691" lon="0.245025">
        <ele>2015.9</ele>
        <time>2020-07-05T13:14:23Z</time>
      </trkpt>
      <trkpt lat="42.729786" lon="0.245000">
        <ele>2014.1</ele>
        <time>2020-07-05T13:14:32Z</time>
      </trkpt>
      <trkpt lat="42.729869" lon="0.244935">
        <ele>2011.9</ele>
        <time>2020-07-05T13:14:41Z</time>
      </trkpt>
      <trkpt lat="42.729944" lon="0.244865">
        <ele>2008.9</ele>
        <time>2020-07-05T13:14:50Z</time>
      </trkpt>
      <trkpt lat="42.730009" lon="0.244777">
        <ele>2007.0</ele>
        <time>2020-07-05T13:14:58Z</time>
      </trkpt>
      <trkpt lat="42.730060" lon="0.244676">
        <ele>2006.2</ele>
        <time>2020-07-05T13:15:06Z</time>
      </trkpt>
      <trkpt lat="42.730147" lon="0.244611">
        <ele>2006.2</ele>
        <time>2020-07-05T13:15:15Z</time>
      </trkpt>
      <trkpt lat="42.730238" lon="0.244563">
        <ele>2006.2</ele>
        <time>2020-07-05T13:15:23Z</time>
      </trkpt>
      <trkpt lat="42.730313" lon="0.244507">
        <ele>2006.0</ele>
        <time>2020-07-05T13:15:40Z</time>
      </trkpt>
      <trkpt lat="42.730368" lon="0.244602">
        <ele>2006.6</ele>
        <time>2020-07-05T13:17:10Z</time>
      </trkpt>
      <trkpt lat="42.730406" lon="0.244717">
        <ele>2002.2</ele>
        <time>2020-07-05T13:17:21Z</time>
      </trkpt>
      <trkpt lat="42.730439" lon="0.244834">
        <ele>1998.4</ele>
        <time>2020-07-05T13:17:32Z</time>
      </trkpt>
      <trkpt lat="42.730502" lon="0.244923">
        <ele>1995.7</ele>
        <time>2020-07-05T13:17:42Z</time>
      </trkpt>
      <trkpt lat="42.730465" lon="0.244999">
        <ele>1992.9</ele>
        <time>2020-07-05T13:17:53Z</time>
      </trkpt>
      <trkpt lat="42.730408" lon="0.245078">
        <ele>1989.8</ele>
        <time>2020-07-05T13:18:03Z</time>
      </trkpt>
      <trkpt lat="42.730421" lon="0.245201">
        <ele>1986.2</ele>
        <time>2020-07-05T13:18:15Z</time>
      </trkpt>
      <trkpt lat="42.730497" lon="0.245270">
        <ele>1983.6</ele>
        <time>2020-07-05T13:18:25Z</time>
      </trkpt>
      <trkpt lat="42.730580" lon="0.245317">
        <ele>1980.7</ele>
        <time>2020-07-05T13:18:36Z</time>
      </trkpt>
      <trkpt lat="42.730663" lon="0.245313">
        <ele>1976.6</ele>
        <time>2020-07-05T13:18:51Z</time>
      </trkpt>
      <trkpt lat="42.730734" lon="0.245385">
        <ele>1972.4</ele>
        <time>2020-07-05T13:19:04Z</time>
      </trkpt>
      <trkpt lat="42.730813" lon="0.245403">
        <ele>1965.9</ele>
        <time>2020-07-05T13:19:20Z</time>
      </trkpt>
      <trkpt lat="42.730888" lon="0.245378">
        <ele>1962.1</ele>
        <time>2020-07-05T13:19:36Z</time>
      </trkpt>
      <trkpt lat="42.730949" lon="0.245384">
        <ele>1955.8</ele>
        <time>2020-07-05T13:19:55Z</time>
      </trkpt>
      <trkpt lat="42.731003" lon="0.245481">
        <ele>1950.9</ele>
        <time>2020-07-05T13:20:06Z</time>
      </trkpt>
      <trkpt lat="42.731075" lon="0.245556">
        <ele>1946.6</ele>
        <time>2020-07-05T13:20:18Z</time>
      </trkpt>
      <trkpt lat="42.731142" lon="0.245638">
        <ele>1943.5</ele>
        <time>2020-07-05T13:20:29Z</time>
      </trkpt>
      <trkpt lat="42.731163" lon="0.245756">
        <ele>1939.3</ele>
        <time>2020-07-05T13:20:40Z</time>
      </trkpt>
      <trkpt lat="42.731197" lon="0.245892">
        <ele>1934.5</ele>
        <time>2020-07-05T13:20:53Z</time>
      </trkpt>
      <trkpt lat="42.731254" lon="0.245984">
        <ele>1930.7</ele>
        <time>2020-07-05T13:21:05Z</time>
      </trkpt>
      <trkpt lat="42.731336" lon="0.246075">
        <ele>1927.2</ele>
        <time>2020-07-05T13:21:17Z</time>
      </trkpt>
      <trkpt lat="42.731429" lon="0.246086">
        <ele>1922.3</ele>
        <time>2020-07-05T13:21:30Z</time>
      </trkpt>
      <trkpt lat="42.731524" lon="0.246088">
        <ele>1918.5</ele>
        <time>2020-07-05T13:21:44Z</time>
      </trkpt>
      <trkpt lat="42.731599" lon="0.246036">
        <ele>1916.5</ele>
        <time>2020-07-05T13:21:53Z</time>
      </trkpt>
      <trkpt lat="42.731597" lon="0.245917">
        <ele>1915.3</ele>
        <time>2020-07-05T13:22:41Z</time>
      </trkpt>
      <trkpt lat="42.731586" lon="0.245806">
        <ele>1913.2</ele>
        <time>2020-07-05T13:22:52Z</time>
      </trkpt>
      <trkpt lat="42.731637" lon="0.245708">
        <ele>1909.5</ele>
        <time>2020-07-05T13:23:05Z</time>
      </trkpt>
      <trkpt lat="42.731738" lon="0.245678">
        <ele>1905.2</ele>
        <time>2020-07-05T13:23:19Z</time>
      </trkpt>
      <trkpt lat="42.731781" lon="0.245728">
        <ele>1900.1</ele>
        <time>2020-07-05T13:23:33Z</time>
      </trkpt>
      <trkpt lat="42.731816" lon="0.245809">
        <ele>1894.8</ele>
        <time>2020-07-05T13:23:51Z</time>
      </trkpt>
      <trkpt lat="42.731893" lon="0.245772">
        <ele>1890.7</ele>
        <time>2020-07-05T13:24:03Z</time>
      </trkpt>
      <trkpt lat="42.731985" lon="0.245763">
        <ele>1885.1</ele>
        <time>2020-07-05T13:24:21Z</time>
      </trkpt>
      <trkpt lat="42.732078" lon="0.245735">
        <ele>1880.1</ele>
        <time>2020-07-05T13:24:36Z</time>
      </trkpt>
      <trkpt lat="42.732153" lon="0.245761">
        <ele>1875.7</ele>
        <time>2020-07-05T13:25:21Z</time>
      </trkpt>
      <trkpt lat="42.732184" lon="0.245888">
        <ele>1870.1</ele>
        <time>2020-07-05T13:25:37Z</time>
      </trkpt>
      <trkpt lat="42.732228" lon="0.245893">
        <ele>1865.3</ele>
        <time>2020-07-05T13:25:54Z</time>
      </trkpt>
      <trkpt lat="42.732290" lon="0.245984">
        <ele>1859.5</ele>
        <time>2020-07-05T13:26:14Z</time>
      </trkpt>
      <trkpt lat="42.732330" lon="0.246072">
        <ele>1856.2</ele>
        <time>2020-07-05T13:26:29Z</time>
      </trkpt>
      <trkpt lat="42.732427" lon="0.246042">
        <ele>1850.3</ele>
        <time>2020-07-05T13:26:44Z</time>
      </trkpt>
      <trkpt lat="42.732503" lon="0.245972">
        <ele>1847.3</ele>
        <time>2020-07-05T13:26:58Z</time>
      </trkpt>
      <trkpt lat="42.732573" lon="0.246045">
        <ele>1843.2</ele>
        <time>2020-07-05T13:27:11Z</time>
      </trkpt>
      <trkpt lat="42.732631" lon="0.246142">
        <ele>1839.4</ele>
        <time>2020-07-05T13:27:24Z</time>
      </trkpt>
      <trkpt lat="42.732644" lon="0.246267">
        <ele>1833.9</ele>
        <time>2020-07-05T13:27:42Z</time>
      </trkpt>
      <trkpt lat="42.732683" lon="0.246388">
        <ele>1829.4</ele>
        <time>2020-07-05T13:27:58Z</time>
      </trkpt>
      <trkpt lat="42.732771" lon="0.246349">
        <ele>1825.4</ele>
        <time>2020-07-05T13:28:12Z</time>
      </trkpt>
      <trkpt lat="42.732848" lon="0.246284">
        <ele>1821.2</ele>
        <time>2020-07-05T13:28:23Z</time>
      </trkpt>
      <trkpt lat="42.732937" lon="0.246259">
        <ele>1817.0</ele>
        <time>2020-07-05T13:28:34Z</time>
      </trkpt>
      <trkpt lat="42.733001" lon="0.246228">
        <ele>1812.6</ele>
        <time>2020-07-05T13:28:51Z</time>
      </trkpt>
      <trkpt lat="42.733093" lon="0.246204">
        <ele>1809.1</ele>
        <time>2020-07-05T13:29:06Z</time>
      </trkpt>
      <trkpt lat="42.733193" lon="0.246152">
        <ele>1805.0</ele>
        <time>2020-07-05T13:29:16Z</time>
      </trkpt>
      <trkpt lat="42.733271" lon="0.246109">
        <ele>1801.1</ele>
        <time>2020-07-05T13:29:25Z</time>
      </trkpt>
      <trkpt lat="42.733367" lon="0.246104">
        <ele>1796.8</ele>
        <time>2020-07-05T13:29:35Z</time>
      </trkpt>
      <trkpt lat="42.733465" lon="0.246099">
        <ele>1793.9</ele>
        <time>2020-07-05T13:29:45Z</time>
      </trkpt>
      <trkpt lat="42.733556" lon="0.246090">
        <ele>1790.1</ele>
        <time>2020-07-05T13:29:57Z</time>
      </trkpt>
      <trkpt lat="42.733636" lon="0.246044">
        <ele>1785.6</ele>
        <time>2020-07-05T13:30:10Z</time>
      </trkpt>
      <trkpt lat="42.733720" lon="0.245996">
        <ele>1781.9</ele>
        <time>2020-07-05T13:30:37Z</time>
      </trkpt>
      <trkpt lat="42.733798" lon="0.245991">
        <ele>1779.0</ele>
        <time>2020-07-05T13:30:48Z</time>
      </trkpt>
      <trkpt lat="42.733887" lon="0.246000">
        <ele>1777.2</ele>
        <time>2020-07-05T13:30:57Z</time>
      </trkpt>
      <trkpt lat="42.733983" lon="0.246005">
        <ele>1773.6</ele>
        <time>2020-07-05T13:31:07Z</time>
      </trkpt>
      <trkpt lat="42.734057" lon="0.246041">
        <ele>1770.3</ele>
        <time>2020-07-05T13:31:19Z</time>
      </trkpt>
      <trkpt lat="42.734132" lon="0.246090">
        <ele>1767.0</ele>
        <time>2020-07-05T13:31:34Z</time>
      </trkpt>
      <trkpt lat="42.734180" lon="0.246183">
        <ele>1762.2</ele>
        <time>2020-07-05T13:31:50Z</time>
      </trkpt>
      <trkpt lat="42.734224" lon="0.246285">
        <ele>1759.2</ele>
        <time>2020-07-05T13:32:01Z</time>
      </trkpt>
      <trkpt lat="42.734334" lon="0.246278">
        <ele>1756.6</ele>
        <time>2020-07-05T13:32:11Z</time>
      </trkpt>
      <trkpt lat="42.734411" lon="0.246278">
        <ele>1753.7</ele>
        <time>2020-07-05T13:32:19Z</time>
      </trkpt>
      <trkpt lat="42.734449" lon="0.246355">
        <ele>1749.5</ele>
        <time>2020-07-05T13:32:33Z</time>
      </trkpt>
      <trkpt lat="42.734452" lon="0.246462">
        <ele>1745.5</ele>
        <time>2020-07-05T13:32:47Z</time>
      </trkpt>
      <trkpt lat="42.734486" lon="0.246540">
        <ele>1740.8</ele>
        <time>2020-07-05T13:33:00Z</time>
      </trkpt>
      <trkpt lat="42.734396" lon="0.246656">
        <ele>1736.2</ele>
        <time>2020-07-05T13:33:14Z</time>
      </trkpt>
      <trkpt lat="42.734410" lon="0.246757">
        <ele>1732.4</ele>
        <time>2020-07-05T13:33:25Z</time>
      </trkpt>
      <trkpt lat="42.734483" lon="0.246844">
        <ele>1729.7</ele>
        <time>2020-07-05T13:33:34Z</time>
      </trkpt>
      <trkpt lat="42.734549" lon="0.246927">
        <ele>1725.8</ele>
        <time>2020-07-05T13:33:44Z</time>
      </trkpt>
      <trkpt lat="42.734605" lon="0.247008">
        <ele>1722.8</ele>
        <time>2020-07-05T13:33:54Z</time>
      </trkpt>
      <trkpt lat="42.734619" lon="0.247132">
        <ele>1720.1</ele>
        <time>2020-07-05T13:34:03Z</time>
      </trkpt>
      <trkpt lat="42.734668" lon="0.247233">
        <ele>1717.7</ele>
        <time>2020-07-05T13:34:13Z</time>
      </trkpt>
      <trkpt lat="42.734748" lon="0.247292">
        <ele>1714.8</ele>
        <time>2020-07-05T13:34:23Z</time>
      </trkpt>
      <trkpt lat="42.734785" lon="0.247394">
        <ele>1712.1</ele>
        <time>2020-07-05T13:34:34Z</time>
      </trkpt>
      <trkpt lat="42.734812" lon="0.247518">
        <ele>1708.2</ele>
        <time>2020-07-05T13:34:45Z</time>
      </trkpt>
      <trkpt lat="42.734896" lon="0.247641">
        <ele>1704.2</ele>
        <time>2020-07-05T13:34:57Z</time>
      </trkpt>
      <trkpt lat="42.734962" lon="0.247717">
        <ele>1700.4</ele>
        <time>2020-07-05T13:35:08Z</time>
      </trkpt>
      <trkpt lat="42.735037" lon="0.247808">
        <ele>1697.8</ele>
        <time>2020-07-05T13:35:18Z</time>
      </trkpt>
      <trkpt lat="42.735118" lon="0.247808">
        <ele>1693.7</ele>
        <time>2020-07-05T13:35:27Z</time>
      </trkpt>
      <trkpt lat="42.735184" lon="0.247909">
        <ele>1691.2</ele>
        <time>2020-07-05T13:35:35Z</time>
      </trkpt>
      <trkpt lat="42.735275" lon="0.247967">
        <ele>1689.3</ele>
        <time>2020-07-05T13:35:43Z</time>
      </trkpt>
      <trkpt lat="42.735352" lon="0.247995">
        <ele>1686.6</ele>
        <time>2020-07-05T13:35:51Z</time>
      </trkpt>
      <trkpt lat="42.735443" lon="0.247983">
        <ele>1684.8</ele>
        <time>2020-07-05T13:35:59Z</time>
      </trkpt>
      <trkpt lat="42.735530" lon="0.247983">
        <ele>1683.1</ele>
        <time>2020-07-05T13:36:06Z</time>
      </trkpt>
      <trkpt lat="42.735615" lon="0.247953">
        <ele>1681.4</ele>
        <time>2020-07-05T13:36:14Z</time>
      </trkpt>
      <trkpt lat="42.735716" lon="0.247930">
        <ele>1679.7</ele>
        <time>2020-07-05T13:36:22Z</time>
      </trkpt>
      <trkpt lat="42.735801" lon="0.247855">
        <ele>1677.9</ele>
        <time>2020-07-05T13:36:31Z</time>
      </trkpt>
      <trkpt lat="42.735874" lon="0.247785">
        <ele>1676.2</ele>
        <time>2020-07-05T13:36:39Z</time>
      </trkpt>
      <trkpt lat="42.735943" lon="0.247714">
        <ele>1674.2</ele>
        <time>2020-07-05T13:36:48Z</time>
      </trkpt>
      <trkpt lat="42.736005" lon="0.247607">
        <ele>1672.6</ele>
        <time>2020-07-05T13:36:57Z</time>
      </trkpt>
      <trkpt lat="42.736072" lon="0.247505">
        <ele>1671.6</ele>
        <time>2020-07-05T13:37:05Z</time>
      </trkpt>
      <trkpt lat="42.736166" lon="0.247421">
        <ele>1669.4</ele>
        <time>2020-07-05T13:37:14Z</time>
      </trkpt>
      <trkpt lat="42.736261" lon="0.247433">
        <ele>1666.0</ele>
        <time>2020-07-05T13:37:24Z</time>
      </trkpt>
      <trkpt lat="42.736356" lon="0.247475">
        <ele>1663.7</ele>
        <time>2020-07-05T13:37:31Z</time>
      </trkpt>
      <trkpt lat="42.736439" lon="0.247528">
        <ele>1660.8</ele>
        <time>2020-07-05T13:37:38Z</time>
      </trkpt>
      <trkpt lat="42.736529" lon="0.247550">
        <ele>1656.2</ele>
        <time>2020-07-05T13:37:47Z</time>
      </trkpt>
      <trkpt lat="42.736599" lon="0.247535">
        <ele>1656.1</ele>
        <time>2020-07-05T13:37:54Z</time>
      </trkpt>
      <trkpt lat="42.736675" lon="0.247551">
        <ele>1655.9</ele>
        <time>2020-07-05T13:38:01Z</time>
      </trkpt>
      <trkpt lat="42.736770" lon="0.247550">
        <ele>1655.0</ele>
        <time>2020-07-05T13:38:07Z</time>
      </trkpt>
      <trkpt lat="42.736884" lon="0.247584">
        <ele>1654.0</ele>
        <time>2020-07-05T13:38:14Z</time>
      </trkpt>
      <trkpt lat="42.736987" lon="0.247582">
        <ele>1652.3</ele>
        <time>2020-07-05T13:38:21Z</time>
      </trkpt>
      <trkpt lat="42.737086" lon="0.247558">
        <ele>1651.3</ele>
        <time>2020-07-05T13:38:29Z</time>
      </trkpt>
      <trkpt lat="42.737178" lon="0.247520">
        <ele>1650.3</ele>
        <time>2020-07-05T13:38:37Z</time>
      </trkpt>
      <trkpt lat="42.737275" lon="0.247431">
        <ele>1650.1</ele>
        <time>2020-07-05T13:38:50Z</time>
      </trkpt>
      <trkpt lat="42.737398" lon="0.247439">
        <ele>1649.9</ele>
        <time>2020-07-05T13:38:59Z</time>
      </trkpt>
      <trkpt lat="42.737469" lon="0.247469">
        <ele>1649.7</ele>
        <time>2020-07-05T13:39:05Z</time>
      </trkpt>
      <trkpt lat="42.737578" lon="0.247468">
        <ele>1648.7</ele>
        <time>2020-07-05T13:39:12Z</time>
      </trkpt>
      <trkpt lat="42.737678" lon="0.247488">
        <ele>1648.6</ele>
        <time>2020-07-05T13:39:20Z</time>
      </trkpt>
      <trkpt lat="42.737773" lon="0.247513">
        <ele>1648.5</ele>
        <time>2020-07-05T13:39:28Z</time>
      </trkpt>
      <trkpt lat="42.737872" lon="0.247515">
        <ele>1647.6</ele>
        <time>2020-07-05T13:39:37Z</time>
      </trkpt>
      <trkpt lat="42.737964" lon="0.247492">
        <ele>1645.5</ele>
        <time>2020-07-05T13:39:46Z</time>
      </trkpt>
      <trkpt lat="42.738053" lon="0.247453">
        <ele>1643.4</ele>
        <time>2020-07-05T13:39:54Z</time>
      </trkpt>
      <trkpt lat="42.738138" lon="0.247379">
        <ele>1640.3</ele>
        <time>2020-07-05T13:40:01Z</time>
      </trkpt>
      <trkpt lat="42.738232" lon="0.247329">
        <ele>1638.2</ele>
        <time>2020-07-05T13:40:08Z</time>
      </trkpt>
      <trkpt lat="42.738302" lon="0.247271">
        <ele>1637.3</ele>
        <time>2020-07-05T13:40:14Z</time>
      </trkpt>
      <trkpt lat="42.738387" lon="0.247226">
        <ele>1635.6</ele>
        <time>2020-07-05T13:40:21Z</time>
      </trkpt>
      <trkpt lat="42.738481" lon="0.247177">
        <ele>1635.5</ele>
        <time>2020-07-05T13:40:29Z</time>
      </trkpt>
      <trkpt lat="42.738583" lon="0.247153">
        <ele>1633.6</ele>
        <time>2020-07-05T13:40:36Z</time>
      </trkpt>
      <trkpt lat="42.738688" lon="0.247107">
        <ele>1633.5</ele>
        <time>2020-07-05T13:40:44Z</time>
      </trkpt>
      <trkpt lat="42.738795" lon="0.247050">
        <ele>1631.7</ele>
        <time>2020-07-05T13:40:51Z</time>
      </trkpt>
      <trkpt lat="42.738877" lon="0.246966">
        <ele>1629.7</ele>
        <time>2020-07-05T13:40:59Z</time>
      </trkpt>
      <trkpt lat="42.738964" lon="0.246907">
        <ele>1628.7</ele>
        <time>2020-07-05T13:41:06Z</time>
      </trkpt>
      <trkpt lat="42.739073" lon="0.246912">
        <ele>1627.7</ele>
        <time>2020-07-05T13:41:13Z</time>
      </trkpt>
      <trkpt lat="42.739159" lon="0.246862">
        <ele>1626.7</ele>
        <time>2020-07-05T13:41:20Z</time>
      </trkpt>
      <trkpt lat="42.739257" lon="0.246821">
        <ele>1626.6</ele>
        <time>2020-07-05T13:41:28Z</time>
      </trkpt>
      <trkpt lat="42.739359" lon="0.246781">
        <ele>1624.9</ele>
        <time>2020-07-05T13:41:36Z</time>
      </trkpt>
      <trkpt lat="42.739446" lon="0.246720">
        <ele>1623.8</ele>
        <time>2020-07-05T13:41:43Z</time>
      </trkpt>
      <trkpt lat="42.739526" lon="0.246637">
        <ele>1622.8</ele>
        <time>2020-07-05T13:41:59Z</time>
      </trkpt>
      <trkpt lat="42.739595" lon="0.246540">
        <ele>1620.9</ele>
        <time>2020-07-05T13:42:09Z</time>
      </trkpt>
      <trkpt lat="42.739668" lon="0.246425">
        <ele>1619.2</ele>
        <time>2020-07-05T13:42:18Z</time>
      </trkpt>
      <trkpt lat="42.739733" lon="0.246328">
        <ele>1618.3</ele>
        <time>2020-07-05T13:42:26Z</time>
      </trkpt>
      <trkpt lat="42.739800" lon="0.246227">
        <ele>1617.3</ele>
        <time>2020-07-05T13:42:33Z</time>
      </trkpt>
      <trkpt lat="42.739885" lon="0.246123">
        <ele>1616.3</ele>
        <time>2020-07-05T13:42:42Z</time>
      </trkpt>
      <trkpt lat="42.739966" lon="0.246019">
        <ele>1615.4</ele>
        <time>2020-07-05T13:42:51Z</time>
      </trkpt>
      <trkpt lat="42.740044" lon="0.245958">
        <ele>1614.1</ele>
        <time>2020-07-05T13:42:59Z</time>
      </trkpt>
      <trkpt lat="42.740060" lon="0.245905">
        <ele>1612.3</ele>
        <time>2020-07-05T13:43:20Z</time>
      </trkpt>
      <trkpt lat="42.740138" lon="0.245800">
        <ele>1610.2</ele>
        <time>2020-07-05T13:43:30Z</time>
      </trkpt>
      <trkpt lat="42.740231" lon="0.245744">
        <ele>1608.7</ele>
        <time>2020-07-05T13:43:39Z</time>
      </trkpt>
      <trkpt lat="42.740335" lon="0.245709">
        <ele>1607.8</ele>
        <time>2020-07-05T13:43:48Z</time>
      </trkpt>
      <trkpt lat="42.740420" lon="0.245655">
        <ele>1606.0</ele>
        <time>2020-07-05T13:43:55Z</time>
      </trkpt>
      <trkpt lat="42.740495" lon="0.245568">
        <ele>1604.2</ele>
        <time>2020-07-05T13:44:02Z</time>
      </trkpt>
      <trkpt lat="42.740570" lon="0.245480">
        <ele>1603.2</ele>
        <time>2020-07-05T13:44:10Z</time>
      </trkpt>
      <trkpt lat="42.740628" lon="0.245361">
        <ele>1603.2</ele>
        <time>2020-07-05T13:44:18Z</time>
      </trkpt>
      <trkpt lat="42.740675" lon="0.245219">
        <ele>1603.1</ele>
        <time>2020-07-05T13:44:30Z</time>
      </trkpt>
      <trkpt lat="42.740761" lon="0.245113">
        <ele>1601.2</ele>
        <time>2020-07-05T13:44:39Z</time>
      </trkpt>
      <trkpt lat="42.740844" lon="0.245046">
        <ele>1599.2</ele>
        <time>2020-07-05T13:44:47Z</time>
      </trkpt>
      <trkpt lat="42.740919" lon="0.244972">
        <ele>1599.2</ele>
        <time>2020-07-05T13:44:55Z</time>
      </trkpt>
      <trkpt lat="42.740995" lon="0.244874">
        <ele>1598.5</ele>
        <time>2020-07-05T13:45:03Z</time>
      </trkpt>
      <trkpt lat="42.741069" lon="0.244772">
        <ele>1598.4</ele>
        <time>2020-07-05T13:45:11Z</time>
      </trkpt>
      <trkpt lat="42.741160" lon="0.244704">
        <ele>1597.3</ele>
        <time>2020-07-05T13:45:18Z</time>
      </trkpt>
      <trkpt lat="42.741231" lon="0.244616">
        <ele>1596.4</ele>
        <time>2020-07-05T13:45:25Z</time>
      </trkpt>
      <trkpt lat="42.741322" lon="0.244532">
        <ele>1595.5</ele>
        <time>2020-07-05T13:45:33Z</time>
      </trkpt>
      <trkpt lat="42.741398" lon="0.244434">
        <ele>1593.8</ele>
        <time>2020-07-05T13:45:41Z</time>
      </trkpt>
      <trkpt lat="42.741455" lon="0.244327">
        <ele>1593.0</ele>
        <time>2020-07-05T13:45:48Z</time>
      </trkpt>
      <trkpt lat="42.741501" lon="0.244205">
        <ele>1591.3</ele>
        <time>2020-07-05T13:45:56Z</time>
      </trkpt>
      <trkpt lat="42.741537" lon="0.244090">
        <ele>1591.5</ele>
        <time>2020-07-05T13:46:12Z</time>
      </trkpt>
      <trkpt lat="42.741607" lon="0.243977">
        <ele>1593.8</ele>
        <time>2020-07-05T13:46:21Z</time>
      </trkpt>
      <trkpt lat="42.741674" lon="0.243860">
        <ele>1593.7</ele>
        <time>2020-07-05T13:46:30Z</time>
      </trkpt>
      <trkpt lat="42.741731" lon="0.243754">
        <ele>1593.6</ele>
        <time>2020-07-05T13:46:38Z</time>
      </trkpt>
      <trkpt lat="42.741796" lon="0.243663">
        <ele>1593.6</ele>
        <time>2020-07-05T13:46:46Z</time>
      </trkpt>
      <trkpt lat="42.741838" lon="0.243541">
        <ele>1591.1</ele>
        <time>2020-07-05T13:46:55Z</time>
      </trkpt>
      <trkpt lat="42.741896" lon="0.243431">
        <ele>1590.0</ele>
        <time>2020-07-05T13:47:06Z</time>
      </trkpt>
      <trkpt lat="42.741966" lon="0.243336">
        <ele>1589.1</ele>
        <time>2020-07-05T13:47:14Z</time>
      </trkpt>
      <trkpt lat="42.742024" lon="0.243245">
        <ele>1588.2</ele>
        <time>2020-07-05T13:47:29Z</time>
      </trkpt>
      <trkpt lat="42.742036" lon="0.243238">
        <ele>1606.4</ele>
        <time>2020-07-05T13:48:19Z</time>
      </trkpt>
      <trkpt lat="42.742047" lon="0.243244">
        <ele>1587.0</ele>
        <time>2020-07-05T13:49:38Z</time>
      </trkpt>
      <trkpt lat="42.742118" lon="0.243140">
        <ele>1587.5</ele>
        <time>2020-07-05T13:53:14Z</time>
      </trkpt>
      <trkpt lat="42.742186" lon="0.243074">
        <ele>1586.6</ele>
        <time>2020-07-05T13:53:21Z</time>
      </trkpt>
      <trkpt lat="42.742273" lon="0.243028">
        <ele>1585.7</ele>
        <time>2020-07-05T13:53:32Z</time>
      </trkpt>
      <trkpt lat="42.742363" lon="0.242995">
        <ele>1584.9</ele>
        <time>2020-07-05T13:53:40Z</time>
      </trkpt>
      <trkpt lat="42.742463" lon="0.242987">
        <ele>1584.9</ele>
        <time>2020-07-05T13:53:48Z</time>
      </trkpt>
      <trkpt lat="42.742552" lon="0.242988">
        <ele>1585.0</ele>
        <time>2020-07-05T13:53:55Z</time>
      </trkpt>
      <trkpt lat="42.742632" lon="0.242947">
        <ele>1585.0</ele>
        <time>2020-07-05T13:54:03Z</time>
      </trkpt>
      <trkpt lat="42.742718" lon="0.242866">
        <ele>1583.2</ele>
        <time>2020-07-05T13:54:11Z</time>
      </trkpt>
      <trkpt lat="42.742783" lon="0.242775">
        <ele>1581.2</ele>
        <time>2020-07-05T13:54:18Z</time>
      </trkpt>
      <trkpt lat="42.742843" lon="0.242657">
        <ele>1580.1</ele>
        <time>2020-07-05T13:54:26Z</time>
      </trkpt>
      <trkpt lat="42.742911" lon="0.242539">
        <ele>1578.3</ele>
        <time>2020-07-05T13:54:34Z</time>
      </trkpt>
      <trkpt lat="42.742978" lon="0.242427">
        <ele>1577.4</ele>
        <time>2020-07-05T13:54:42Z</time>
      </trkpt>
      <trkpt lat="42.743050" lon="0.242331">
        <ele>1576.5</ele>
        <time>2020-07-05T13:54:50Z</time>
      </trkpt>
      <trkpt lat="42.743126" lon="0.242254">
        <ele>1574.8</ele>
        <time>2020-07-05T13:54:58Z</time>
      </trkpt>
      <trkpt lat="42.743202" lon="0.242201">
        <ele>1574.1</ele>
        <time>2020-07-05T13:55:26Z</time>
      </trkpt>
      <trkpt lat="42.743269" lon="0.242117">
        <ele>1571.5</ele>
        <time>2020-07-05T13:55:58Z</time>
      </trkpt>
      <trkpt lat="42.743348" lon="0.242031">
        <ele>1569.8</ele>
        <time>2020-07-05T13:56:09Z</time>
      </trkpt>
      <trkpt lat="42.743406" lon="0.241931">
        <ele>1568.8</ele>
        <time>2020-07-05T13:56:21Z</time>
      </trkpt>
      <trkpt lat="42.743465" lon="0.241822">
        <ele>1566.1</ele>
        <time>2020-07-05T13:56:31Z</time>
      </trkpt>
      <trkpt lat="42.743560" lon="0.241774">
        <ele>1563.1</ele>
        <time>2020-07-05T13:56:40Z</time>
      </trkpt>
      <trkpt lat="42.743639" lon="0.241706">
        <ele>1561.3</ele>
        <time>2020-07-05T13:56:48Z</time>
      </trkpt>
      <trkpt lat="42.743716" lon="0.241627">
        <ele>1559.5</ele>
        <time>2020-07-05T13:56:56Z</time>
      </trkpt>
      <trkpt lat="42.743796" lon="0.241541">
        <ele>1557.0</ele>
        <time>2020-07-05T13:57:11Z</time>
      </trkpt>
      <trkpt lat="42.743858" lon="0.241432">
        <ele>1556.2</ele>
        <time>2020-07-05T13:57:18Z</time>
      </trkpt>
      <trkpt lat="42.743917" lon="0.241333">
        <ele>1555.5</ele>
        <time>2020-07-05T13:57:38Z</time>
      </trkpt>
      <trkpt lat="42.743987" lon="0.241250">
        <ele>1554.6</ele>
        <time>2020-07-05T13:57:45Z</time>
      </trkpt>
      <trkpt lat="42.744065" lon="0.241167">
        <ele>1552.3</ele>
        <time>2020-07-05T13:57:52Z</time>
      </trkpt>
      <trkpt lat="42.744135" lon="0.241065">
        <ele>1551.4</ele>
        <time>2020-07-05T13:58:01Z</time>
      </trkpt>
      <trkpt lat="42.744228" lon="0.241010">
        <ele>1550.1</ele>
        <time>2020-07-05T13:58:10Z</time>
      </trkpt>
      <trkpt lat="42.744324" lon="0.240987">
        <ele>1548.9</ele>
        <time>2020-07-05T13:58:19Z</time>
      </trkpt>
      <trkpt lat="42.744422" lon="0.240955">
        <ele>1548.0</ele>
        <time>2020-07-05T13:58:26Z</time>
      </trkpt>
      <trkpt lat="42.744497" lon="0.240886">
        <ele>1548.0</ele>
        <time>2020-07-05T13:58:38Z</time>
      </trkpt>
      <trkpt lat="42.744585" lon="0.240858">
        <ele>1548.0</ele>
        <time>2020-07-05T13:58:46Z</time>
      </trkpt>
      <trkpt lat="42.744667" lon="0.240846">
        <ele>1548.0</ele>
        <time>2020-07-05T13:58:56Z</time>
      </trkpt>
      <trkpt lat="42.744739" lon="0.240823">
        <ele>1547.9</ele>
        <time>2020-07-05T13:59:16Z</time>
      </trkpt>
      <trkpt lat="42.744836" lon="0.240786">
        <ele>1547.9</ele>
        <time>2020-07-05T13:59:27Z</time>
      </trkpt>
      <trkpt lat="42.744925" lon="0.240761">
        <ele>1547.9</ele>
        <time>2020-07-05T13:59:36Z</time>
      </trkpt>
      <trkpt lat="42.745015" lon="0.240743">
        <ele>1547.1</ele>
        <time>2020-07-05T13:59:46Z</time>
      </trkpt>
      <trkpt lat="42.745025" lon="0.240772">
        <ele>1545.6</ele>
        <time>2020-07-05T14:00:38Z</time>
      </trkpt>
      <trkpt lat="42.745058" lon="0.240688">
        <ele>1545.6</ele>
        <time>2020-07-05T14:01:10Z</time>
      </trkpt>
      <trkpt lat="42.745007" lon="0.240596">
        <ele>1545.5</ele>
        <time>2020-07-05T14:01:27Z</time>
      </trkpt>
      <trkpt lat="42.744977" lon="0.240576">
        <ele>1545.5</ele>
        <time>2020-07-05T14:01:54Z</time>
      </trkpt>
      <trkpt lat="42.744973" lon="0.240484">
        <ele>1545.4</ele>
        <time>2020-07-05T14:02:12Z</time>
      </trkpt>
      <trkpt lat="42.744931" lon="0.240391">
        <ele>1545.3</ele>
        <time>2020-07-05T14:02:22Z</time>
      </trkpt>
      <trkpt lat="42.744941" lon="0.240261">
        <ele>1544.5</ele>
        <time>2020-07-05T14:02:32Z</time>
      </trkpt>
      <trkpt lat="42.744981" lon="0.240136">
        <ele>1541.6</ele>
        <time>2020-07-05T14:02:41Z</time>
      </trkpt>
      <trkpt lat="42.745053" lon="0.240042">
        <ele>1540.7</ele>
        <time>2020-07-05T14:02:50Z</time>
      </trkpt>
      <trkpt lat="42.745161" lon="0.240020">
        <ele>1539.9</ele>
        <time>2020-07-05T14:02:59Z</time>
      </trkpt>
      <trkpt lat="42.745263" lon="0.240030">
        <ele>1539.8</ele>
        <time>2020-07-05T14:03:07Z</time>
      </trkpt>
      <trkpt lat="42.745364" lon="0.240022">
        <ele>1539.8</ele>
        <time>2020-07-05T14:03:16Z</time>
      </trkpt>
      <trkpt lat="42.745459" lon="0.239998">
        <ele>1539.8</ele>
        <time>2020-07-05T14:03:24Z</time>
      </trkpt>
      <trkpt lat="42.745542" lon="0.239978">
        <ele>1539.7</ele>
        <time>2020-07-05T14:03:40Z</time>
      </trkpt>
      <trkpt lat="42.745640" lon="0.239936">
        <ele>1538.8</ele>
        <time>2020-07-05T14:03:52Z</time>
      </trkpt>
      <trkpt lat="42.745715" lon="0.239860">
        <ele>1538.0</ele>
        <time>2020-07-05T14:03:59Z</time>
      </trkpt>
      <trkpt lat="42.745758" lon="0.239746">
        <ele>1538.0</ele>
        <time>2020-07-05T14:04:07Z</time>
      </trkpt>
      <trkpt lat="42.745784" lon="0.239615">
        <ele>1537.1</ele>
        <time>2020-07-05T14:04:16Z</time>
      </trkpt>
      <trkpt lat="42.745781" lon="0.239480">
        <ele>1535.4</ele>
        <time>2020-07-05T14:04:24Z</time>
      </trkpt>
      <trkpt lat="42.745773" lon="0.239354">
        <ele>1534.6</ele>
        <time>2020-07-05T14:04:32Z</time>
      </trkpt>
      <trkpt lat="42.745819" lon="0.239241">
        <ele>1533.8</ele>
        <time>2020-07-05T14:04:41Z</time>
      </trkpt>
      <trkpt lat="42.745900" lon="0.239191">
        <ele>1532.0</ele>
        <time>2020-07-05T14:05:12Z</time>
      </trkpt>
      <trkpt lat="42.745999" lon="0.239187">
        <ele>1531.9</ele>
        <time>2020-07-05T14:05:21Z</time>
      </trkpt>
      <trkpt lat="42.746096" lon="0.239171">
        <ele>1531.9</ele>
        <time>2020-07-05T14:05:30Z</time>
      </trkpt>
      <trkpt lat="42.746191" lon="0.239164">
        <ele>1531.9</ele>
        <time>2020-07-05T14:05:38Z</time>
      </trkpt>
      <trkpt lat="42.746293" lon="0.239150">
        <ele>1531.9</ele>
        <time>2020-07-05T14:05:46Z</time>
      </trkpt>
      <trkpt lat="42.746398" lon="0.239151">
        <ele>1531.1</ele>
        <time>2020-07-05T14:05:54Z</time>
      </trkpt>
      <trkpt lat="42.746493" lon="0.239158">
        <ele>1531.1</ele>
        <time>2020-07-05T14:06:02Z</time>
      </trkpt>
      <trkpt lat="42.746576" lon="0.239130">
        <ele>1531.1</ele>
        <time>2020-07-05T14:06:12Z</time>
      </trkpt>
      <trkpt lat="42.746637" lon="0.239153">
        <ele>1531.0</ele>
        <time>2020-07-05T14:06:35Z</time>
      </trkpt>
      <trkpt lat="42.746686" lon="0.239240">
        <ele>1531.0</ele>
        <time>2020-07-05T14:06:48Z</time>
      </trkpt>
      <trkpt lat="42.746786" lon="0.239275">
        <ele>1531.0</ele>
        <time>2020-07-05T14:06:58Z</time>
      </trkpt>
      <trkpt lat="42.746882" lon="0.239305">
        <ele>1531.0</ele>
        <time>2020-07-05T14:07:08Z</time>
      </trkpt>
      <trkpt lat="42.746981" lon="0.239327">
        <ele>1531.0</ele>
        <time>2020-07-05T14:07:17Z</time>
      </trkpt>
      <trkpt lat="42.747080" lon="0.239347">
        <ele>1530.9</ele>
        <time>2020-07-05T14:07:26Z</time>
      </trkpt>
      <trkpt lat="42.747093" lon="0.239337">
        <ele>1530.2</ele>
        <time>2020-07-05T14:10:20Z</time>
      </trkpt>
      <trkpt lat="42.747180" lon="0.239302">
        <ele>1530.1</ele>
        <time>2020-07-05T14:10:38Z</time>
      </trkpt>
      <trkpt lat="42.747271" lon="0.239265">
        <ele>1529.2</ele>
        <time>2020-07-05T14:10:47Z</time>
      </trkpt>
      <trkpt lat="42.747363" lon="0.239223">
        <ele>1529.2</ele>
        <time>2020-07-05T14:10:55Z</time>
      </trkpt>
      <trkpt lat="42.747455" lon="0.239184">
        <ele>1528.4</ele>
        <time>2020-07-05T14:11:04Z</time>
      </trkpt>
      <trkpt lat="42.747559" lon="0.239153">
        <ele>1527.5</ele>
        <time>2020-07-05T14:11:13Z</time>
      </trkpt>
      <trkpt lat="42.747659" lon="0.239109">
        <ele>1526.7</ele>
        <time>2020-07-05T14:11:21Z</time>
      </trkpt>
      <trkpt lat="42.747764" lon="0.239071">
        <ele>1526.6</ele>
        <time>2020-07-05T14:11:29Z</time>
      </trkpt>
      <trkpt lat="42.747855" lon="0.239036">
        <ele>1525.7</ele>
        <time>2020-07-05T14:11:36Z</time>
      </trkpt>
      <trkpt lat="42.747940" lon="0.238970">
        <ele>1525.7</ele>
        <time>2020-07-05T14:11:43Z</time>
      </trkpt>
      <trkpt lat="42.748035" lon="0.238933">
        <ele>1524.9</ele>
        <time>2020-07-05T14:11:51Z</time>
      </trkpt>
      <trkpt lat="42.747992" lon="0.238934">
        <ele>1523.7</ele>
        <time>2020-07-05T14:13:01Z</time>
      </trkpt>
      <trkpt lat="42.748087" lon="0.238923">
        <ele>1523.5</ele>
        <time>2020-07-05T14:13:19Z</time>
      </trkpt>
      <trkpt lat="42.748185" lon="0.238879">
        <ele>1522.5</ele>
        <time>2020-07-05T14:13:27Z</time>
      </trkpt>
      <trkpt lat="42.748288" lon="0.238825">
        <ele>1522.4</ele>
        <time>2020-07-05T14:13:35Z</time>
      </trkpt>
      <trkpt lat="42.748383" lon="0.238817">
        <ele>1522.3</ele>
        <time>2020-07-05T14:13:43Z</time>
      </trkpt>
      <trkpt lat="42.748486" lon="0.238858">
        <ele>1522.3</ele>
        <time>2020-07-05T14:13:51Z</time>
      </trkpt>
      <trkpt lat="42.748581" lon="0.238898">
        <ele>1522.3</ele>
        <time>2020-07-05T14:13:58Z</time>
      </trkpt>
      <trkpt lat="42.748674" lon="0.238941">
        <ele>1522.2</ele>
        <time>2020-07-05T14:14:05Z</time>
      </trkpt>
      <trkpt lat="42.748759" lon="0.239013">
        <ele>1522.2</ele>
        <time>2020-07-05T14:14:12Z</time>
      </trkpt>
      <trkpt lat="42.748844" lon="0.239055">
        <ele>1522.2</ele>
        <time>2020-07-05T14:14:18Z</time>
      </trkpt>
      <trkpt lat="42.748941" lon="0.239087">
        <ele>1521.3</ele>
        <time>2020-07-05T14:14:25Z</time>
      </trkpt>
      <trkpt lat="42.749033" lon="0.239108">
        <ele>1521.3</ele>
        <time>2020-07-05T14:14:32Z</time>
      </trkpt>
      <trkpt lat="42.749129" lon="0.239127">
        <ele>1521.3</ele>
        <time>2020-07-05T14:14:39Z</time>
      </trkpt>
      <trkpt lat="42.749221" lon="0.239111">
        <ele>1521.3</ele>
        <time>2020-07-05T14:14:45Z</time>
      </trkpt>
      <trkpt lat="42.749317" lon="0.239082">
        <ele>1521.2</ele>
        <time>2020-07-05T14:14:52Z</time>
      </trkpt>
      <trkpt lat="42.749419" lon="0.239056">
        <ele>1519.4</ele>
        <time>2020-07-05T14:14:59Z</time>
      </trkpt>
      <trkpt lat="42.749519" lon="0.239036">
        <ele>1519.3</ele>
        <time>2020-07-05T14:15:06Z</time>
      </trkpt>
      <trkpt lat="42.749631" lon="0.239037">
        <ele>1518.5</ele>
        <time>2020-07-05T14:15:13Z</time>
      </trkpt>
      <trkpt lat="42.749738" lon="0.239029">
        <ele>1518.5</ele>
        <time>2020-07-05T14:15:25Z</time>
      </trkpt>
      <trkpt lat="42.749840" lon="0.239022">
        <ele>1517.5</ele>
        <time>2020-07-05T14:15:33Z</time>
      </trkpt>
      <trkpt lat="42.749936" lon="0.238985">
        <ele>1517.5</ele>
        <time>2020-07-05T14:15:41Z</time>
      </trkpt>
      <trkpt lat="42.750027" lon="0.238934">
        <ele>1517.4</ele>
        <time>2020-07-05T14:15:48Z</time>
      </trkpt>
      <trkpt lat="42.750114" lon="0.238878">
        <ele>1517.4</ele>
        <time>2020-07-05T14:15:55Z</time>
      </trkpt>
      <trkpt lat="42.750227" lon="0.238850">
        <ele>1516.6</ele>
        <time>2020-07-05T14:16:02Z</time>
      </trkpt>
      <trkpt lat="42.750331" lon="0.238837">
        <ele>1515.7</ele>
        <time>2020-07-05T14:16:09Z</time>
      </trkpt>
      <trkpt lat="42.750431" lon="0.238826">
        <ele>1515.7</ele>
        <time>2020-07-05T14:16:16Z</time>
      </trkpt>
      <trkpt lat="42.750536" lon="0.238797">
        <ele>1515.7</ele>
        <time>2020-07-05T14:16:24Z</time>
      </trkpt>
      <trkpt lat="42.750630" lon="0.238755">
        <ele>1515.7</ele>
        <time>2020-07-05T14:16:31Z</time>
      </trkpt>
      <trkpt lat="42.750711" lon="0.238705">
        <ele>1514.8</ele>
        <time>2020-07-05T14:16:38Z</time>
      </trkpt>
      <trkpt lat="42.750795" lon="0.238643">
        <ele>1514.7</ele>
        <time>2020-07-05T14:16:45Z</time>
      </trkpt>
      <trkpt lat="42.750892" lon="0.238588">
        <ele>1513.9</ele>
        <time>2020-07-05T14:16:52Z</time>
      </trkpt>
      <trkpt lat="42.751005" lon="0.238578">
        <ele>1514.0</ele>
        <time>2020-07-05T14:17:00Z</time>
      </trkpt>
      <trkpt lat="42.751104" lon="0.238576">
        <ele>1513.9</ele>
        <time>2020-07-05T14:17:07Z</time>
      </trkpt>
      <trkpt lat="42.751210" lon="0.238558">
        <ele>1513.9</ele>
        <time>2020-07-05T14:17:14Z</time>
      </trkpt>
      <trkpt lat="42.751295" lon="0.238515">
        <ele>1513.8</ele>
        <time>2020-07-05T14:17:21Z</time>
      </trkpt>
      <trkpt lat="42.751399" lon="0.238477">
        <ele>1513.0</ele>
        <time>2020-07-05T14:17:29Z</time>
      </trkpt>
      <trkpt lat="42.751504" lon="0.238468">
        <ele>1513.0</ele>
        <time>2020-07-05T14:17:36Z</time>
      </trkpt>
      <trkpt lat="42.751599" lon="0.238439">
        <ele>1513.0</ele>
        <time>2020-07-05T14:17:43Z</time>
      </trkpt>
      <trkpt lat="42.751701" lon="0.238429">
        <ele>1513.0</ele>
        <time>2020-07-05T14:17:50Z</time>
      </trkpt>
      <trkpt lat="42.751792" lon="0.238391">
        <ele>1513.0</ele>
        <time>2020-07-05T14:17:57Z</time>
      </trkpt>
      <trkpt lat="42.751843" lon="0.238328">
        <ele>1512.9</ele>
        <time>2020-07-05T14:18:15Z</time>
      </trkpt>
      <trkpt lat="42.751943" lon="0.238330">
        <ele>1512.1</ele>
        <time>2020-07-05T14:18:23Z</time>
      </trkpt>
      <trkpt lat="42.752052" lon="0.238367">
        <ele>1511.3</ele>
        <time>2020-07-05T14:18:30Z</time>
      </trkpt>
      <trkpt lat="42.752155" lon="0.238403">
        <ele>1511.3</ele>
        <time>2020-07-05T14:18:37Z</time>
      </trkpt>
      <trkpt lat="42.752248" lon="0.238410">
        <ele>1510.3</ele>
        <time>2020-07-05T14:18:45Z</time>
      </trkpt>
      <trkpt lat="42.752348" lon="0.238423">
        <ele>1510.4</ele>
        <time>2020-07-05T14:18:52Z</time>
      </trkpt>
      <trkpt lat="42.752455" lon="0.238413">
        <ele>1510.3</ele>
        <time>2020-07-05T14:19:01Z</time>
      </trkpt>
      <trkpt lat="42.752548" lon="0.238398">
        <ele>1508.6</ele>
        <time>2020-07-05T14:19:09Z</time>
      </trkpt>
      <trkpt lat="42.752635" lon="0.238337">
        <ele>1508.6</ele>
        <time>2020-07-05T14:19:17Z</time>
      </trkpt>
      <trkpt lat="42.752750" lon="0.238361">
        <ele>1508.6</ele>
        <time>2020-07-05T14:19:23Z</time>
      </trkpt>
      <trkpt lat="42.752852" lon="0.238355">
        <ele>1507.8</ele>
        <time>2020-07-05T14:19:30Z</time>
      </trkpt>
      <trkpt lat="42.752949" lon="0.238347">
        <ele>1507.8</ele>
        <time>2020-07-05T14:19:37Z</time>
      </trkpt>
      <trkpt lat="42.753039" lon="0.238359">
        <ele>1507.0</ele>
        <time>2020-07-05T14:19:44Z</time>
      </trkpt>
      <trkpt lat="42.753119" lon="0.238380">
        <ele>1506.2</ele>
        <time>2020-07-05T14:19:51Z</time>
      </trkpt>
      <trkpt lat="42.753221" lon="0.238414">
        <ele>1506.2</ele>
        <time>2020-07-05T14:20:00Z</time>
      </trkpt>
      <trkpt lat="42.753323" lon="0.238471">
        <ele>1505.4</ele>
        <time>2020-07-05T14:20:06Z</time>
      </trkpt>
      <trkpt lat="42.753421" lon="0.238528">
        <ele>1504.6</ele>
        <time>2020-07-05T14:20:12Z</time>
      </trkpt>
      <trkpt lat="42.753501" lon="0.238574">
        <ele>1504.6</ele>
        <time>2020-07-05T14:20:17Z</time>
      </trkpt>
      <trkpt lat="42.753589" lon="0.238597">
        <ele>1503.7</ele>
        <time>2020-07-05T14:20:23Z</time>
      </trkpt>
      <trkpt lat="42.753680" lon="0.238608">
        <ele>1502.9</ele>
        <time>2020-07-05T14:20:31Z</time>
      </trkpt>
      <trkpt lat="42.753776" lon="0.238619">
        <ele>1502.0</ele>
        <time>2020-07-05T14:20:39Z</time>
      </trkpt>
      <trkpt lat="42.753875" lon="0.238630">
        <ele>1501.2</ele>
        <time>2020-07-05T14:20:46Z</time>
      </trkpt>
      <trkpt lat="42.753970" lon="0.238593">
        <ele>1500.4</ele>
        <time>2020-07-05T14:20:54Z</time>
      </trkpt>
      <trkpt lat="42.754092" lon="0.238555">
        <ele>1499.6</ele>
        <time>2020-07-05T14:21:02Z</time>
      </trkpt>
      <trkpt lat="42.754199" lon="0.238501">
        <ele>1498.7</ele>
        <time>2020-07-05T14:21:09Z</time>
      </trkpt>
      <trkpt lat="42.754292" lon="0.238463">
        <ele>1497.7</ele>
        <time>2020-07-05T14:21:17Z</time>
      </trkpt>
      <trkpt lat="42.754401" lon="0.238439">
        <ele>1497.8</ele>
        <time>2020-07-05T14:21:25Z</time>
      </trkpt>
      <trkpt lat="42.754503" lon="0.238435">
        <ele>1497.8</ele>
        <time>2020-07-05T14:21:31Z</time>
      </trkpt>
      <trkpt lat="42.754603" lon="0.238455">
        <ele>1497.8</ele>
        <time>2020-07-05T14:21:39Z</time>
      </trkpt>
      <trkpt lat="42.754697" lon="0.238455">
        <ele>1496.9</ele>
        <time>2020-07-05T14:21:46Z</time>
      </trkpt>
      <trkpt lat="42.754775" lon="0.238358">
        <ele>1494.9</ele>
        <time>2020-07-05T14:21:54Z</time>
      </trkpt>
      <trkpt lat="42.754859" lon="0.238282">
        <ele>1494.9</ele>
        <time>2020-07-05T14:22:01Z</time>
      </trkpt>
      <trkpt lat="42.754962" lon="0.238251">
        <ele>1495.0</ele>
        <time>2020-07-05T14:22:08Z</time>
      </trkpt>
      <trkpt lat="42.755058" lon="0.238217">
        <ele>1494.2</ele>
        <time>2020-07-05T14:22:16Z</time>
      </trkpt>
      <trkpt lat="42.755176" lon="0.238209">
        <ele>1493.4</ele>
        <time>2020-07-05T14:22:24Z</time>
      </trkpt>
      <trkpt lat="42.755289" lon="0.238175">
        <ele>1492.5</ele>
        <time>2020-07-05T14:22:32Z</time>
      </trkpt>
      <trkpt lat="42.755391" lon="0.238130">
        <ele>1491.7</ele>
        <time>2020-07-05T14:22:38Z</time>
      </trkpt>
      <trkpt lat="42.755477" lon="0.238047">
        <ele>1490.8</ele>
        <time>2020-07-05T14:22:45Z</time>
      </trkpt>
      <trkpt lat="42.755574" lon="0.238003">
        <ele>1490.8</ele>
        <time>2020-07-05T14:22:52Z</time>
      </trkpt>
      <trkpt lat="42.755713" lon="0.237851">
        <ele>1489.1</ele>
        <time>2020-07-05T14:23:05Z</time>
      </trkpt>
      <trkpt lat="42.755785" lon="0.237772">
        <ele>1489.1</ele>
        <time>2020-07-05T14:23:12Z</time>
      </trkpt>
      <trkpt lat="42.755892" lon="0.237759">
        <ele>1489.1</ele>
        <time>2020-07-05T14:23:19Z</time>
      </trkpt>
      <trkpt lat="42.755973" lon="0.237703">
        <ele>1487.5</ele>
        <time>2020-07-05T14:23:25Z</time>
      </trkpt>
      <trkpt lat="42.756055" lon="0.237628">
        <ele>1486.7</ele>
        <time>2020-07-05T14:23:33Z</time>
      </trkpt>
      <trkpt lat="42.756161" lon="0.237603">
        <ele>1486.7</ele>
        <time>2020-07-05T14:23:40Z</time>
      </trkpt>
      <trkpt lat="42.756264" lon="0.237609">
        <ele>1486.0</ele>
        <time>2020-07-05T14:23:47Z</time>
      </trkpt>
      <trkpt lat="42.756372" lon="0.237634">
        <ele>1486.0</ele>
        <time>2020-07-05T14:23:54Z</time>
      </trkpt>
      <trkpt lat="42.756472" lon="0.237637">
        <ele>1484.4</ele>
        <time>2020-07-05T14:24:01Z</time>
      </trkpt>
      <trkpt lat="42.756580" lon="0.237637">
        <ele>1484.4</ele>
        <time>2020-07-05T14:24:08Z</time>
      </trkpt>
      <trkpt lat="42.756703" lon="0.237629">
        <ele>1483.5</ele>
        <time>2020-07-05T14:24:17Z</time>
      </trkpt>
      <trkpt lat="42.756804" lon="0.237697">
        <ele>1483.5</ele>
        <time>2020-07-05T14:24:23Z</time>
      </trkpt>
      <trkpt lat="42.756892" lon="0.237745">
        <ele>1482.7</ele>
        <time>2020-07-05T14:24:30Z</time>
      </trkpt>
      <trkpt lat="42.756979" lon="0.237784">
        <ele>1481.7</ele>
        <time>2020-07-05T14:24:37Z</time>
      </trkpt>
      <trkpt lat="42.757090" lon="0.237823">
        <ele>1480.7</ele>
        <time>2020-07-05T14:24:45Z</time>
      </trkpt>
      <trkpt lat="42.757190" lon="0.237792">
        <ele>1479.9</ele>
        <time>2020-07-05T14:24:52Z</time>
      </trkpt>
      <trkpt lat="42.757308" lon="0.237761">
        <ele>1479.9</ele>
        <time>2020-07-05T14:25:01Z</time>
      </trkpt>
      <trkpt lat="42.757404" lon="0.237808">
        <ele>1480.0</ele>
        <time>2020-07-05T14:25:09Z</time>
      </trkpt>
      <trkpt lat="42.757497" lon="0.237876">
        <ele>1480.0</ele>
        <time>2020-07-05T14:25:18Z</time>
      </trkpt>
      <trkpt lat="42.757589" lon="0.237931">
        <ele>1480.0</ele>
        <time>2020-07-05T14:25:25Z</time>
      </trkpt>
      <trkpt lat="42.757681" lon="0.237986">
        <ele>1479.9</ele>
        <time>2020-07-05T14:25:32Z</time>
      </trkpt>
      <trkpt lat="42.757773" lon="0.238032">
        <ele>1479.8</ele>
        <time>2020-07-05T14:25:40Z</time>
      </trkpt>
      <trkpt lat="42.757874" lon="0.238092">
        <ele>1478.0</ele>
        <time>2020-07-05T14:25:47Z</time>
      </trkpt>
      <trkpt lat="42.757966" lon="0.238075">
        <ele>1476.0</ele>
        <time>2020-07-05T14:25:54Z</time>
      </trkpt>
      <trkpt lat="42.758054" lon="0.237991">
        <ele>1475.2</ele>
        <time>2020-07-05T14:26:02Z</time>
      </trkpt>
      <trkpt lat="42.758157" lon="0.237959">
        <ele>1474.3</ele>
        <time>2020-07-05T14:26:09Z</time>
      </trkpt>
      <trkpt lat="42.758284" lon="0.237922">
        <ele>1473.5</ele>
        <time>2020-07-05T14:26:17Z</time>
      </trkpt>
      <trkpt lat="42.758393" lon="0.237892">
        <ele>1472.5</ele>
        <time>2020-07-05T14:26:24Z</time>
      </trkpt>
      <trkpt lat="42.758526" lon="0.237852">
        <ele>1472.5</ele>
        <time>2020-07-05T14:26:31Z</time>
      </trkpt>
      <trkpt lat="42.758620" lon="0.237774">
        <ele>1472.5</ele>
        <time>2020-07-05T14:26:38Z</time>
      </trkpt>
      <trkpt lat="42.758704" lon="0.237673">
        <ele>1470.7</ele>
        <time>2020-07-05T14:26:45Z</time>
      </trkpt>
      <trkpt lat="42.758783" lon="0.237565">
        <ele>1468.9</ele>
        <time>2020-07-05T14:26:52Z</time>
      </trkpt>
      <trkpt lat="42.758877" lon="0.237464">
        <ele>1468.8</ele>
        <time>2020-07-05T14:27:00Z</time>
      </trkpt>
      <trkpt lat="42.758963" lon="0.237366">
        <ele>1467.7</ele>
        <time>2020-07-05T14:27:07Z</time>
      </trkpt>
      <trkpt lat="42.759057" lon="0.237273">
        <ele>1467.7</ele>
        <time>2020-07-05T14:27:15Z</time>
      </trkpt>
      <trkpt lat="42.759166" lon="0.237216">
        <ele>1467.6</ele>
        <time>2020-07-05T14:27:22Z</time>
      </trkpt>
      <trkpt lat="42.759266" lon="0.237179">
        <ele>1467.6</ele>
        <time>2020-07-05T14:27:29Z</time>
      </trkpt>
      <trkpt lat="42.759344" lon="0.237112">
        <ele>1467.6</ele>
        <time>2020-07-05T14:27:36Z</time>
      </trkpt>
      <trkpt lat="42.759432" lon="0.237021">
        <ele>1467.4</ele>
        <time>2020-07-05T14:27:44Z</time>
      </trkpt>
      <trkpt lat="42.759521" lon="0.236946">
        <ele>1467.4</ele>
        <time>2020-07-05T14:27:50Z</time>
      </trkpt>
      <trkpt lat="42.759545" lon="0.236809">
        <ele>1466.5</ele>
        <time>2020-07-05T14:27:57Z</time>
      </trkpt>
      <trkpt lat="42.759587" lon="0.236677">
        <ele>1466.5</ele>
        <time>2020-07-05T14:28:04Z</time>
      </trkpt>
      <trkpt lat="42.759642" lon="0.236571">
        <ele>1466.5</ele>
        <time>2020-07-05T14:28:11Z</time>
      </trkpt>
      <trkpt lat="42.759697" lon="0.236436">
        <ele>1466.4</ele>
        <time>2020-07-05T14:28:20Z</time>
      </trkpt>
      <trkpt lat="42.759767" lon="0.236337">
        <ele>1466.3</ele>
        <time>2020-07-05T14:28:28Z</time>
      </trkpt>
      <trkpt lat="42.759903" lon="0.236302">
        <ele>1466.2</ele>
        <time>2020-07-05T14:28:37Z</time>
      </trkpt>
      <trkpt lat="42.760011" lon="0.236275">
        <ele>1466.2</ele>
        <time>2020-07-05T14:28:44Z</time>
      </trkpt>
      <trkpt lat="42.760146" lon="0.236244">
        <ele>1465.3</ele>
        <time>2020-07-05T14:28:53Z</time>
      </trkpt>
      <trkpt lat="42.760262" lon="0.236183">
        <ele>1464.5</ele>
        <time>2020-07-05T14:29:01Z</time>
      </trkpt>
      <trkpt lat="42.760358" lon="0.236084">
        <ele>1464.5</ele>
        <time>2020-07-05T14:29:10Z</time>
      </trkpt>
      <trkpt lat="42.760441" lon="0.235985">
        <ele>1463.6</ele>
        <time>2020-07-05T14:29:18Z</time>
      </trkpt>
      <trkpt lat="42.760524" lon="0.235871">
        <ele>1463.5</ele>
        <time>2020-07-05T14:29:25Z</time>
      </trkpt>
      <trkpt lat="42.760599" lon="0.235753">
        <ele>1463.5</ele>
        <time>2020-07-05T14:29:32Z</time>
      </trkpt>
      <trkpt lat="42.760708" lon="0.235654">
        <ele>1463.4</ele>
        <time>2020-07-05T14:29:42Z</time>
      </trkpt>
      <trkpt lat="42.760816" lon="0.235648">
        <ele>1463.4</ele>
        <time>2020-07-05T14:29:51Z</time>
      </trkpt>
      <trkpt lat="42.760913" lon="0.235578">
        <ele>1463.4</ele>
        <time>2020-07-05T14:30:00Z</time>
      </trkpt>
      <trkpt lat="42.761007" lon="0.235510">
        <ele>1463.3</ele>
        <time>2020-07-05T14:30:10Z</time>
      </trkpt>
      <trkpt lat="42.761083" lon="0.235425">
        <ele>1463.3</ele>
        <time>2020-07-05T14:30:18Z</time>
      </trkpt>
      <trkpt lat="42.761205" lon="0.235371">
        <ele>1463.3</ele>
        <time>2020-07-05T14:30:28Z</time>
      </trkpt>
      <trkpt lat="42.761308" lon="0.235366">
        <ele>1463.2</ele>
        <time>2020-07-05T14:30:37Z</time>
      </trkpt>
      <trkpt lat="42.761387" lon="0.235439">
        <ele>1463.2</ele>
        <time>2020-07-05T14:30:45Z</time>
      </trkpt>
      <trkpt lat="42.761486" lon="0.235457">
        <ele>1461.5</ele>
        <time>2020-07-05T14:30:54Z</time>
      </trkpt>
      <trkpt lat="42.761565" lon="0.235483">
        <ele>1460.7</ele>
        <time>2020-07-05T14:31:02Z</time>
      </trkpt>
      <trkpt lat="42.761653" lon="0.235530">
        <ele>1459.1</ele>
        <time>2020-07-05T14:31:11Z</time>
      </trkpt>
      <trkpt lat="42.761732" lon="0.235582">
        <ele>1457.4</ele>
        <time>2020-07-05T14:31:20Z</time>
      </trkpt>
      <trkpt lat="42.761842" lon="0.235570">
        <ele>1455.7</ele>
        <time>2020-07-05T14:31:34Z</time>
      </trkpt>
      <trkpt lat="42.761915" lon="0.235525">
        <ele>1453.8</ele>
        <time>2020-07-05T14:31:55Z</time>
      </trkpt>
      <trkpt lat="42.762049" lon="0.235502">
        <ele>1452.8</ele>
        <time>2020-07-05T14:32:08Z</time>
      </trkpt>
      <trkpt lat="42.762158" lon="0.235529">
        <ele>1450.8</ele>
        <time>2020-07-05T14:32:20Z</time>
      </trkpt>
      <trkpt lat="42.762260" lon="0.235543">
        <ele>1449.1</ele>
        <time>2020-07-05T14:32:33Z</time>
      </trkpt>
      <trkpt lat="42.762370" lon="0.235578">
        <ele>1447.1</ele>
        <time>2020-07-05T14:32:45Z</time>
      </trkpt>
      <trkpt lat="42.762482" lon="0.235563">
        <ele>1445.5</ele>
        <time>2020-07-05T14:32:57Z</time>
      </trkpt>
      <trkpt lat="42.762587" lon="0.235562">
        <ele>1443.7</ele>
        <time>2020-07-05T14:33:06Z</time>
      </trkpt>
      <trkpt lat="42.762700" lon="0.235591">
        <ele>1441.8</ele>
        <time>2020-07-05T14:33:14Z</time>
      </trkpt>
      <trkpt lat="42.762807" lon="0.235534">
        <ele>1440.7</ele>
        <time>2020-07-05T14:33:24Z</time>
      </trkpt>
      <trkpt lat="42.762914" lon="0.235464">
        <ele>1439.9</ele>
        <time>2020-07-05T14:33:34Z</time>
      </trkpt>
      <trkpt lat="42.763055" lon="0.235440">
        <ele>1439.0</ele>
        <time>2020-07-05T14:33:43Z</time>
      </trkpt>
      <trkpt lat="42.763166" lon="0.235395">
        <ele>1439.0</ele>
        <time>2020-07-05T14:33:53Z</time>
      </trkpt>
      <trkpt lat="42.763319" lon="0.235301">
        <ele>1437.3</ele>
        <time>2020-07-05T14:34:09Z</time>
      </trkpt>
      <trkpt lat="42.763452" lon="0.235216">
        <ele>1436.5</ele>
        <time>2020-07-05T14:34:19Z</time>
      </trkpt>
      <trkpt lat="42.763552" lon="0.235086">
        <ele>1436.4</ele>
        <time>2020-07-05T14:34:30Z</time>
      </trkpt>
      <trkpt lat="42.763716" lon="0.235035">
        <ele>1434.4</ele>
        <time>2020-07-05T14:34:41Z</time>
      </trkpt>
      <trkpt lat="42.763800" lon="0.235112">
        <ele>1434.3</ele>
        <time>2020-07-05T14:34:49Z</time>
      </trkpt>
      <trkpt lat="42.763922" lon="0.235147">
        <ele>1432.6</ele>
        <time>2020-07-05T14:35:00Z</time>
      </trkpt>
      <trkpt lat="42.764083" lon="0.235087">
        <ele>1431.5</ele>
        <time>2020-07-05T14:35:13Z</time>
      </trkpt>
      <trkpt lat="42.764250" lon="0.235101">
        <ele>1431.4</ele>
        <time>2020-07-05T14:35:25Z</time>
      </trkpt>
      <trkpt lat="42.764385" lon="0.235143">
        <ele>1429.6</ele>
        <time>2020-07-05T14:35:36Z</time>
      </trkpt>
      <trkpt lat="42.764513" lon="0.235206">
        <ele>1429.5</ele>
        <time>2020-07-05T14:35:46Z</time>
      </trkpt>
      <trkpt lat="42.764648" lon="0.235270">
        <ele>1429.4</ele>
        <time>2020-07-05T14:35:55Z</time>
      </trkpt>
      <trkpt lat="42.764744" lon="0.235350">
        <ele>1429.3</ele>
        <time>2020-07-05T14:36:03Z</time>
      </trkpt>
      <trkpt lat="42.764860" lon="0.235380">
        <ele>1428.4</ele>
        <time>2020-07-05T14:36:11Z</time>
      </trkpt>
      <trkpt lat="42.764954" lon="0.235443">
        <ele>1427.6</ele>
        <time>2020-07-05T14:36:19Z</time>
      </trkpt>
      <trkpt lat="42.765027" lon="0.235564">
        <ele>1427.6</ele>
        <time>2020-07-05T14:36:27Z</time>
      </trkpt>
      <trkpt lat="42.765094" lon="0.235658">
        <ele>1425.8</ele>
        <time>2020-07-05T14:36:34Z</time>
      </trkpt>
      <trkpt lat="42.765160" lon="0.235759">
        <ele>1424.7</ele>
        <time>2020-07-05T14:36:41Z</time>
      </trkpt>
      <trkpt lat="42.765231" lon="0.235866">
        <ele>1423.7</ele>
        <time>2020-07-05T14:36:48Z</time>
      </trkpt>
      <trkpt lat="42.765303" lon="0.235947">
        <ele>1421.9</ele>
        <time>2020-07-05T14:36:55Z</time>
      </trkpt>
      <trkpt lat="42.765377" lon="0.236039">
        <ele>1420.1</ele>
        <time>2020-07-05T14:37:03Z</time>
      </trkpt>
      <trkpt lat="42.765427" lon="0.236106">
        <ele>1418.1</ele>
        <time>2020-07-05T14:37:32Z</time>
      </trkpt>
      <trkpt lat="42.765510" lon="0.236190">
        <ele>1416.3</ele>
        <time>2020-07-05T14:37:40Z</time>
      </trkpt>
      <trkpt lat="42.765588" lon="0.236276">
        <ele>1416.3</ele>
        <time>2020-07-05T14:37:47Z</time>
      </trkpt>
      <trkpt lat="42.765667" lon="0.236371">
        <ele>1415.5</ele>
        <time>2020-07-05T14:37:55Z</time>
      </trkpt>
      <trkpt lat="42.765755" lon="0.236474">
        <ele>1415.4</ele>
        <time>2020-07-05T14:38:05Z</time>
      </trkpt>
      <trkpt lat="42.765841" lon="0.236573">
        <ele>1415.4</ele>
        <time>2020-07-05T14:38:13Z</time>
      </trkpt>
      <trkpt lat="42.765898" lon="0.236710">
        <ele>1414.3</ele>
        <time>2020-07-05T14:38:21Z</time>
      </trkpt>
      <trkpt lat="42.765973" lon="0.236817">
        <ele>1414.3</ele>
        <time>2020-07-05T14:38:28Z</time>
      </trkpt>
      <trkpt lat="42.766055" lon="0.236960">
        <ele>1412.5</ele>
        <time>2020-07-05T14:38:36Z</time>
      </trkpt>
      <trkpt lat="42.766152" lon="0.237026">
        <ele>1410.5</ele>
        <time>2020-07-05T14:38:45Z</time>
      </trkpt>
      <trkpt lat="42.766236" lon="0.237084">
        <ele>1408.9</ele>
        <time>2020-07-05T14:38:53Z</time>
      </trkpt>
      <trkpt lat="42.766344" lon="0.237097">
        <ele>1407.0</ele>
        <time>2020-07-05T14:39:02Z</time>
      </trkpt>
      <trkpt lat="42.766409" lon="0.237195">
        <ele>1404.4</ele>
        <time>2020-07-05T14:39:13Z</time>
      </trkpt>
      <trkpt lat="42.766587" lon="0.237242">
        <ele>1401.7</ele>
        <time>2020-07-05T14:39:28Z</time>
      </trkpt>
      <trkpt lat="42.766813" lon="0.237134">
        <ele>1399.9</ele>
        <time>2020-07-05T14:39:39Z</time>
      </trkpt>
      <trkpt lat="42.766942" lon="0.237141">
        <ele>1398.2</ele>
        <time>2020-07-05T14:39:46Z</time>
      </trkpt>
      <trkpt lat="42.767090" lon="0.237173">
        <ele>1397.1</ele>
        <time>2020-07-05T14:39:57Z</time>
      </trkpt>
      <trkpt lat="42.767257" lon="0.237246">
        <ele>1396.1</ele>
        <time>2020-07-05T14:40:09Z</time>
      </trkpt>
      <trkpt lat="42.767388" lon="0.237256">
        <ele>1393.4</ele>
        <time>2020-07-05T14:40:21Z</time>
      </trkpt>
      <trkpt lat="42.767547" lon="0.237350">
        <ele>1390.4</ele>
        <time>2020-07-05T14:40:35Z</time>
      </trkpt>
      <trkpt lat="42.767693" lon="0.237437">
        <ele>1388.7</ele>
        <time>2020-07-05T14:40:45Z</time>
      </trkpt>
      <trkpt lat="42.767828" lon="0.237471">
        <ele>1386.7</ele>
        <time>2020-07-05T14:40:54Z</time>
      </trkpt>
      <trkpt lat="42.767983" lon="0.237512">
        <ele>1383.9</ele>
        <time>2020-07-05T14:41:07Z</time>
      </trkpt>
      <trkpt lat="42.768164" lon="0.237559">
        <ele>1380.6</ele>
        <time>2020-07-05T14:41:19Z</time>
      </trkpt>
      <trkpt lat="42.768305" lon="0.237586">
        <ele>1377.9</ele>
        <time>2020-07-05T14:41:28Z</time>
      </trkpt>
      <trkpt lat="42.768402" lon="0.237634">
        <ele>1376.0</ele>
        <time>2020-07-05T14:41:42Z</time>
      </trkpt>
      <trkpt lat="42.768414" lon="0.237600">
        <ele>1375.9</ele>
        <time>2020-07-05T14:42:10Z</time>
      </trkpt>
      <trkpt lat="42.768419" lon="0.237575">
        <ele>1375.9</ele>
        <time>2020-07-05T14:42:49Z</time>
      </trkpt>
      <trkpt lat="42.768380" lon="0.237625">
        <ele>1375.9</ele>
        <time>2020-07-05T14:43:15Z</time>
      </trkpt>
      <trkpt lat="42.768474" lon="0.237637">
        <ele>1373.2</ele>
        <time>2020-07-05T14:43:30Z</time>
      </trkpt>
      <trkpt lat="42.768643" lon="0.237648">
        <ele>1370.6</ele>
        <time>2020-07-05T14:43:43Z</time>
      </trkpt>
      <trkpt lat="42.768750" lon="0.237675">
        <ele>1369.7</ele>
        <time>2020-07-05T14:43:53Z</time>
      </trkpt>
      <trkpt lat="42.768873" lon="0.237757">
        <ele>1369.9</ele>
        <time>2020-07-05T14:44:05Z</time>
      </trkpt>
      <trkpt lat="42.769009" lon="0.237853">
        <ele>1368.2</ele>
        <time>2020-07-05T14:44:18Z</time>
      </trkpt>
      <trkpt lat="42.769143" lon="0.237908">
        <ele>1364.9</ele>
        <time>2020-07-05T14:44:28Z</time>
      </trkpt>
      <trkpt lat="42.769255" lon="0.237894">
        <ele>1363.0</ele>
        <time>2020-07-05T14:44:42Z</time>
      </trkpt>
      <trkpt lat="42.769454" lon="0.237803">
        <ele>1359.6</ele>
        <time>2020-07-05T14:44:53Z</time>
      </trkpt>
      <trkpt lat="42.769576" lon="0.237719">
        <ele>1358.8</ele>
        <time>2020-07-05T14:45:03Z</time>
      </trkpt>
      <trkpt lat="42.769721" lon="0.237520">
        <ele>1356.3</ele>
        <time>2020-07-05T14:45:19Z</time>
      </trkpt>
      <trkpt lat="42.769901" lon="0.237487">
        <ele>1355.2</ele>
        <time>2020-07-05T14:45:29Z</time>
      </trkpt>
      <trkpt lat="42.770055" lon="0.237414">
        <ele>1354.3</ele>
        <time>2020-07-05T14:45:38Z</time>
      </trkpt>
      <trkpt lat="42.770192" lon="0.237315">
        <ele>1353.4</ele>
        <time>2020-07-05T14:45:46Z</time>
      </trkpt>
      <trkpt lat="42.770297" lon="0.237251">
        <ele>1352.6</ele>
        <time>2020-07-05T14:45:53Z</time>
      </trkpt>
      <trkpt lat="42.770372" lon="0.237168">
        <ele>1351.8</ele>
        <time>2020-07-05T14:46:01Z</time>
      </trkpt>
      <trkpt lat="42.770480" lon="0.237138">
        <ele>1349.7</ele>
        <time>2020-07-05T14:46:11Z</time>
      </trkpt>
      <trkpt lat="42.770615" lon="0.237140">
        <ele>1347.8</ele>
        <time>2020-07-05T14:46:22Z</time>
      </trkpt>
      <trkpt lat="42.770750" lon="0.237125">
        <ele>1347.0</ele>
        <time>2020-07-05T14:46:30Z</time>
      </trkpt>
      <trkpt lat="42.770857" lon="0.237186">
        <ele>1346.3</ele>
        <time>2020-07-05T14:46:37Z</time>
      </trkpt>
      <trkpt lat="42.770945" lon="0.237273">
        <ele>1345.5</ele>
        <time>2020-07-05T14:46:44Z</time>
      </trkpt>
      <trkpt lat="42.771052" lon="0.237312">
        <ele>1344.3</ele>
        <time>2020-07-05T14:46:53Z</time>
      </trkpt>
      <trkpt lat="42.771166" lon="0.237331">
        <ele>1343.3</ele>
        <time>2020-07-05T14:47:01Z</time>
      </trkpt>
      <trkpt lat="42.771238" lon="0.237428">
        <ele>1341.7</ele>
        <time>2020-07-05T14:47:09Z</time>
      </trkpt>
      <trkpt lat="42.771325" lon="0.237514">
        <ele>1339.7</ele>
        <time>2020-07-05T14:47:18Z</time>
      </trkpt>
      <trkpt lat="42.771436" lon="0.237539">
        <ele>1337.2</ele>
        <time>2020-07-05T14:47:28Z</time>
      </trkpt>
      <trkpt lat="42.771513" lon="0.237709">
        <ele>1336.2</ele>
        <time>2020-07-05T14:47:36Z</time>
      </trkpt>
      <trkpt lat="42.771557" lon="0.237835">
        <ele>1335.1</ele>
        <time>2020-07-05T14:47:43Z</time>
      </trkpt>
      <trkpt lat="42.771602" lon="0.237969">
        <ele>1334.2</ele>
        <time>2020-07-05T14:47:51Z</time>
      </trkpt>
      <trkpt lat="42.771643" lon="0.238110">
        <ele>1333.3</ele>
        <time>2020-07-05T14:47:59Z</time>
      </trkpt>
      <trkpt lat="42.771714" lon="0.238199">
        <ele>1332.4</ele>
        <time>2020-07-05T14:48:06Z</time>
      </trkpt>
      <trkpt lat="42.771792" lon="0.238202">
        <ele>1330.7</ele>
        <time>2020-07-05T14:48:12Z</time>
      </trkpt>
      <trkpt lat="42.771823" lon="0.238211">
        <ele>1328.3</ele>
        <time>2020-07-05T14:48:20Z</time>
      </trkpt>
      <trkpt lat="42.771948" lon="0.238147">
        <ele>1324.5</ele>
        <time>2020-07-05T14:48:33Z</time>
      </trkpt>
      <trkpt lat="42.772148" lon="0.238065">
        <ele>1321.4</ele>
        <time>2020-07-05T14:48:46Z</time>
      </trkpt>
      <trkpt lat="42.772331" lon="0.238068">
        <ele>1317.3</ele>
        <time>2020-07-05T14:49:00Z</time>
      </trkpt>
      <trkpt lat="42.772515" lon="0.238038">
        <ele>1314.2</ele>
        <time>2020-07-05T14:49:13Z</time>
      </trkpt>
      <trkpt lat="42.772721" lon="0.238003">
        <ele>1312.5</ele>
        <time>2020-07-05T14:49:23Z</time>
      </trkpt>
      <trkpt lat="42.772808" lon="0.238061">
        <ele>1311.6</ele>
        <time>2020-07-05T14:49:28Z</time>
      </trkpt>
      <trkpt lat="42.772903" lon="0.238058">
        <ele>1308.8</ele>
        <time>2020-07-05T14:49:37Z</time>
      </trkpt>
      <trkpt lat="42.773014" lon="0.238133">
        <ele>1307.9</ele>
        <time>2020-07-05T14:49:44Z</time>
      </trkpt>
      <trkpt lat="42.773175" lon="0.238211">
        <ele>1305.1</ele>
        <time>2020-07-05T14:49:56Z</time>
      </trkpt>
      <trkpt lat="42.773306" lon="0.238194">
        <ele>1304.2</ele>
        <time>2020-07-05T14:50:04Z</time>
      </trkpt>
      <trkpt lat="42.773434" lon="0.238244">
        <ele>1303.3</ele>
        <time>2020-07-05T14:50:14Z</time>
      </trkpt>
      <trkpt lat="42.773540" lon="0.238290">
        <ele>1301.6</ele>
        <time>2020-07-05T14:50:21Z</time>
      </trkpt>
      <trkpt lat="42.773597" lon="0.238363">
        <ele>1301.6</ele>
        <time>2020-07-05T14:50:30Z</time>
      </trkpt>
      <trkpt lat="42.773661" lon="0.238502">
        <ele>1300.7</ele>
        <time>2020-07-05T14:50:37Z</time>
      </trkpt>
      <trkpt lat="42.773745" lon="0.238545">
        <ele>1299.8</ele>
        <time>2020-07-05T14:50:44Z</time>
      </trkpt>
      <trkpt lat="42.773836" lon="0.238550">
        <ele>1297.9</ele>
        <time>2020-07-05T14:50:50Z</time>
      </trkpt>
      <trkpt lat="42.773923" lon="0.238656">
        <ele>1297.1</ele>
        <time>2020-07-05T14:50:57Z</time>
      </trkpt>
      <trkpt lat="42.773991" lon="0.238715">
        <ele>1296.3</ele>
        <time>2020-07-05T14:51:03Z</time>
      </trkpt>
      <trkpt lat="42.774093" lon="0.238819">
        <ele>1294.6</ele>
        <time>2020-07-05T14:51:15Z</time>
      </trkpt>
      <trkpt lat="42.774190" lon="0.238826">
        <ele>1293.7</ele>
        <time>2020-07-05T14:51:23Z</time>
      </trkpt>
      <trkpt lat="42.774296" lon="0.238765">
        <ele>1291.1</ele>
        <time>2020-07-05T14:51:35Z</time>
      </trkpt>
      <trkpt lat="42.774405" lon="0.238612">
        <ele>1288.3</ele>
        <time>2020-07-05T14:51:46Z</time>
      </trkpt>
      <trkpt lat="42.774526" lon="0.238454">
        <ele>1287.4</ele>
        <time>2020-07-05T14:52:01Z</time>
      </trkpt>
      <trkpt lat="42.774585" lon="0.238336">
        <ele>1287.6</ele>
        <time>2020-07-05T14:52:18Z</time>
      </trkpt>
      <trkpt lat="42.774699" lon="0.238199">
        <ele>1285.7</ele>
        <time>2020-07-05T14:52:33Z</time>
      </trkpt>
      <trkpt lat="42.774783" lon="0.238114">
        <ele>1283.8</ele>
        <time>2020-07-05T14:52:40Z</time>
      </trkpt>
      <trkpt lat="42.774875" lon="0.238067">
        <ele>1282.1</ele>
        <time>2020-07-05T14:52:48Z</time>
      </trkpt>
      <trkpt lat="42.775001" lon="0.238041">
        <ele>1281.4</ele>
        <time>2020-07-05T14:53:05Z</time>
      </trkpt>
      <trkpt lat="42.775141" lon="0.238126">
        <ele>1280.6</ele>
        <time>2020-07-05T14:53:15Z</time>
      </trkpt>
      <trkpt lat="42.775271" lon="0.238193">
        <ele>1278.8</ele>
        <time>2020-07-05T14:53:24Z</time>
      </trkpt>
      <trkpt lat="42.775346" lon="0.238303">
        <ele>1276.6</ele>
        <time>2020-07-05T14:53:31Z</time>
      </trkpt>
      <trkpt lat="42.775425" lon="0.238359">
        <ele>1275.8</ele>
        <time>2020-07-05T14:53:37Z</time>
      </trkpt>
      <trkpt lat="42.775478" lon="0.238461">
        <ele>1274.1</ele>
        <time>2020-07-05T14:53:44Z</time>
      </trkpt>
      <trkpt lat="42.775525" lon="0.238620">
        <ele>1272.4</ele>
        <time>2020-07-05T14:53:51Z</time>
      </trkpt>
      <trkpt lat="42.775590" lon="0.238722">
        <ele>1271.5</ele>
        <time>2020-07-05T14:53:57Z</time>
      </trkpt>
      <trkpt lat="42.775682" lon="0.238815">
        <ele>1270.6</ele>
        <time>2020-07-05T14:54:04Z</time>
      </trkpt>
      <trkpt lat="42.775884" lon="0.238632">
        <ele>1268.9</ele>
        <time>2020-07-05T14:54:15Z</time>
      </trkpt>
      <trkpt lat="42.776044" lon="0.238632">
        <ele>1267.1</ele>
        <time>2020-07-05T14:54:27Z</time>
      </trkpt>
      <trkpt lat="42.776175" lon="0.238675">
        <ele>1264.6</ele>
        <time>2020-07-05T14:54:37Z</time>
      </trkpt>
      <trkpt lat="42.776294" lon="0.238725">
        <ele>1262.9</ele>
        <time>2020-07-05T14:54:45Z</time>
      </trkpt>
      <trkpt lat="42.776390" lon="0.238809">
        <ele>1261.3</ele>
        <time>2020-07-05T14:54:53Z</time>
      </trkpt>
      <trkpt lat="42.776506" lon="0.238875">
        <ele>1259.3</ele>
        <time>2020-07-05T14:55:01Z</time>
      </trkpt>
      <trkpt lat="42.776612" lon="0.238990">
        <ele>1257.6</ele>
        <time>2020-07-05T14:55:11Z</time>
      </trkpt>
      <trkpt lat="42.776706" lon="0.239103">
        <ele>1255.6</ele>
        <time>2020-07-05T14:55:19Z</time>
      </trkpt>
      <trkpt lat="42.776776" lon="0.239249">
        <ele>1253.6</ele>
        <time>2020-07-05T14:55:29Z</time>
      </trkpt>
      <trkpt lat="42.776961" lon="0.239249">
        <ele>1251.9</ele>
        <time>2020-07-05T14:55:42Z</time>
      </trkpt>
      <trkpt lat="42.777069" lon="0.239116">
        <ele>1248.5</ele>
        <time>2020-07-05T14:55:51Z</time>
      </trkpt>
      <trkpt lat="42.777264" lon="0.239005">
        <ele>1246.1</ele>
        <time>2020-07-05T14:56:06Z</time>
      </trkpt>
      <trkpt lat="42.777472" lon="0.238980">
        <ele>1243.2</ele>
        <time>2020-07-05T14:56:17Z</time>
      </trkpt>
      <trkpt lat="42.777621" lon="0.239003">
        <ele>1242.3</ele>
        <time>2020-07-05T14:56:24Z</time>
      </trkpt>
      <trkpt lat="42.777768" lon="0.239107">
        <ele>1240.5</ele>
        <time>2020-07-05T14:56:34Z</time>
      </trkpt>
      <trkpt lat="42.777888" lon="0.239110">
        <ele>1238.6</ele>
        <time>2020-07-05T14:56:42Z</time>
      </trkpt>
      <trkpt lat="42.777980" lon="0.239224">
        <ele>1236.1</ele>
        <time>2020-07-05T14:56:52Z</time>
      </trkpt>
      <trkpt lat="42.778092" lon="0.239300">
        <ele>1234.4</ele>
        <time>2020-07-05T14:57:02Z</time>
      </trkpt>
      <trkpt lat="42.778233" lon="0.239239">
        <ele>1232.8</ele>
        <time>2020-07-05T14:57:14Z</time>
      </trkpt>
      <trkpt lat="42.778362" lon="0.239219">
        <ele>1231.0</ele>
        <time>2020-07-05T14:57:22Z</time>
      </trkpt>
      <trkpt lat="42.778510" lon="0.239124">
        <ele>1228.5</ele>
        <time>2020-07-05T14:57:30Z</time>
      </trkpt>
      <trkpt lat="42.778654" lon="0.239058">
        <ele>1227.0</ele>
        <time>2020-07-05T14:57:38Z</time>
      </trkpt>
      <trkpt lat="42.778904" lon="0.238956">
        <ele>1224.1</ele>
        <time>2020-07-05T14:57:52Z</time>
      </trkpt>
      <trkpt lat="42.779024" lon="0.238942">
        <ele>1223.5</ele>
        <time>2020-07-05T14:58:01Z</time>
      </trkpt>
      <trkpt lat="42.779099" lon="0.238937">
        <ele>1222.0</ele>
        <time>2020-07-05T14:58:10Z</time>
      </trkpt>
      <trkpt lat="42.779174" lon="0.239001">
        <ele>1221.4</ele>
        <time>2020-07-05T14:58:21Z</time>
      </trkpt>
      <trkpt lat="42.779260" lon="0.239072">
        <ele>1221.5</ele>
        <time>2020-07-05T14:58:29Z</time>
      </trkpt>
      <trkpt lat="42.779331" lon="0.239189">
        <ele>1221.6</ele>
        <time>2020-07-05T14:58:38Z</time>
      </trkpt>
      <trkpt lat="42.779381" lon="0.239341">
        <ele>1221.6</ele>
        <time>2020-07-05T14:58:46Z</time>
      </trkpt>
      <trkpt lat="42.779451" lon="0.239430">
        <ele>1221.6</ele>
        <time>2020-07-05T14:58:54Z</time>
      </trkpt>
      <trkpt lat="42.779505" lon="0.239528">
        <ele>1221.6</ele>
        <time>2020-07-05T14:59:03Z</time>
      </trkpt>
      <trkpt lat="42.779584" lon="0.239635">
        <ele>1220.7</ele>
        <time>2020-07-05T14:59:13Z</time>
      </trkpt>
      <trkpt lat="42.779728" lon="0.239655">
        <ele>1218.9</ele>
        <time>2020-07-05T14:59:24Z</time>
      </trkpt>
      <trkpt lat="42.779897" lon="0.239629">
        <ele>1217.0</ele>
        <time>2020-07-05T14:59:35Z</time>
      </trkpt>
      <trkpt lat="42.780050" lon="0.239657">
        <ele>1214.4</ele>
        <time>2020-07-05T14:59:46Z</time>
      </trkpt>
      <trkpt lat="42.780189" lon="0.239698">
        <ele>1211.3</ele>
        <time>2020-07-05T14:59:55Z</time>
      </trkpt>
      <trkpt lat="42.780326" lon="0.239795">
        <ele>1209.2</ele>
        <time>2020-07-05T15:00:05Z</time>
      </trkpt>
      <trkpt lat="42.780451" lon="0.239900">
        <ele>1207.5</ele>
        <time>2020-07-05T15:00:13Z</time>
      </trkpt>
      <trkpt lat="42.780492" lon="0.240079">
        <ele>1206.5</ele>
        <time>2020-07-05T15:00:21Z</time>
      </trkpt>
      <trkpt lat="42.780563" lon="0.240181">
        <ele>1205.5</ele>
        <time>2020-07-05T15:00:27Z</time>
      </trkpt>
      <trkpt lat="42.780665" lon="0.240232">
        <ele>1203.7</ele>
        <time>2020-07-05T15:00:34Z</time>
      </trkpt>
      <trkpt lat="42.780753" lon="0.240324">
        <ele>1200.8</ele>
        <time>2020-07-05T15:00:42Z</time>
      </trkpt>
      <trkpt lat="42.780836" lon="0.240422">
        <ele>1198.7</ele>
        <time>2020-07-05T15:00:51Z</time>
      </trkpt>
      <trkpt lat="42.780904" lon="0.240550">
        <ele>1196.1</ele>
        <time>2020-07-05T15:01:01Z</time>
      </trkpt>
      <trkpt lat="42.780922" lon="0.240695">
        <ele>1196.0</ele>
        <time>2020-07-05T15:01:10Z</time>
      </trkpt>
      <trkpt lat="42.780982" lon="0.240827">
        <ele>1194.0</ele>
        <time>2020-07-05T15:01:18Z</time>
      </trkpt>
      <trkpt lat="42.780995" lon="0.240995">
        <ele>1192.8</ele>
        <time>2020-07-05T15:01:26Z</time>
      </trkpt>
      <trkpt lat="42.781011" lon="0.241173">
        <ele>1190.2</ele>
        <time>2020-07-05T15:01:35Z</time>
      </trkpt>
      <trkpt lat="42.780997" lon="0.241366">
        <ele>1188.1</ele>
        <time>2020-07-05T15:01:44Z</time>
      </trkpt>
      <trkpt lat="42.780982" lon="0.241585">
        <ele>1185.3</ele>
        <time>2020-07-05T15:01:53Z</time>
      </trkpt>
      <trkpt lat="42.780998" lon="0.241748">
        <ele>1183.3</ele>
        <time>2020-07-05T15:02:01Z</time>
      </trkpt>
      <trkpt lat="42.780995" lon="0.241918">
        <ele>1180.9</ele>
        <time>2020-07-05T15:02:10Z</time>
      </trkpt>
      <trkpt lat="42.780981" lon="0.242094">
        <ele>1179.1</ele>
        <time>2020-07-05T15:02:18Z</time>
      </trkpt>
      <trkpt lat="42.781001" lon="0.242262">
        <ele>1176.5</ele>
        <time>2020-07-05T15:02:25Z</time>
      </trkpt>
      <trkpt lat="42.781055" lon="0.242398">
        <ele>1175.5</ele>
        <time>2020-07-05T15:02:32Z</time>
      </trkpt>
      <trkpt lat="42.781138" lon="0.242513">
        <ele>1172.6</ele>
        <time>2020-07-05T15:02:40Z</time>
      </trkpt>
      <trkpt lat="42.781207" lon="0.242660">
        <ele>1170.7</ele>
        <time>2020-07-05T15:02:48Z</time>
      </trkpt>
      <trkpt lat="42.781250" lon="0.242797">
        <ele>1168.1</ele>
        <time>2020-07-05T15:02:56Z</time>
      </trkpt>
      <trkpt lat="42.781296" lon="0.242977">
        <ele>1164.0</ele>
        <time>2020-07-05T15:03:07Z</time>
      </trkpt>
      <trkpt lat="42.781280" lon="0.243163">
        <ele>1161.0</ele>
        <time>2020-07-05T15:03:17Z</time>
      </trkpt>
      <trkpt lat="42.781297" lon="0.243314">
        <ele>1158.0</ele>
        <time>2020-07-05T15:03:25Z</time>
      </trkpt>
      <trkpt lat="42.781270" lon="0.243526">
        <ele>1156.1</ele>
        <time>2020-07-05T15:03:33Z</time>
      </trkpt>
      <trkpt lat="42.781309" lon="0.243687">
        <ele>1154.3</ele>
        <time>2020-07-05T15:03:40Z</time>
      </trkpt>
      <trkpt lat="42.781359" lon="0.243811">
        <ele>1152.6</ele>
        <time>2020-07-05T15:03:47Z</time>
      </trkpt>
      <trkpt lat="42.781423" lon="0.243961">
        <ele>1149.9</ele>
        <time>2020-07-05T15:03:56Z</time>
      </trkpt>
      <trkpt lat="42.781513" lon="0.244084">
        <ele>1147.2</ele>
        <time>2020-07-05T15:04:04Z</time>
      </trkpt>
      <trkpt lat="42.781595" lon="0.244206">
        <ele>1145.2</ele>
        <time>2020-07-05T15:04:12Z</time>
      </trkpt>
      <trkpt lat="42.781637" lon="0.244326">
        <ele>1143.3</ele>
        <time>2020-07-05T15:04:20Z</time>
      </trkpt>
      <trkpt lat="42.781661" lon="0.244457">
        <ele>1142.5</ele>
        <time>2020-07-05T15:04:28Z</time>
      </trkpt>
      <trkpt lat="42.781661" lon="0.244611">
        <ele>1142.4</ele>
        <time>2020-07-05T15:04:36Z</time>
      </trkpt>
      <trkpt lat="42.781720" lon="0.244768">
        <ele>1142.3</ele>
        <time>2020-07-05T15:04:45Z</time>
      </trkpt>
      <trkpt lat="42.781820" lon="0.244894">
        <ele>1142.2</ele>
        <time>2020-07-05T15:04:53Z</time>
      </trkpt>
      <trkpt lat="42.781917" lon="0.245009">
        <ele>1141.3</ele>
        <time>2020-07-05T15:05:01Z</time>
      </trkpt>
      <trkpt lat="42.781995" lon="0.245124">
        <ele>1141.1</ele>
        <time>2020-07-05T15:05:09Z</time>
      </trkpt>
      <trkpt lat="42.782064" lon="0.245269">
        <ele>1139.9</ele>
        <time>2020-07-05T15:05:18Z</time>
      </trkpt>
      <trkpt lat="42.782136" lon="0.245389">
        <ele>1139.8</ele>
        <time>2020-07-05T15:05:26Z</time>
      </trkpt>
      <trkpt lat="42.782205" lon="0.245509">
        <ele>1138.9</ele>
        <time>2020-07-05T15:05:34Z</time>
      </trkpt>
      <trkpt lat="42.782294" lon="0.245615">
        <ele>1137.8</ele>
        <time>2020-07-05T15:05:42Z</time>
      </trkpt>
      <trkpt lat="42.782358" lon="0.245702">
        <ele>1136.8</ele>
        <time>2020-07-05T15:05:51Z</time>
      </trkpt>
      <trkpt lat="42.782406" lon="0.245883">
        <ele>1135.9</ele>
        <time>2020-07-05T15:06:00Z</time>
      </trkpt>
      <trkpt lat="42.782478" lon="0.246003">
        <ele>1134.9</ele>
        <time>2020-07-05T15:06:08Z</time>
      </trkpt>
      <trkpt lat="42.782582" lon="0.246032">
        <ele>1133.2</ele>
        <time>2020-07-05T15:06:15Z</time>
      </trkpt>
      <trkpt lat="42.782690" lon="0.246022">
        <ele>1132.2</ele>
        <time>2020-07-05T15:06:22Z</time>
      </trkpt>
      <trkpt lat="42.782834" lon="0.245975">
        <ele>1129.2</ele>
        <time>2020-07-05T15:06:34Z</time>
      </trkpt>
      <trkpt lat="42.782991" lon="0.245927">
        <ele>1127.2</ele>
        <time>2020-07-05T15:06:44Z</time>
      </trkpt>
      <trkpt lat="42.783116" lon="0.245816">
        <ele>1125.4</ele>
        <time>2020-07-05T15:06:53Z</time>
      </trkpt>
      <trkpt lat="42.783270" lon="0.245770">
        <ele>1123.6</ele>
        <time>2020-07-05T15:07:04Z</time>
      </trkpt>
      <trkpt lat="42.783428" lon="0.245737">
        <ele>1121.4</ele>
        <time>2020-07-05T15:07:13Z</time>
      </trkpt>
      <trkpt lat="42.783545" lon="0.245723">
        <ele>1118.8</ele>
        <time>2020-07-05T15:07:21Z</time>
      </trkpt>
      <trkpt lat="42.783678" lon="0.245721">
        <ele>1116.6</ele>
        <time>2020-07-05T15:07:30Z</time>
      </trkpt>
      <trkpt lat="42.783810" lon="0.245782">
        <ele>1114.7</ele>
        <time>2020-07-05T15:07:40Z</time>
      </trkpt>
      <trkpt lat="42.783932" lon="0.245812">
        <ele>1112.7</ele>
        <time>2020-07-05T15:07:47Z</time>
      </trkpt>
      <trkpt lat="42.784049" lon="0.245851">
        <ele>1111.9</ele>
        <time>2020-07-05T15:07:55Z</time>
      </trkpt>
      <trkpt lat="42.784203" lon="0.245879">
        <ele>1110.2</ele>
        <time>2020-07-05T15:08:06Z</time>
      </trkpt>
      <trkpt lat="42.784348" lon="0.245911">
        <ele>1109.2</ele>
        <time>2020-07-05T15:08:15Z</time>
      </trkpt>
      <trkpt lat="42.784493" lon="0.245934">
        <ele>1106.6</ele>
        <time>2020-07-05T15:08:23Z</time>
      </trkpt>
      <trkpt lat="42.784595" lon="0.245858">
        <ele>1104.8</ele>
        <time>2020-07-05T15:08:30Z</time>
      </trkpt>
      <trkpt lat="42.784634" lon="0.245722">
        <ele>1103.0</ele>
        <time>2020-07-05T15:08:38Z</time>
      </trkpt>
      <trkpt lat="42.784686" lon="0.245583">
        <ele>1101.3</ele>
        <time>2020-07-05T15:08:46Z</time>
      </trkpt>
      <trkpt lat="42.784822" lon="0.245530">
        <ele>1098.7</ele>
        <time>2020-07-05T15:08:56Z</time>
      </trkpt>
      <trkpt lat="42.784932" lon="0.245393">
        <ele>1095.3</ele>
        <time>2020-07-05T15:09:06Z</time>
      </trkpt>
      <trkpt lat="42.785071" lon="0.245331">
        <ele>1093.6</ele>
        <time>2020-07-05T15:09:13Z</time>
      </trkpt>
      <trkpt lat="42.785201" lon="0.245315">
        <ele>1092.6</ele>
        <time>2020-07-05T15:09:20Z</time>
      </trkpt>
      <trkpt lat="42.785306" lon="0.245359">
        <ele>1090.8</ele>
        <time>2020-07-05T15:09:28Z</time>
      </trkpt>
      <trkpt lat="42.785409" lon="0.245384">
        <ele>1089.8</ele>
        <time>2020-07-05T15:09:35Z</time>
      </trkpt>
      <trkpt lat="42.785506" lon="0.245461">
        <ele>1088.2</ele>
        <time>2020-07-05T15:09:42Z</time>
      </trkpt>
      <trkpt lat="42.785604" lon="0.245503">
        <ele>1086.5</ele>
        <time>2020-07-05T15:09:51Z</time>
      </trkpt>
      <trkpt lat="42.785682" lon="0.245434">
        <ele>1084.7</ele>
        <time>2020-07-05T15:09:58Z</time>
      </trkpt>
      <trkpt lat="42.785729" lon="0.245319">
        <ele>1082.1</ele>
        <time>2020-07-05T15:10:05Z</time>
      </trkpt>
      <trkpt lat="42.785809" lon="0.245224">
        <ele>1080.2</ele>
        <time>2020-07-05T15:10:14Z</time>
      </trkpt>
      <trkpt lat="42.785846" lon="0.245064">
        <ele>1077.4</ele>
        <time>2020-07-05T15:10:23Z</time>
      </trkpt>
      <trkpt lat="42.785885" lon="0.244901">
        <ele>1075.6</ele>
        <time>2020-07-05T15:10:32Z</time>
      </trkpt>
      <trkpt lat="42.785962" lon="0.244838">
        <ele>1072.7</ele>
        <time>2020-07-05T15:10:39Z</time>
      </trkpt>
      <trkpt lat="42.785966" lon="0.244958">
        <ele>1071.7</ele>
        <time>2020-07-05T15:10:46Z</time>
      </trkpt>
      <trkpt lat="42.786001" lon="0.245094">
        <ele>1071.7</ele>
        <time>2020-07-05T15:10:53Z</time>
      </trkpt>
      <trkpt lat="42.786045" lon="0.245232">
        <ele>1070.7</ele>
        <time>2020-07-05T15:11:00Z</time>
      </trkpt>
      <trkpt lat="42.786075" lon="0.245364">
        <ele>1070.7</ele>
        <time>2020-07-05T15:11:07Z</time>
      </trkpt>
      <trkpt lat="42.786106" lon="0.245505">
        <ele>1070.6</ele>
        <time>2020-07-05T15:11:14Z</time>
      </trkpt>
      <trkpt lat="42.786143" lon="0.245626">
        <ele>1069.8</ele>
        <time>2020-07-05T15:11:21Z</time>
      </trkpt>
      <trkpt lat="42.786163" lon="0.245762">
        <ele>1068.9</ele>
        <time>2020-07-05T15:11:29Z</time>
      </trkpt>
      <trkpt lat="42.786209" lon="0.245875">
        <ele>1068.9</ele>
        <time>2020-07-05T15:11:36Z</time>
      </trkpt>
      <trkpt lat="42.786256" lon="0.246037">
        <ele>1068.8</ele>
        <time>2020-07-05T15:11:44Z</time>
      </trkpt>
      <trkpt lat="42.786285" lon="0.246182">
        <ele>1068.7</ele>
        <time>2020-07-05T15:11:51Z</time>
      </trkpt>
      <trkpt lat="42.786307" lon="0.246320">
        <ele>1067.8</ele>
        <time>2020-07-05T15:11:59Z</time>
      </trkpt>
      <trkpt lat="42.786341" lon="0.246453">
        <ele>1067.7</ele>
        <time>2020-07-05T15:12:07Z</time>
      </trkpt>
      <trkpt lat="42.786369" lon="0.246597">
        <ele>1067.7</ele>
        <time>2020-07-05T15:12:15Z</time>
      </trkpt>
    </trkseg>
  </trk>
</gpx>

